[[{"header":{"parameterUnit":"m.s-1","parameterCategory":1,"la1":30.6,"la2":29.2853,"lo1":-89.7004,"lo2":-87.6739,"dx":0.0162,"dy":0.0183,"nx":112,"ny":82,"refTime":"2022-12-13T06:00:00:Z","depth":0,"parameterNumber":2,"parameterNumberName":"U-component_of_WINDS"},"data":[0.0,0.0,0.0,0.0,0.0,0.0,0.0,0.0,0.0,0.0,0.0,0.0,0.0,0.0,0.0,0.0,0.0,0.0,0.0,0.0,0.0,0.0,0.0,0.0,0.0,0.0,0.0,0.0,0.0,0.0,0.0,0.0,0.0,0.0,0.0,0.0,0.0,0.0,0.0,0.0,0.0,0.0,0.0,0.0,0.0,0.0,0.0,0.0,0.0,0.0,0.0,0.0,0.0,0.0,0.0,0.0,0.0,0.0,0.0,0.0,0.0,0.0,0.0,0.0,0.0,0.0,0.0,0.0,0.0,0.0,0.0,0.0,0.0,0.0,0.0,0.0,0.0,0.0,0.0,0.0,0.0,0.0,0.0,0.0,0.0,0.0,0.0,0.0,0.0,0.0,-3.8027,-3.8789,-3.9551,-3.9824,-3.9434,-3.9336,-3.8027,-3.5,0.0,0.0,0.0,0.0,0.0,0.0,0.0,0.0,0.0,0.0,0.0,0.0,0.0,0.0,0.0,0.0,0.0,0.0,0.0,0.0,0.0,0.0,0.0,0.0,0.0,0.0,0.0,0.0,0.0,0.0,0.0,0.0,0.0,0.0,0.0,0.0,0.0,0.0,0.0,0.0,0.0,0.0,0.0,0.0,0.0,0.0,0.0,0.0,0.0,0.0,0.0,0.0,0.0,0.0,0.0,0.0,0.0,0.0,0.0,0.0,0.0,0.0,0.0,0.0,0.0,0.0,0.0,0.0,0.0,0.0,0.0,0.0,0.0,0.0,0.0,0.0,0.0,0.0,0.0,0.0,0.0,0.0,0.0,0.0,0.0,0.0,0.0,0.0,0.0,0.0,0.0,0.0,0.0,0.0,0.0,0.0,0.0,0.0,0.0,0.0,0.0,0.0,0.0,0.0,-3.7734,-3.998,-4.0351,-4.0391,-4.0332,-4.0,-3.8496,-3.5488,0.0,0.0,0.0,0.0,0.0,0.0,0.0,0.0,0.0,0.0,0.0,0.0,0.0,0.0,0.0,0.0,0.0,0.0,0.0,0.0,0.0,0.0,0.0,0.0,0.0,0.0,0.0,0.0,0.0,0.0,0.0,0.0,0.0,0.0,0.0,0.0,0.0,0.0,0.0,0.0,0.0,0.0,0.0,0.0,0.0,0.0,0.0,0.0,0.0,0.0,0.0,0.0,0.0,0.0,0.0,0.0,0.0,0.0,0.0,0.0,0.0,0.0,0.0,0.0,0.0,0.0,0.0,0.0,0.0,0.0,0.0,0.0,0.0,0.0,0.0,0.0,0.0,0.0,0.0,0.0,0.0,0.0,0.0,0.0,0.0,0.0,0.0,0.0,0.0,0.0,0.0,0.0,0.0,0.0,0.0,0.0,0.0,0.0,0.0,0.0,0.0,0.0,0.0,-3.7891,-3.9141,-4.1016,-4.1211,-4.1035,-4.0566,-4.0137,-3.8711,-3.5918,-3.4277,0.0,0.0,0.0,0.0,0.0,0.0,0.0,0.0,0.0,0.0,0.0,0.0,0.0,0.0,0.0,0.0,0.0,0.0,0.0,0.0,0.0,0.0,0.0,0.0,0.0,0.0,0.0,0.0,0.0,0.0,0.0,0.0,0.0,0.0,0.0,0.0,0.0,0.0,0.0,0.0,0.0,0.0,0.0,0.0,0.0,0.0,0.0,0.0,0.0,0.0,0.0,0.0,0.0,0.0,0.0,0.0,0.0,0.0,0.0,0.0,0.0,0.0,0.0,0.0,0.0,0.0,0.0,0.0,0.0,0.0,0.0,0.0,0.0,0.0,0.0,0.0,0.0,0.0,0.0,0.0,0.0,0.0,0.0,0.0,0.0,0.0,0.0,0.0,0.0,0.0,0.0,0.0,0.0,0.0,0.0,0.0,0.0,0.0,0.0,0.0,0.0,0.0,-3.957,-4.0488,-4.168,-4.1797,-4.1484,-4.0742,-4.0195,-3.8789,-3.6191,-3.4297,0.0,0.0,0.0,0.0,0.0,0.0,0.0,0.0,0.0,0.0,0.0,0.0,0.0,0.0,0.0,0.0,0.0,0.0,0.0,0.0,0.0,0.0,0.0,0.0,0.0,0.0,0.0,0.0,0.0,0.0,0.0,0.0,0.0,0.0,0.0,0.0,0.0,0.0,0.0,0.0,0.0,0.0,0.0,0.0,0.0,0.0,0.0,0.0,0.0,0.0,0.0,0.0,0.0,0.0,0.0,0.0,0.0,0.0,0.0,0.0,0.0,0.0,0.0,0.0,0.0,0.0,0.0,0.0,0.0,0.0,0.0,0.0,0.0,0.0,0.0,0.0,0.0,0.0,0.0,0.0,0.0,0.0,0.0,0.0,0.0,0.0,0.0,0.0,0.0,0.0,0.0,0.0,0.0,0.0,0.0,0.0,0.0,0.0,0.0,0.0,0.0,0.0,-3.9453,-4.082,-4.1699,-4.1797,-4.1621,-4.1172,-4.0371,-3.8789,-3.6191,-3.4023,0.0,0.0,0.0,0.0,0.0,0.0,0.0,0.0,0.0,0.0,0.0,0.0,0.0,0.0,0.0,0.0,0.0,0.0,0.0,0.0,0.0,0.0,0.0,0.0,0.0,0.0,0.0,0.0,0.0,0.0,0.0,0.0,0.0,0.0,0.0,0.0,0.0,0.0,0.0,0.0,0.0,0.0,0.0,0.0,0.0,0.0,0.0,0.0,0.0,0.0,0.0,0.0,0.0,0.0,0.0,0.0,0.0,0.0,0.0,0.0,0.0,0.0,0.0,0.0,0.0,0.0,0.0,0.0,0.0,0.0,0.0,0.0,0.0,0.0,0.0,0.0,0.0,0.0,0.0,0.0,0.0,0.0,0.0,0.0,0.0,0.0,0.0,0.0,0.0,0.0,0.0,0.0,0.0,0.0,0.0,0.0,0.0,0.0,0.0,0.0,0.0,0.0,-3.9844,-4.1367,-4.248,-4.2598,-4.2207,-4.125,-4.0625,-3.9062,-3.6191,0.0,0.0,0.0,0.0,0.0,0.0,0.0,0.0,0.0,0.0,0.0,0.0,0.0,0.0,0.0,0.0,0.0,0.0,0.0,0.0,0.0,0.0,0.0,0.0,0.0,0.0,0.0,0.0,0.0,0.0,0.0,0.0,0.0,0.0,0.0,0.0,0.0,0.0,0.0,0.0,0.0,0.0,0.0,0.0,0.0,0.0,0.0,0.0,0.0,0.0,0.0,0.0,0.0,0.0,0.0,0.0,0.0,0.0,0.0,0.0,0.0,0.0,0.0,0.0,0.0,0.0,0.0,0.0,0.0,0.0,0.0,0.0,0.0,0.0,0.0,0.0,0.0,0.0,0.0,0.0,0.0,0.0,0.0,0.0,0.0,0.0,0.0,0.0,0.0,0.0,0.0,0.0,0.0,0.0,0.0,0.0,0.0,0.0,0.0,0.0,0.0,0.0,-3.9238,-4.0693,-4.1953,-4.2969,-4.3086,-4.2617,-4.1465,-4.0976,-3.9375,-3.623,0.0,0.0,0.0,0.0,0.0,0.0,0.0,0.0,0.0,0.0,0.0,0.0,0.0,0.0,0.0,0.0,0.0,0.0,0.0,0.0,0.0,0.0,0.0,0.0,0.0,0.0,0.0,0.0,0.0,0.0,0.0,0.0,0.0,0.0,0.0,0.0,0.0,0.0,0.0,0.0,0.0,0.0,0.0,0.0,0.0,0.0,0.0,0.0,0.0,0.0,0.0,0.0,0.0,0.0,0.0,0.0,0.0,0.0,0.0,0.0,0.0,0.0,0.0,0.0,0.0,0.0,0.0,0.0,0.0,0.0,0.0,0.0,0.0,0.0,0.0,0.0,0.0,0.0,0.0,0.0,0.0,0.0,0.0,0.0,0.0,0.0,0.0,0.0,0.0,0.0,0.0,0.0,0.0,0.0,0.0,0.0,0.0,0.0,0.0,0.0,0.0,0.0,-4.0847,-4.1895,-4.2698,-4.3128,-4.3187,-4.2835,-4.1954,-4.1504,-3.9782,0.0,0.0,0.0,0.0,0.0,0.0,0.0,0.0,0.0,0.0,0.0,0.0,0.0,0.0,0.0,0.0,0.0,0.0,0.0,0.0,0.0,0.0,0.0,0.0,0.0,0.0,0.0,0.0,0.0,0.0,0.0,0.0,0.0,0.0,0.0,0.0,0.0,0.0,0.0,0.0,0.0,0.0,0.0,0.0,0.0,0.0,0.0,0.0,0.0,0.0,0.0,0.0,0.0,0.0,0.0,0.0,0.0,0.0,0.0,0.0,0.0,0.0,0.0,0.0,0.0,0.0,0.0,0.0,0.0,0.0,0.0,0.0,0.0,0.0,0.0,0.0,0.0,0.0,0.0,0.0,0.0,0.0,0.0,0.0,0.0,0.0,0.0,0.0,0.0,0.0,0.0,0.0,0.0,0.0,0.0,0.0,0.0,0.0,0.0,0.0,0.0,0.0,0.0,-4.3709,-4.6746,-4.8945,-4.9096,-4.9118,-4.8446,-4.6843,-4.53,-4.2423,-3.7881,0.0,0.0,0.0,0.0,0.0,0.0,0.0,0.0,0.0,0.0,0.0,0.0,0.0,0.0,0.0,0.0,0.0,0.0,0.0,0.0,0.0,0.0,0.0,0.0,0.0,0.0,0.0,0.0,0.0,0.0,0.0,0.0,0.0,0.0,0.0,0.0,0.0,0.0,0.0,0.0,0.0,0.0,0.0,0.0,0.0,0.0,0.0,0.0,0.0,0.0,0.0,0.0,0.0,0.0,0.0,0.0,0.0,0.0,0.0,0.0,0.0,0.0,0.0,0.0,0.0,0.0,0.0,0.0,0.0,0.0,0.0,0.0,0.0,0.0,0.0,0.0,0.0,0.0,0.0,0.0,0.0,0.0,0.0,0.0,0.0,0.0,0.0,0.0,0.0,0.0,0.0,0.0,0.0,0.0,0.0,0.0,0.0,0.0,0.0,0.0,0.0,0.0,-4.5806,-4.9216,-5.158,-5.158,-5.14,-5.0816,-4.9702,-4.8102,-4.5158,-4.0546,0.0,0.0,0.0,0.0,0.0,0.0,0.0,0.0,0.0,0.0,0.0,0.0,0.0,0.0,0.0,0.0,0.0,0.0,0.0,0.0,0.0,0.0,0.0,0.0,0.0,0.0,0.0,0.0,0.0,0.0,0.0,0.0,0.0,0.0,0.0,0.0,0.0,0.0,0.0,0.0,0.0,0.0,0.0,0.0,0.0,0.0,0.0,0.0,0.0,0.0,0.0,0.0,0.0,0.0,0.0,0.0,0.0,0.0,0.0,0.0,0.0,0.0,0.0,0.0,0.0,0.0,0.0,0.0,0.0,0.0,0.0,0.0,0.0,0.0,0.0,0.0,0.0,0.0,0.0,0.0,0.0,0.0,0.0,0.0,0.0,0.0,0.0,0.0,0.0,0.0,0.0,0.0,0.0,0.0,0.0,0.0,0.0,0.0,0.0,0.0,0.0,0.0,-4.742,-5.0359,-5.2286,-5.2286,-5.1821,-5.1525,-5.1523,-5.0371,-4.7862,-4.3713,0.0,0.0,0.0,0.0,0.0,0.0,0.0,0.0,0.0,0.0,0.0,0.0,0.0,0.0,0.0,0.0,0.0,0.0,0.0,0.0,0.0,0.0,0.0,0.0,0.0,0.0,0.0,0.0,0.0,0.0,0.0,0.0,0.0,0.0,0.0,0.0,0.0,0.0,0.0,0.0,0.0,0.0,0.0,0.0,0.0,0.0,0.0,0.0,0.0,0.0,0.0,0.0,0.0,0.0,0.0,0.0,0.0,0.0,0.0,0.0,-4.0438,-3.817,0.0,0.0,0.0,0.0,0.0,0.0,0.0,0.0,0.0,0.0,0.0,0.0,0.0,0.0,0.0,0.0,0.0,0.0,0.0,0.0,0.0,0.0,0.0,0.0,0.0,0.0,0.0,0.0,0.0,0.0,0.0,0.0,0.0,0.0,0.0,0.0,0.0,0.0,0.0,0.0,-5.0198,-5.4376,-5.7229,-5.7229,-5.7053,-5.6464,-5.5163,-5.3453,-5.042,-4.5658,-4.345,0.0,0.0,0.0,0.0,0.0,0.0,0.0,0.0,0.0,0.0,0.0,0.0,0.0,0.0,0.0,0.0,0.0,0.0,0.0,0.0,0.0,0.0,0.0,0.0,0.0,0.0,0.0,0.0,0.0,0.0,0.0,0.0,0.0,0.0,0.0,0.0,0.0,0.0,0.0,0.0,0.0,0.0,0.0,0.0,0.0,0.0,0.0,0.0,0.0,0.0,0.0,0.0,0.0,0.0,0.0,0.0,0.0,0.0,0.0,-4.2776,-4.1177,0.0,0.0,0.0,0.0,0.0,0.0,0.0,0.0,0.0,0.0,0.0,0.0,0.0,0.0,0.0,0.0,0.0,0.0,0.0,0.0,0.0,0.0,0.0,0.0,0.0,0.0,0.0,0.0,0.0,0.0,0.0,0.0,0.0,0.0,0.0,0.0,0.0,0.0,0.0,0.0,-5.0996,-5.5641,-5.8629,-5.8353,-5.8328,-5.7976,-5.7097,-5.5584,-5.3176,-4.9657,-4.6732,0.0,0.0,0.0,0.0,0.0,0.0,0.0,0.0,0.0,0.0,0.0,0.0,0.0,0.0,0.0,0.0,0.0,0.0,0.0,0.0,0.0,0.0,0.0,0.0,0.0,0.0,0.0,0.0,0.0,0.0,0.0,0.0,0.0,0.0,0.0,0.0,0.0,0.0,0.0,0.0,0.0,0.0,0.0,0.0,0.0,0.0,0.0,0.0,0.0,0.0,0.0,0.0,0.0,-4.3865,-4.374,-4.4518,-4.4618,-4.5121,-4.5849,-4.4543,-4.4342,-4.4719,-4.1982,0.0,0.0,0.0,0.0,0.0,0.0,0.0,0.0,0.0,0.0,0.0,0.0,0.0,0.0,0.0,0.0,0.0,0.0,0.0,0.0,0.0,0.0,-4.8761,-4.8661,-4.9012,-4.8209,-4.3991,0.0,0.0,0.0,0.0,0.0,0.0,0.0,0.0,0.0,0.0,0.0,-5.1523,-5.5792,-5.8453,-5.8077,-5.8052,-5.7951,-5.7775,-5.6997,-5.5559,-5.3425,-4.9979,-4.6382,0.0,0.0,0.0,0.0,0.0,0.0,0.0,0.0,0.0,0.0,0.0,0.0,0.0,0.0,0.0,0.0,0.0,0.0,0.0,0.0,0.0,0.0,0.0,0.0,0.0,0.0,0.0,0.0,0.0,0.0,0.0,0.0,-4.0604,-3.9086,0.0,0.0,0.0,0.0,0.0,0.0,0.0,0.0,0.0,0.0,0.0,0.0,0.0,-4.389,-4.4518,-4.5422,-4.6175,-4.6803,-4.7556,-4.7707,-4.738,-4.7883,-4.7933,-4.7606,-4.7883,0.0,-4.605,-4.5623,0.0,0.0,0.0,0.0,0.0,0.0,0.0,0.0,0.0,0.0,0.0,0.0,0.0,0.0,0.0,0.0,0.0,0.0,0.0,0.0,0.0,0.0,-5.2151,-5.1674,-5.1624,-5.1348,-5.0218,-4.6552,-4.3689,-4.4468,-4.3438,-4.1882,0.0,0.0,0.0,0.0,0.0,0.0,-5.3582,-5.6394,-5.8152,-5.8579,-5.8604,-5.8227,-5.7223,-5.7474,-5.6376,-5.3322,-5.1385,-4.8311,-4.3616,-4.0519,0.0,0.0,0.0,0.0,0.0,0.0,0.0,0.0,0.0,0.0,0.0,0.0,0.0,0.0,0.0,0.0,0.0,0.0,0.0,0.0,0.0,0.0,0.0,0.0,0.0,0.0,0.0,0.0,0.0,-4.1833,-4.0856,-3.9323,-3.8932,-3.8595,0.0,0.0,0.0,0.0,0.0,0.0,0.0,0.0,0.0,-4.5246,-4.5547,-4.6075,-4.6954,-4.6828,-4.7205,-4.8058,-4.7606,-4.7732,-4.8385,-4.8008,-4.7883,-4.7933,-4.851,-4.8535,-4.8083,-4.7154,-4.605,-4.4869,0.0,0.0,0.0,0.0,-4.4995,-4.5397,-4.6627,-4.6702,-4.61,-4.5221,0.0,0.0,0.0,0.0,0.0,0.0,0.0,-4.9088,-5.0444,-5.1624,-5.2553,-5.2929,-5.3005,-5.303,-5.3105,-5.1147,-4.8962,-4.7606,-4.6728,-4.5321,-4.2409,-4.3388,0.0,0.0,0.0,-5.1649,-5.4235,-5.6796,-5.8328,-5.8278,-5.8529,-5.8403,-5.7575,-5.775,-5.7299,-5.5926,-5.404,-5.1916,-4.945,-4.5849,-4.2828,0.0,0.0,0.0,0.0,0.0,0.0,0.0,0.0,0.0,0.0,0.0,0.0,0.0,0.0,0.0,0.0,0.0,0.0,0.0,0.0,0.0,0.0,0.0,0.0,0.0,0.0,0.0,0.0,-4.1879,-4.1096,-3.9323,-3.9314,-3.9029,0.0,0.0,0.0,0.0,0.0,0.0,-4.3765,-4.4217,-4.5397,-4.7481,-4.7405,-4.7732,-4.8535,-4.7732,-4.7682,-4.8335,-4.723,-4.723,-4.8109,-4.7431,-4.733,-4.7732,-4.8309,-4.8862,-4.9289,-4.8058,-4.7556,-4.7405,-4.5874,-4.5271,-4.5397,-4.6527,-4.7029,-4.7431,-4.9364,-4.9766,-4.9289,-4.846,-4.8058,-4.7531,-4.5472,0.0,0.0,0.0,0.0,-4.9665,-5.077,-5.1674,-5.2528,-5.3306,-5.3507,-5.3658,-5.421,-5.4009,-5.3005,-5.0695,-5.0243,-4.9163,-4.5698,-4.6828,0.0,-4.7481,-5.0544,-5.3582,-5.539,-5.7449,-5.8604,-5.8328,-5.8805,-5.8855,-5.8177,-5.8353,-5.8353,-5.7926,-5.5998,-5.4771,-5.4366,-5.0532,-4.7744,-4.6113,0.0,0.0,0.0,0.0,0.0,0.0,0.0,0.0,0.0,0.0,0.0,0.0,0.0,0.0,0.0,0.0,0.0,0.0,0.0,0.0,0.0,0.0,0.0,0.0,0.0,0.0,0.0,0.0,0.0,-3.9852,-4.0578,0.0,0.0,0.0,0.0,-4.2016,-4.259,-4.384,-4.6024,-4.6175,-4.6954,-4.8636,-4.8159,-4.7908,-4.7958,-4.7908,-4.7657,-4.723,-4.7631,-4.733,-4.6451,-4.6928,-4.7093,-4.7143,-4.7732,-4.8284,-4.8812,-4.8711,-4.8686,-4.8586,-4.7456,-4.6943,-4.7129,-4.8234,-4.8987,-4.959,-5.0795,-5.1172,-5.1147,-5.1096,-4.964,-4.7883,-4.7732,-4.7405,0.0,0.0,-5.0318,-5.1398,-5.2528,-5.2854,-5.2904,-5.2955,-5.298,-5.3105,-5.3632,-5.3708,-5.3808,-5.421,-5.4356,-5.3557,-5.1247,0.0,-5.1398,-5.2402,-5.2779,-5.4285,-5.8027,-5.8629,-5.8905,-5.9357,-5.991,-5.9809,-5.878,-5.9608,-5.9533,-5.8001,-5.6415,-5.554,-5.5516,-5.2507,-4.9991,-4.8271,-4.5916,0.0,0.0,0.0,0.0,0.0,0.0,0.0,0.0,0.0,0.0,0.0,0.0,0.0,0.0,0.0,0.0,0.0,0.0,0.0,0.0,0.0,0.0,0.0,0.0,0.0,0.0,0.0,0.0,-4.2423,-4.2359,0.0,-4.163,-4.2384,-4.3011,-4.3187,-4.4392,-4.5623,-4.6778,-4.7154,-4.7606,-4.8184,-4.8008,-4.7908,-4.7908,-4.723,-4.7129,-4.7631,-4.7129,-4.6878,-4.6853,-4.6993,-4.7068,-4.7118,-4.8083,-4.8786,-4.9264,-4.8912,-4.8987,-4.9289,-4.9264,-4.9238,-4.9339,-5.0117,-5.0745,-5.1272,-5.1674,-5.18,-5.1749,-5.1398,-4.9471,-4.7532,-4.9516,-4.9109,-4.845,-5.0589,-5.1498,-5.19,-5.2302,-5.2402,-5.2402,-5.2402,-5.2929,-5.3482,-5.3658,-5.4285,-5.4838,-5.5064,-5.4813,-5.3858,-5.1649,-5.2754,-5.3708,-5.303,-5.4762,-5.6746,-5.8504,-5.9006,-5.9282,-5.9483,-5.9985,-6.0161,-5.9784,-6.0437,-6.0638,-6.0035,-5.916,-5.8644,-5.8644,-5.6911,-5.5509,-5.4543,-5.3327,-5.1184,0.0,0.0,0.0,0.0,0.0,0.0,0.0,0.0,0.0,0.0,0.0,0.0,0.0,0.0,0.0,0.0,0.0,0.0,0.0,0.0,0.0,0.0,0.0,0.0,0.0,-4.3542,-4.3724,-4.3299,-4.3589,-4.3539,-4.2841,-4.389,-4.4644,-4.4644,-4.5673,-4.6552,-4.7043,-4.7456,-4.7657,-4.7657,-4.7807,-4.7832,-4.7657,-4.7305,-4.7405,-4.7908,-4.738,-4.723,-4.738,-4.738,-4.7506,-4.7732,-4.846,-4.9088,-4.9565,-4.9213,-4.9264,-4.964,-4.9992,-5.0368,-5.077,-5.1348,-5.18,-5.2126,-5.2327,-5.2251,-5.2026,-5.1448,-4.9776,-4.836,-5.019,-4.9974,-4.9523,-5.1312,-5.1975,-5.2151,-5.2327,-5.2377,-5.2377,-5.2377,-5.3055,-5.3758,-5.3959,-5.4737,-5.544,-5.5616,-5.5214,-5.4436,-5.3155,-5.416,-5.4787,-5.3884,-5.5792,-5.7524,-5.8077,-5.878,-5.9307,-5.9483,-6.0161,-6.0537,-6.0337,-6.0487,-6.0688,-6.0889,-6.0186,-5.9935,-6.0311,-5.9458,-5.873,-5.8177,-5.7424,-5.5591,-5.2653,0.0,0.0,0.0,0.0,0.0,0.0,0.0,0.0,0.0,0.0,0.0,0.0,0.0,0.0,0.0,0.0,0.0,0.0,0.0,0.0,0.0,0.0,0.0,-4.3206,-4.3559,-4.3463,-4.2464,-4.4192,-4.507,-4.3991,-4.5347,-4.6301,-4.6301,-4.6326,-4.6577,-4.7043,-4.7093,-4.7118,-4.7093,-4.7657,-4.7682,-4.7143,-4.8209,-4.846,-4.7933,-4.8485,-4.846,-4.7908,-4.7933,-4.8234,-4.8761,-4.8786,-4.9113,-4.959,-4.959,-4.9615,-4.9615,-4.9615,-5.0293,-5.1322,-5.19,-5.2101,-5.2176,-5.2703,-5.2528,-5.1975,-5.1423,-5.087,-5.0228,-4.9766,-4.9927,-5.0478,-5.1122,-5.1674,-5.2201,-5.2754,-5.2904,-5.2904,-5.2904,-5.3331,-5.3884,-5.4436,-5.4988,-5.5541,-5.6068,-5.5742,-5.5541,-5.6068,-5.529,-5.4762,-5.529,-5.5842,0.0,-5.6972,-5.8027,-5.8905,-5.9357,-6.0437,-6.0889,-6.0337,-5.9809,-5.9784,-6.0362,-5.9408,-5.9307,-6.0362,-5.9859,-5.9307,-5.8805,-5.7675,-5.6545,-5.5465,0.0,0.0,0.0,0.0,0.0,0.0,0.0,0.0,0.0,0.0,0.0,0.0,0.0,0.0,0.0,0.0,0.0,0.0,0.0,0.0,0.0,-4.4889,-4.5418,-4.4311,-4.4699,-4.507,-4.5146,-4.5723,-4.5974,-4.5648,-4.605,-4.6301,-4.6301,-4.6677,-4.6918,-4.7068,-4.7883,-4.8134,-4.7707,-4.8234,-4.846,-4.8309,-4.8209,-4.8284,-4.8535,-4.8259,-4.8058,-4.7933,-4.8335,-4.8611,-4.8786,-4.9188,-4.9464,-4.959,-4.959,-4.9841,-5.0193,-5.0193,-5.0368,-5.077,-5.1749,-5.2101,-5.2126,-5.2277,-5.1699,-5.0845,-5.0695,-4.9364,-4.8033,-4.9227,-4.9068,-4.8853,-5.0764,-5.1398,-5.1624,-5.2176,-5.2327,-5.2327,-5.2327,-5.3356,-5.4386,-5.4536,-5.4988,-5.544,-5.5591,-5.5164,-5.4838,-5.4988,-5.5089,-5.5089,-5.4838,-5.5591,-5.642,-5.6972,-5.8027,-5.8453,-5.7775,-5.873,-5.9483,-5.9709,-5.996,-6.0688,-6.2044,-6.1492,-6.1416,-6.2119,-6.1215,-6.0638,-6.0512,-5.9031,-5.7901,0.0,0.0,0.0,0.0,0.0,0.0,0.0,0.0,0.0,0.0,0.0,0.0,0.0,0.0,0.0,0.0,0.0,0.0,0.0,0.0,0.0,0.0,-4.5641,-4.6148,-4.5439,-4.5623,-4.5949,-4.6276,-4.6301,-4.6301,-4.6301,-4.6301,-4.6401,-4.6652,-4.6892,-4.723,-4.7431,-4.8284,-4.851,-4.7933,-4.8686,-4.9012,-4.8761,-4.8661,-4.8786,-4.9113,-4.8761,-4.8611,-4.8636,-4.8962,-4.9113,-4.9163,-4.969,-4.9816,-4.9615,-4.9841,-4.9992,-5.0092,0.0,0.0,0.0,0.0,-5.19,-5.2076,-5.185,-5.1172,-5.0419,-5.0419,-4.9273,-4.824,-4.9516,-4.9397,-4.926,-5.1105,-5.1624,-5.1749,-5.2302,-5.2452,-5.2452,-5.2452,-5.3532,-5.4486,-5.426,-5.4838,-5.5315,-5.5089,-5.4963,0.0,-5.4612,-5.4637,-5.4561,-5.426,-5.4963,-5.5641,-5.5968,-5.7399,-5.8202,-5.7775,-5.873,-5.9608,-6.0161,-6.006,0.0,0.0,0.0,-6.1542,-6.2119,-6.1291,0.0,0.0,0.0,-5.9834,-5.996,-5.8981,0.0,0.0,-5.6093,-5.5691,0.0,0.0,0.0,0.0,0.0,0.0,0.0,0.0,0.0,0.0,0.0,0.0,0.0,0.0,0.0,0.0,-4.605,-4.6376,-4.6326,-4.6301,-4.6301,-4.6301,-4.6301,-4.6301,-4.6301,-4.6376,-4.6602,-4.7043,-4.7255,-4.7531,-4.7983,-4.856,0.0,0.0,0.0,-4.9364,-4.8862,-4.9339,-4.959,-4.959,-4.959,-4.959,-4.959,-4.959,-4.959,-4.9615,-5.0167,-5.0117,-4.964,-5.0193,-5.0092,-4.964,-5.0117,-5.072,-5.1272,-5.1197,-5.1574,-5.2026,-5.1473,0.0,0.0,-5.0519,-5.0193,-4.9866,-5.0368,-5.0519,-5.0745,-5.18,-5.2101,-5.2251,-5.2854,-5.298,-5.2955,-5.3005,-5.3758,-5.4336,-5.3884,-5.4536,-5.5064,-5.4637,-5.4913,-5.5039,-5.4561,-5.411,-5.3808,-5.3808,-5.4235,-5.4587,-5.4637,-5.6545,-5.8027,-5.8403,-5.9408,0.0,-6.0864,-6.0035,-6.0211,-6.1893,-6.1115,-6.0814,-6.1266,-6.0839,-6.0839,-6.1366,-6.1366,-6.1843,-6.2822,-6.2822,-6.2822,-6.2722,-5.8278,-5.7298,0.0,0.0,0.0,0.0,0.0,0.0,0.0,0.0,0.0,0.0,0.0,0.0,0.0,0.0,0.0,-4.6231,-4.6597,-4.6828,-4.6376,-4.6301,-4.6301,-4.6301,-4.6301,-4.6301,-4.6301,-4.6702,-4.7029,-4.7068,-4.7958,-4.851,-4.8611,-4.9138,-4.9389,-4.9264,-4.949,-4.954,-4.9439,-4.954,-4.959,-4.959,-4.959,0.0,-4.959,-4.959,-4.959,-4.9615,-5.0167,-5.0117,-4.964,-5.0193,-5.0092,-4.9615,-4.9715,-5.0368,-5.1222,-5.0745,-5.1222,-5.2026,-5.1473,-5.1197,-5.1122,-5.1122,-5.1046,-5.0971,-5.1071,-5.1122,0.0,-5.1925,-5.2101,-5.2327,-5.3306,-5.3231,-5.303,-5.3457,-5.3708,-5.3959,-5.4336,-5.421,-5.4135,-5.4486,-5.4285,-5.4009,-5.3884,-5.416,-5.4411,-5.4411,-5.4486,-5.4737,-5.5164,-5.6796,-5.76,-5.6771,-5.77,-5.8604,-5.9156,-5.9382,-6.0211,-6.1893,-6.222,-6.2195,-6.1868,-6.2169,-6.2395,-6.2496,-6.2496,-6.2621,-6.2822,-6.2822,-6.2822,-6.2797,-6.1843,-6.1617,0.0,0.0,0.0,0.0,0.0,0.0,0.0,0.0,0.0,0.0,0.0,-4.6055,-4.6334,0.0,-4.735,-4.6763,-4.7179,-4.723,-4.6426,-4.6301,-4.6301,-4.6301,-4.6301,-4.6426,-4.6702,-4.6979,-4.7355,-4.7908,-4.846,-4.8887,-4.9163,-4.9439,-4.959,-4.959,-4.959,-4.959,-4.959,-4.959,-4.959,-4.959,-4.959,-4.959,-4.959,-4.959,-4.9741,-5.0042,-5.0594,-5.0695,-5.0444,-5.0419,-5.0092,-4.959,-4.959,-5.0117,-5.077,-5.0218,-5.0544,-5.1222,-5.0946,-5.0845,-5.0896,-5.1197,-5.1272,-5.1322,-5.1599,-5.1699,-5.18,-5.2352,-5.2528,-5.2628,-5.3181,-5.313,-5.3055,-5.3582,-5.3934,-5.4135,-5.4135,-5.4135,-5.4059,-5.3808,-5.3708,-5.3808,-5.4084,-5.4386,-5.4561,-5.4561,-5.4561,-5.4762,-5.5315,-5.6595,-5.7248,-5.6671,-5.7625,-5.8529,-5.9056,-6.0111,-6.1215,-6.2345,-6.2672,-6.2697,-6.2421,-6.2672,-6.2822,-6.2822,-6.2822,-6.2697,-6.2421,-6.2421,-6.2421,-6.2421,-6.2421,-6.2571,0.0,0.0,0.0,0.0,0.0,0.0,0.0,-4.3594,-4.3776,-4.5019,-4.616,-4.6875,-4.6935,-4.7657,-4.8058,-4.7531,-4.7707,-4.7581,-4.6602,-4.6376,-4.6301,-4.6301,-4.6301,-4.6527,-4.7079,-4.7168,-4.7682,-4.8686,-4.8862,-4.9113,-4.9565,-4.959,-4.959,-4.959,-4.959,-4.959,-4.959,-4.959,-4.959,-4.959,-4.959,-4.959,-4.959,-4.959,-4.9891,-5.0444,-5.1021,-5.1272,-5.1247,-5.067,-5.0167,-4.9741,-4.964,-4.9941,-5.0368,-4.9916,-5.0167,-5.0745,-5.0745,-5.082,-5.0971,-5.1448,-5.1599,-5.1674,-5.2126,-5.2277,-5.2352,-5.2804,-5.2929,-5.2955,-5.3055,-5.3005,-5.308,-5.3708,-5.4059,-5.4185,-5.3934,-5.4059,-5.4009,-5.3231,-5.3331,-5.3708,-5.416,-5.4336,-5.4511,-5.4838,-5.4787,-5.4938,-5.5491,-5.642,-5.7022,-5.7022,-5.8052,-5.9031,-5.9759,-6.1065,-6.2069,-6.2621,-6.2772,-6.2772,-6.2672,-6.2772,-6.2822,-6.2822,-6.2822,-6.2546,-6.1994,-6.1994,-6.1943,-6.1843,-6.1943,-6.2295,-4.0099,-4.0149,-4.0651,-4.1847,-4.1771,-4.22,0.0,-4.516,-4.4994,-4.7086,-4.8106,-4.8674,-4.9113,-4.9314,-4.9213,-4.8686,-4.8209,-4.7707,-4.7129,-4.6627,-4.6301,-4.6301,-4.6301,-4.6527,-4.7079,-4.7556,-4.8083,-4.8711,-4.9213,-4.954,-4.959,-4.959,-4.959,-4.959,-4.959,-4.959,-4.959,-4.959,-4.959,-4.959,-4.959,-4.959,-4.959,-4.959,-4.9891,-5.0444,-5.1021,-5.1272,-5.1247,-5.067,-5.0393,-5.0268,-4.9791,-4.9941,-5.0419,-5.0343,-5.0996,-5.1925,-5.1925,-5.2226,-5.2653,-5.2729,-5.2754,-5.2754,-5.2829,-5.2829,-5.2854,-5.2904,-5.2929,-5.303,-5.3507,-5.3281,-5.3181,-5.421,-5.3783,-5.3356,-5.4285,-5.3758,-5.3206,-5.3557,-5.3281,-5.303,-5.3105,-5.3507,-5.431,-5.5817,-5.5616,-5.5491,-5.6043,-5.6646,-5.7022,-5.7022,-5.8052,-5.9332,-6.0864,-6.1165,-6.1517,-6.2069,-6.2546,-6.2596,-6.2119,-6.2571,-6.2822,-6.2822,-6.2822,-6.2546,-6.1994,-6.1994,-6.1743,-6.1291,-6.1768,-6.2295,-4.3212,-4.2459,-4.1806,-4.3237,-4.3915,-4.4518,-4.5598,-4.62,-4.6878,-4.8159,-4.8862,-4.9314,-4.9565,-4.959,-4.9709,-5.0142,-4.92,-4.8584,-4.8893,-4.7688,-4.7056,-4.7939,-4.8117,-4.8017,-4.7593,-4.7782,-4.8284,-4.9188,-4.9464,-4.959,-4.959,-4.959,-4.959,-4.959,-4.959,-4.959,-4.959,-4.959,-4.959,-4.959,-4.959,-4.9766,-5.0067,-5.0067,-5.0569,-5.1423,-5.2,-5.1875,-5.1297,-5.1373,-5.082,-4.9941,-5.0042,-5.0218,-5.0419,-5.0419,-5.072,-5.1222,-5.1875,-5.2251,-5.2503,-5.2829,-5.2929,-5.2929,-5.2929,-5.2929,-5.2929,-5.2929,-5.2929,-5.298,-5.3206,-5.308,-5.313,-5.3884,-5.3708,-5.3507,-5.3959,-5.3708,-5.3356,-5.3281,-5.308,-5.303,-5.3331,-5.3833,-5.4561,-5.5566,-5.5541,-5.5591,-5.6143,-5.642,-5.6671,-5.6997,-5.7449,-5.8403,-6.006,-6.0487,-6.1065,-6.1943,-6.2521,-6.2722,-6.2496,-6.2697,-6.2822,-6.2822,-6.2822,-6.2395,-6.1517,-6.1517,-6.124,-6.0688,-6.1266,-6.1818,-4.4267,-4.3714,-4.3212,-4.4719,-4.5924,-4.6652,-4.625,-4.7179,-4.8259,-4.8686,-4.9213,-4.959,-4.959,-4.995,-5.0535,-5.1312,-5.0698,-5.0262,-5.0836,-4.9415,-4.87,-4.9578,-4.943,-4.9219,-4.917,-4.8912,-4.9038,-4.9579,-4.959,-4.959,-4.959,-4.959,-4.959,-4.959,-4.959,-4.959,-4.959,-4.959,-4.959,-4.959,-4.959,-4.9891,-5.0419,-5.0745,-5.1322,-5.2126,-5.2678,-5.2377,-5.1548,-5.195,-5.1373,-5.0318,-5.0569,-5.0745,-5.087,-5.087,-5.087,-5.1021,-5.2,-5.2327,-5.2402,-5.2804,-5.2929,-5.2929,-5.2929,-5.2929,-5.2929,-5.2929,-5.2929,-5.2929,-5.2929,-5.2929,-5.3055,-5.3582,-5.3582,-5.3532,-5.3658,-5.3582,-5.3381,-5.3005,-5.2929,-5.3055,-5.3432,-5.3959,-5.4511,-5.5089,-5.529,-5.5591,-5.6143,-5.6219,-5.642,-5.6972,-5.7022,-5.77,-5.9357,-6.001,-6.0814,-6.1943,-6.2521,-6.2822,-6.2822,-6.2822,-6.2822,-6.2822,-6.2822,-6.2295,-6.119,-6.119,-6.0889,-6.0337,-6.0914,-6.1492,-4.2439,-4.3388,-4.4819,-4.5974,-4.7079,-4.7857,-4.7832,-4.8309,-4.8761,-4.8761,-4.9213,-4.959,-4.959,-5.0916,-5.19,-5.1962,-5.2767,-5.3168,-5.2534,-5.1954,-5.1319,-5.074,-4.9365,-4.956,-5.2111,-5.1588,-5.0669,-4.9668,-4.959,-4.959,-4.959,-4.959,-4.959,-4.959,-4.959,-4.959,-4.959,-4.959,-4.959,-4.959,-4.959,-4.9891,-5.0444,-5.1548,-5.2076,-5.2126,-5.2678,-5.2603,-5.2076,-5.2101,-5.2076,-5.1975,-5.1448,-5.1574,-5.2051,-5.2051,-5.2051,-5.2126,-5.2703,-5.2904,-5.2904,-5.2929,-5.2929,-5.2929,-5.2929,-5.2929,-5.2929,-5.2929,-5.2929,-5.2929,-5.2929,-5.2929,-5.3055,-5.3582,-5.3306,-5.308,-5.3582,-5.3306,-5.2955,-5.2929,-5.2929,-5.2929,-5.2955,-5.3381,-5.3934,-5.4511,-5.5039,-5.5591,-5.6143,-5.6219,-5.642,-5.6972,-5.7022,-5.77,-5.9357,-6.001,-6.0814,-6.1943,-6.2521,-6.2822,-6.2822,-6.2822,-6.2822,-6.2822,-6.2822,-6.2295,-6.119,-6.119,-6.0889,-6.0337,-6.0914,-6.1492,-4.4276,-4.4769,-4.5547,-4.7004,-4.7933,-4.8485,-4.8485,-4.8912,-4.9314,-4.9314,-4.9163,-4.9063,-4.9063,-5.0374,-5.1774,-5.2805,-5.3233,-5.3712,-5.4488,-5.2031,-5.0432,-5.118,-5.0336,-5.0061,-5.088,-4.9768,-4.96,-5.1064,-5.0181,-4.959,-4.959,-4.959,-4.959,-4.959,-4.959,-4.959,-4.959,-4.959,-4.959,-4.9615,-5.0368,-5.082,-5.1021,-5.2151,-5.2653,-5.2653,-5.2854,-5.2628,-5.2126,-5.2503,-5.2226,-5.1574,-5.1749,-5.195,-5.2101,-5.2101,-5.2327,-5.2678,-5.2854,-5.2929,-5.2929,-5.2929,-5.2929,-5.2929,-5.2929,-5.2929,-5.2929,-5.2929,-5.2929,-5.2929,-5.2929,-5.2929,-5.298,-5.3155,-5.3055,-5.298,-5.3155,-5.3055,-5.2929,-5.2929,-5.2929,-5.2929,-5.2929,-5.3356,-5.4034,-5.4963,-5.5591,-5.5993,-5.6194,-5.6219,-5.6294,-5.647,-5.6495,-5.7148,-5.8805,-5.9458,-6.0412,-6.1918,-6.2521,-6.2822,-6.2822,-6.2822,-6.2822,-6.2822,-6.2822,-6.2471,-6.1718,-6.1718,-6.1441,-6.0914,-6.1466,-6.1818,-4.5859,-4.6075,-4.6476,-4.8109,-4.8786,-4.9063,-4.9063,-4.9825,-5.0436,-5.0436,-4.9885,-4.9347,-4.9347,-5.0184,-5.1403,-5.2969,-5.4192,-5.5052,-5.5359,-5.3274,-5.1637,-5.1594,-5.0632,-5.0327,-5.1261,-4.9435,-4.9001,-5.1027,-5.0181,-4.959,-4.959,-4.959,-4.959,-4.959,-4.959,-4.959,-4.959,-4.959,-4.969,-4.9891,-5.0845,-5.1398,-5.1599,-5.2528,-5.2929,-5.2929,-5.2929,-5.2729,-5.2427,-5.2779,-5.2503,-5.19,-5.2251,-5.2402,-5.2402,-5.2402,-5.2628,-5.2929,-5.2929,-5.2929,-5.2929,-5.2929,-5.2929,-5.2929,-5.2929,-5.2929,-5.2929,-5.2929,-5.3055,-5.3155,-5.298,-5.3055,-5.3155,-5.298,-5.2929,-5.2929,-5.2929,-5.2929,-5.2929,-5.2929,-5.2929,-5.2929,-5.2929,-5.4036,-5.5234,-5.5976,-5.7261,-5.7895,-5.7231,-5.7159,-5.7421,-5.8037,-5.8108,-5.8857,-6.0575,-6.1252,-6.232,-6.4065,-6.3949,-6.3882,-6.3882,-6.3204,-6.2747,-6.2546,-6.2722,-6.2345,-6.1416,-6.1818,-6.1718,-6.119,-6.1743,-6.2119,-4.6914,-4.7143,-4.7631,-4.9316,-4.9694,-4.9668,-4.9822,-5.1042,-5.2059,-5.198,-5.102,-5.0227,-5.0122,-5.0234,-5.0853,-5.2338,-5.5509,-5.7108,-5.5259,-5.5435,-5.4766,-5.1959,-5.0309,-5.0356,-5.2928,-5.0558,-4.9038,-4.9565,-4.959,-4.959,-4.959,-4.959,-4.959,-4.959,-4.959,-4.959,-4.959,-4.959,-4.9866,-5.0419,-5.0996,-5.1574,-5.2126,-5.2678,-5.2929,-5.2929,-5.2929,-5.2929,-5.2929,-5.2929,-5.2929,-5.2929,-5.2929,-5.2929,-5.2929,-5.2929,-5.2929,-5.2929,-5.2929,-5.2929,-5.2929,-5.2929,-5.2929,-5.2929,-5.2929,-5.2929,-5.2929,-5.2929,-5.3281,-5.3557,-5.3055,-5.3281,-5.3532,-5.3055,-5.2929,-5.2929,-5.2929,-5.2929,-5.2929,-5.2929,-5.2929,-5.2929,-5.2955,-5.5348,-5.7324,-5.7376,-5.9778,-6.0988,-5.9253,-5.9043,-5.9712,-6.1394,-6.1623,-6.2369,-6.4262,-6.5008,-6.607,-6.7995,-6.6792,-6.6027,-6.6027,-6.4123,-6.279,-6.218,-6.2658,-6.2049,-6.0362,-6.1466,-6.1743,-6.124,-6.1793,-6.232,-4.7673,-4.8335,-4.9356,-5.0976,-5.0992,-5.1092,-5.2803,-5.3489,-5.3348,-5.1867,-5.0681,-4.9261,-4.7231,-4.9077,-5.1042,-5.1433,-5.5146,-5.7695,-5.6687,-5.5279,-5.3711,-5.1792,-5.0627,-4.9966,-4.9987,-4.9622,-4.9439,-4.959,-4.959,-4.959,-4.959,-4.959,-4.959,-4.959,-4.959,-4.959,-4.959,-4.959,-4.9866,-5.0419,-5.0996,-5.1574,-5.2126,-5.2678,-5.2929,-5.2929,-5.2929,-5.2929,-5.2929,-5.2929,-5.2929,-5.2929,-5.2929,-5.2929,-5.2929,-5.2929,-5.2929,-5.2929,-5.2929,-5.2929,-5.2929,-5.2929,-5.2929,-5.2929,-5.2929,-5.2929,-5.2929,-5.2929,-5.303,-5.308,-5.2955,-5.303,-5.308,-5.2955,-5.2929,-5.2929,-5.2929,-5.2929,-5.2929,-5.2929,-5.2929,-5.3055,-5.3432,-5.5581,-5.7482,-5.7837,-5.9982,-6.1394,-6.0988,-6.092,-6.1056,-6.1528,-6.2077,-6.3073,-6.4827,-6.6032,-6.7442,-6.9239,-6.8984,-6.876,-6.876,-6.7842,-6.6356,-6.4247,-6.4378,-6.3282,-6.0964,-6.1667,-6.1943,-6.1818,-6.237,-6.2697,-5.0737,-5.1206,-5.1874,-5.244,-5.2547,-5.2512,-5.2602,-5.3661,-5.3838,-5.1259,-4.9611,-4.8219,-4.666,-4.7998,-4.9721,-5.091,-5.4934,-5.7584,-5.6697,-5.5812,-5.4373,-5.2026,-5.1103,-5.0315,-4.9607,-4.9565,-4.959,-4.959,-4.959,-4.959,-4.959,-4.959,-4.959,-4.959,-4.959,-4.959,-4.959,-4.959,-4.9866,-5.0419,-5.0745,-5.1197,-5.1749,-5.2076,-5.2327,-5.2578,-5.2578,-5.2703,-5.2929,-5.2929,-5.2929,-5.2929,-5.2929,-5.2929,-5.2929,-5.2929,-5.2929,-5.2929,-5.2929,-5.2929,-5.2929,-5.2929,-5.2929,-5.2929,-5.2929,-5.2929,-5.2929,-5.2929,-5.3605,-5.4185,-5.3186,-5.4193,-5.508,-5.3298,-5.3495,-5.381,-5.3042,-5.2929,-5.2929,-5.2929,-5.3495,-5.409,-5.4372,-5.7317,-5.9649,-5.9979,-6.2323,-6.4045,-6.4396,-6.3743,-6.3546,-6.4295,-6.4741,-6.5831,-6.7982,-6.8843,-7.0191,-7.2371,-7.1676,-7.1128,-7.1128,-6.9671,-6.7948,-6.5921,-6.6115,-6.5181,-6.2985,-6.3207,-6.3595,-6.4167,-6.411,-6.4123,-5.3988,-5.4138,-5.4027,-5.3708,-5.4043,-5.3849,-5.1572,-5.3011,-5.3897,-5.045,-4.8503,-4.7263,-4.6909,-4.7031,-4.8027,-5.0669,-5.4764,-5.7278,-5.6348,-5.6667,-5.5965,-5.2978,-5.2245,-5.1584,-5.0814,-5.0355,-4.9923,-4.959,-4.959,-4.959,-4.959,-4.959,-4.959,-4.959,-4.959,-4.959,-4.959,-4.959,-4.9866,-5.0419,-5.0419,-5.072,-5.1272,-5.1272,-5.1548,-5.2,-5.2076,-5.2327,-5.2729,-5.2879,-5.2879,-5.2829,-5.2904,-5.2929,-5.2929,-5.2929,-5.2929,-5.2929,-5.2929,-5.2929,-5.2929,-5.2929,-5.2929,-5.2929,-5.2929,-5.2929,-5.2929,-5.3179,-5.466,-5.5797,-5.4176,-5.6226,-5.783,-5.4464,-5.4552,-5.4982,-5.3563,-5.3042,-5.2929,-5.2929,-5.4231,-5.5446,-5.5525,-5.9412,-6.25,-6.2587,-6.5123,-6.7238,-6.7897,-6.6608,-6.6289,-6.7951,-6.8106,-6.9123,-7.1667,-7.1966,-7.3133,-7.5736,-7.4219,-7.3299,-7.3169,-7.0934,-6.8975,-6.7474,-6.7985,-6.7311,-6.5324,-6.534,-6.598,-6.7147,-6.6523,-6.6234,-5.2589,-5.2752,-5.3012,-5.4232,-5.4623,-5.4668,-5.442,-5.4738,-5.4051,-5.0169,-4.8337,-4.687,-4.5183,-4.6624,-4.8745,-5.0955,-5.4619,-5.7321,-5.7678,-5.7827,-5.7382,-5.608,-5.5793,-5.4884,-5.2744,-5.2492,-5.1624,-4.9744,-4.959,-4.959,-4.959,-4.959,-4.959,-4.959,-4.959,-4.959,-4.959,-4.959,-4.9866,-5.0419,-5.0419,-5.072,-5.1272,-5.1272,-5.1322,-5.1448,-5.19,-5.19,-5.1649,-5.2553,-5.2653,-5.2302,-5.2754,-5.2929,-5.2929,-5.2929,-5.2929,-5.2929,-5.2929,-5.2929,-5.2929,-5.2929,-5.2929,-5.2929,-5.2929,-5.2929,-5.3179,-5.4541,-5.526,-5.5921,-5.7543,-5.8063,-5.8126,-5.7932,-5.662,-5.5287,-5.5049,-5.3852,-5.2929,-5.2929,-5.4231,-5.5578,-5.6079,-5.9653,-6.2645,-6.31,-6.5356,-6.7238,-6.7897,-6.7769,-6.7853,-6.8764,-6.8824,-6.9662,-7.1697,-7.2415,-7.3642,-7.5766,-7.5608,-7.5368,-7.5368,-7.4406,-7.2537,-6.9633,-7.0135,-6.8981,-6.6059,-6.7019,-6.7596,-6.781,-6.8181,-6.8359,-5.4717,-5.4861,-5.4967,-5.5406,-5.606,-5.5866,-5.3207,-5.3414,-5.2725,-4.7728,-4.6021,-4.5225,-4.4453,-4.6014,-4.8112,-5.0338,-5.4051,-5.6825,-5.7483,-5.8201,-5.8233,-5.7282,-5.7225,-5.6558,-5.4855,-5.4391,-5.3414,-5.1508,-5.1034,-5.0499,-4.9654,-4.959,-4.959,-4.959,-4.959,-4.959,-4.959,-4.959,-5.0141,-5.124,-5.042,-5.0546,-5.1614,-5.076,-5.0569,-5.0845,-5.1122,-5.1247,-5.1348,-5.2176,-5.2352,-5.2151,-5.2703,-5.2929,-5.2929,-5.2929,-5.2929,-5.2929,-5.2929,-5.2929,-5.3042,-5.392,-5.3606,-5.2929,-5.2929,-5.2929,-5.3042,-5.3852,-5.538,-5.6666,-5.6332,-5.8447,-6.0132,-5.8041,-5.7158,-5.6763,-5.6763,-5.6103,-5.5538,-5.5538,-5.6892,-5.827,-5.8906,-6.1953,-6.4496,-6.5143,-6.6832,-6.8286,-6.8944,-6.9004,-6.9153,-6.9482,-6.9512,-7.0141,-7.1757,-7.2505,-7.3612,-7.5258,-7.5707,-7.5916,-7.5916,-7.5258,-7.4048,-7.212,-7.2385,-7.1579,-6.9662,-6.9565,-7.002,-7.1076,-7.0675,-7.0447,-5.6555,-5.6675,-5.6585,-5.6256,-5.7034,-5.6585,-5.1541,-5.1648,-5.1139,-4.5484,-4.3885,-4.3738,-4.4393,-4.5563,-4.7323,-4.9968,-5.3294,-5.5897,-5.6944,-5.8141,-5.8723,-5.8201,-5.8174,-5.7801,-5.6856,-5.6173,-5.521,-5.3583,-5.2863,-5.1678,-4.9719,-4.959,-4.959,-4.959,-4.995,-5.0142,-5.0142,-5.0436,-5.1268,-5.2516,-5.1205,-5.1268,-5.2455,-5.0853,-5.0371,-5.0738,-5.0474,-5.0619,-5.0971,-5.1649,-5.185,-5.18,-5.2352,-5.2578,-5.2578,-5.2703,-5.2754,-5.2822,-5.3265,-5.3427,-5.3742,-5.5446,-5.4567,-5.2998,-5.3291,-5.3179,-5.3042,-5.381,-5.5643,-5.7092,-5.5756,-5.8927,-6.1672,-5.8071,-5.7889,-5.8446,-5.8068,-5.8088,-5.8198,-5.8198,-5.9776,-6.1318,-6.1837,-6.4443,-6.661,-6.7119,-6.8226,-6.9183,-6.9692,-6.9901,-6.9991,-6.9991,-6.9991,-7.05,-7.1787,-7.2385,-7.3253,-7.4569,-7.5318,-7.5677,-7.5677,-7.5168,-7.4569,-7.3911,-7.4031,-7.3791,-7.3133,-7.2207,-7.253,-7.4121,-7.3058,-7.2528,-5.5359,-5.5359,-5.5508,-5.6047,-5.6675,-5.6107,-5.2067,-5.1259,-5.0062,-4.5304,-4.3747,-4.3717,-4.5005,-4.5819,-4.7388,-5.0584,-5.2426,-5.4311,-5.6765,-5.7752,-5.8626,-5.9772,-5.9891,-5.9487,-5.855,-5.7857,-5.6815,-5.5182,-5.4538,-5.2849,-4.9783,-4.959,-4.959,-4.959,-5.1016,-5.1803,-5.1803,-5.3248,-5.4029,-5.4149,-5.4029,-5.4029,-5.4089,-5.2516,-5.1829,-5.1783,-5.0791,-5.0167,-4.9841,-5.0921,-5.1046,-5.0619,-5.1197,-5.1423,-5.1498,-5.2,-5.2176,-5.243,-5.4493,-5.5181,-5.5419,-5.724,-5.5538,-5.3179,-5.4742,-5.4122,-5.3563,-5.6661,-5.6661,-5.6444,-5.9893,-6.0786,-6.0629,-6.0234,-6.0205,-5.9843,-5.832,-5.8483,-5.8898,-5.8898,-6.126,-6.3226,-6.3313,-6.5831,-6.7807,-6.7867,-6.8525,-6.9034,-6.9093,-6.9602,-6.9991,-6.9991,-6.9991,-7.05,-7.1787,-7.1936,-7.2565,-7.3911,-7.4599,-7.4958,-7.4958,-7.4899,-7.4569,-7.3911,-7.448,-7.445,-7.3821,-7.4313,-7.4642,-7.4779,-7.4702,-7.4633,-5.5089,-5.5478,-5.5837,-5.6107,-5.6346,-5.5508,-5.1481,-5.0331,-4.8835,-4.4575,-4.3798,-4.4197,-4.5125,-4.5873,-4.713,-4.9643,-5.1139,-5.2785,-5.5029,-5.6585,-5.7842,-5.88,-5.9608,-6.0104,-6.0166,-5.9875,-5.8897,-5.6902,-5.5252,-5.385,-5.2543,-5.2482,-5.2051,-5.1079,-5.2578,-5.3429,-5.3429,-5.4089,-5.4859,-5.5791,-5.4859,-5.4859,-5.5734,-5.4149,-5.3429,-5.3396,-5.2003,-5.1224,-5.1094,-5.1896,-5.1484,-5.0665,-5.311,-5.3538,-5.2867,-5.4455,-5.5055,-5.5264,-5.6509,-5.6956,-5.7213,-5.8918,-5.7914,-5.6103,-5.679,-5.6466,-5.6233,-5.7624,-5.823,-5.8467,-5.8402,-5.8915,-5.9894,-6.1673,-6.2322,-6.2409,-6.1781,-6.2154,-6.2619,-6.2619,-6.3547,-6.4683,-6.545,-6.6957,-6.8256,-6.9064,-6.9423,-6.9602,-6.9602,-6.9812,-6.9991,-6.9991,-7.032,-7.0919,-7.1816,-7.1876,-7.2475,-7.3821,-7.451,-7.4869,-7.4869,-7.5288,-7.4988,-7.3911,-7.454,-7.454,-7.3881,-7.454,-7.4869,-7.4869,-7.4869,-7.4869,-5.473,-5.5538,-5.6226,-5.6406,-5.6166,-5.494,-5.1349,-4.9733,-4.7967,-4.4336,-4.3947,-4.4586,-4.5454,-4.6142,-4.7189,-4.903,-5.0361,-5.1977,-5.4192,-5.5837,-5.7154,-5.8022,-5.8949,-5.9787,-6.0446,-6.0685,-5.9921,-5.7888,-5.6507,-5.5385,-5.4446,-5.5269,-5.4859,-5.2761,-5.4268,-5.5094,-5.5094,-5.556,-5.6337,-5.7384,-5.6337,-5.6337,-5.7384,-5.5791,-5.5094,-5.4976,-5.3429,-5.27,-5.2727,-5.3093,-5.2596,-5.1854,-5.4487,-5.4835,-5.4074,-5.5826,-5.6617,-5.6927,-5.8069,-5.8591,-5.9008,-6.069,-6.0448,-5.9532,-5.9532,-5.8821,-5.8131,-5.8634,-5.9228,-5.9279,-5.7304,-5.7281,-5.8621,-6.1817,-6.2913,-6.3417,-6.4128,-6.4844,-6.5323,-6.5323,-6.5622,-6.6251,-6.7388,-6.8136,-6.8884,-6.9842,-6.9991,-6.9842,-6.9453,-6.9722,-6.9901,-6.9722,-7.041,-7.1098,-7.1547,-7.1787,-7.2295,-7.3253,-7.3941,-7.448,-7.4869,-7.5347,-7.5168,-7.421,-7.4629,-7.454,-7.3881,-7.4749,-7.5198,-7.5198,-7.5198,-7.5078,-5.4042,-5.5179,-5.6316,-5.6944,-5.6137,-5.4491,-5.1828,-4.9703,-4.7549,-4.4855,-4.4317,-4.4736,-4.601,-4.686,-4.7728,-4.909,-5.0361,-5.2157,-5.479,-5.5748,-5.6675,-5.7962,-5.8141,-5.8411,-5.9069,-5.9727,-5.9418,-5.783,-5.8519,-5.7693,-5.4564,-5.7328,-5.7637,-5.4446,-5.5849,-5.665,-5.665,-5.8276,-5.9045,-5.9045,-5.9045,-5.9045,-5.9045,-5.744,-5.665,-5.6593,-5.5035,-5.4386,-5.4386,-5.4414,-5.4355,-5.4355,-5.4414,-5.4414,-5.4437,-5.4989,-5.5657,-5.6537,-5.8731,-5.9901,-6.075,-6.2497,-6.3079,-6.3079,-6.3079,-6.0658,-5.8383,-5.9994,-5.929,-5.8005,-5.8005,-5.6726,-5.6471,-6.0546,-6.152,-6.2151,-6.4487,-6.5533,-6.6011,-6.6011,-6.7059,-6.8166,-6.8854,-6.9542,-6.9961,-6.9991,-6.9991,-6.9512,-6.8166,-6.9153,-6.9722,-6.9093,-7.0141,-7.0889,-7.0919,-7.1517,-7.1906,-7.1906,-7.2565,-7.3522,-7.4839,-7.4899,-7.4869,-7.4869,-7.4869,-7.454,-7.3881,-7.5258,-7.5886,-7.5886,-7.5886,-7.5527,-5.1391,-5.3114,-5.467,-5.3922,-5.3443,-5.2576,-5.0391,-4.8716,-4.698,-4.4766,-4.5035,-4.5813,-4.619,-4.686,-4.8027,-5.0242,-5.0571,-5.1618,-5.476,-5.5748,-5.6466,-5.7334,-5.9039,-6.0416,-6.1104,-6.0924,-6.0552,-6.0043,-5.9453,-5.8689,-5.7693,-5.858,-5.8166,-5.6022,-5.7496,-5.8331,-5.8331,-5.8852,-5.9099,-5.9099,-5.9099,-5.9099,-5.9099,-5.858,-5.8331,-5.8276,-5.6679,-5.5964,-5.5964,-5.5964,-5.5327,-5.4623,-5.6736,-5.6905,-5.6165,-5.7913,-5.8982,-5.9712,-6.0848,-6.1759,-6.235,-6.2933,-6.3079,-6.3079,-6.3079,-6.2321,-6.1614,-6.2116,-6.1019,-5.9749,-5.9749,-5.929,-5.9307,-6.104,-6.272,-6.4247,-6.5412,-6.6221,-6.667,-6.667,-6.7029,-6.7508,-6.8196,-6.8465,-6.8764,-6.9243,-6.9303,-6.8974,-6.8076,-6.8764,-6.9393,-6.9662,-7.041,-7.1278,-7.2206,-7.1607,-7.1787,-7.3163,-7.3043,-7.3313,-7.418,-7.4629,-7.4869,-7.4869,-7.5347,-7.5467,-7.5258,-7.6125,-7.6305,-7.5886,-7.5437,-7.4839,-4.9613,-5.1439,-5.2875,-5.2037,-5.1468,-5.0661,-4.8925,-4.7309,-4.5903,-4.4885,-4.5364,-4.6082,-4.6591,-4.7249,-4.8297,-5.0182,-5.0541,-5.1678,-5.476,-5.5748,-5.6496,-5.7393,-5.8949,-6.0356,-6.1253,-6.0984,-6.0835,-6.1104,-6.0086,-5.9368,-5.9129,-5.9099,-5.8634,-5.7608,-5.858,-5.9099,-5.9099,-5.9099,-5.9099,-5.9099,-5.9099,-5.9099,-5.9099,-5.9099,-5.9099,-5.9045,-5.8026,-5.7608,0.0,-5.7608,-5.7018,-5.6394,-5.8331,-5.8495,-5.7778,-5.919,-6.0146,-6.0835,-6.1493,-6.2151,-6.275,-6.2989,-6.3079,-6.3079,-6.3079,-6.3079,-6.3079,-6.3079,-6.1851,-6.048,-6.048,-6.0055,-5.9948,-6.148,-6.2981,-6.4482,-6.604,-6.67,-6.6999,-6.6999,-6.6999,-6.7208,-6.7867,-6.7956,-6.8196,-6.8884,-6.9004,-6.8854,-6.8405,-6.8734,-6.9243,-6.9901,-7.032,-7.1188,-7.2774,-7.1667,-7.1427,-7.2684,-7.2624,-7.2924,-7.3851,-7.454,-7.4988,-7.5258,-7.5677,-7.5916,-7.5916,-7.6544,-7.6634,-7.6245,-7.5587,-7.4779,0.0,-4.9912,-5.093,-5.081,-4.9912,-4.8745,-4.7519,-4.5783,0.0,-4.5244,-4.5394,-4.5843,-4.7189,-4.7995,-4.8669,-4.9449,-5.0663,-5.2372,-5.488,-5.5867,-5.6825,-5.8171,-5.8321,-5.886,-6.0176,-6.0266,-6.0505,-6.1134,-6.0535,-5.9877,-5.9219,-5.9189,-5.9159,-5.9099,-5.9099,-5.9099,-5.9099,-5.9099,-5.9099,-5.9099,-5.9099,-5.9099,-5.9099,-5.9099,-5.9099,-5.9099,-5.9099,-5.9099,-5.9099,-5.9099,-5.9099,-5.9099,-5.9099,-5.9099,-5.9099,-5.9099,-5.9518,-6.0176,-6.0864,-6.1553,-6.2211,-6.2869,-6.3079,-6.3079,-6.3079,-6.3079,-6.3079,-6.3079,-6.191,-6.0661,-6.054,-5.9442,-5.9067,-6.1844,-6.2596,-6.3469,-6.6364,-6.6999,-6.6999,-6.6999,-6.6999,-6.7178,-6.7807,-6.7897,-6.8106,-6.8764,-6.8944,-6.8974,-6.8944,-6.8974,-6.9273,-6.9961,-7.0021,-7.0769,-7.2744,-7.1727,-7.1009,-7.1038,-7.1637,-7.2535,-7.3851,-7.454,-7.5258,-7.6036,-7.6036,-7.6036,-7.6036,-7.6544,-7.6754,-7.6754,-7.6066,-7.5078,-4.5155,0.0,-4.7967,-4.695,-4.686,-4.692,0.0,-4.6202,-4.5861,-4.6052,-4.6471,-4.7249,-4.8566,-4.9205,-5.0149,-5.1987,-5.3294,-5.4474,-5.578,-5.6944,-5.8351,-6.0206,-6.0416,-6.0924,-6.2241,-6.1912,-6.1702,-6.1852,-6.1253,-6.0565,-5.9877,-5.9847,-5.9608,-5.9129,-5.9099,-5.9099,-5.9099,-5.9099,-5.9099,-5.9099,-5.9099,-5.9099,-5.9099,-5.9099,-5.9099,-5.9099,-5.9099,-5.9099,-5.9099,-5.9099,-5.9099,-5.9099,-5.9099,-5.9099,-5.9099,-5.9099,-5.9518,-6.0176,-6.0864,-6.1553,-6.2211,-6.2869,-6.3079,-6.3079,-6.3079,-6.3079,-6.3079,-6.3079,-6.2817,-6.2175,-6.087,-6.1198,-6.1996,-6.2369,-6.3456,-6.4872,-6.6638,-6.6999,-6.6999,-6.6999,-6.6999,-6.7029,-6.7208,-6.7238,-6.7268,-6.7448,-6.8345,-6.8794,-6.8286,-6.8675,-6.9423,-7.056,-7.026,-7.0769,-7.2744,-7.2146,-7.1876,-7.2415,-7.2595,-7.3043,-7.3851,-7.454,-7.5647,-7.7322,-7.7352,-7.7352,-7.7352,-7.6544,-7.6125,-7.6096,-7.4899,-7.3941,-4.3738,-4.5334,-4.6681,-4.5963,-4.6052,-4.6279,-4.6279,-4.5801,-4.5574,-4.616,-4.6621,-4.7249,-4.8566,-4.973,-5.0984,-5.2462,-5.4298,-5.596,-5.7348,-5.865,-5.9787,-6.0565,-6.0924,-6.1403,-6.2121,-6.1852,-6.1762,-6.2061,-6.1762,-6.1134,-6.0146,-6.0086,-5.9787,-5.9129,-5.9099,-5.9099,-5.9099,-5.9099,-5.9099,-5.9099,-5.9099,-5.9099,-5.9099,-5.9099,-5.9099,-5.9099,-5.9099,-5.9099,-5.9099,-5.9099,-5.9099,-5.9099,-5.9099,-5.9099,-5.9099,-5.9099,-5.9338,-5.9727,-6.0416,-6.1283,-6.2211,-6.2869,-6.3079,-6.3079,-6.3079,-6.3079,-6.3079,-6.3079,-6.3079,-6.2875,-6.1969,-6.2409,-6.3144,-6.3146,-6.4158,-6.5293,-6.6311,-6.6789,-6.6999,-6.6999,-6.6999,-6.6999,-6.6999,-6.6999,-6.7089,-6.7388,-6.8076,-6.8615,-6.8854,-6.8675,-6.9123,-7.0739,-7.062,-7.1218,-7.3193,-7.3313,-7.3163,-7.2924,-7.3193,-7.3672,-7.43,-7.4988,-7.5976,-7.7322,-7.7652,-7.7652,-7.7352,-7.6365,-7.5916,-7.5886,-7.451,-7.3552,-4.3767,-4.5421,-4.6954,-4.6232,-4.6202,-4.6353,-4.6353,-4.5451,-4.4989,-4.6202,-4.6518,-4.713,-4.8745,-5.0439,-5.1914,-5.2684,-5.47,-5.6855,-5.883,-6.0086,-6.0625,-6.0146,-6.0595,-6.1044,-6.1253,-6.1253,-6.1523,-6.2181,-6.2151,-6.1553,-6.0296,-6.0057,-5.9638,-5.8979,-5.8949,-5.8949,-5.8949,-5.9069,-5.9099,-5.9099,-5.9099,-5.9099,-5.9099,-5.9099,-5.9099,-5.9099,-5.9099,-5.9099,-5.9099,-5.9099,-5.9099,-5.9099,-5.9099,-5.9099,-5.9099,-5.9099,-5.9099,-5.9219,-5.9967,-6.1044,-6.2181,-6.275,-6.2989,-6.3049,-6.2839,-6.2839,-6.2929,-6.2929,-6.2989,-6.3079,-6.3079,-6.3079,-6.3228,-6.3857,-6.4455,-6.5054,-6.5712,-6.6281,-6.6729,-6.6819,-6.6849,-6.6879,-6.6969,-6.6999,-6.7178,-6.7747,-6.7897,-6.8435,-6.9662,-6.8734,-6.8734,-7.0679,-7.0979,-7.1787,-7.3582,-7.454,-7.448,-7.3163,-7.3582,-7.424,-7.4988,-7.5886,-7.6544,-7.6963,-7.7442,-7.7322,-7.6694,-7.6066,-7.5736,-7.5707,-7.436,-7.3492,-4.5904,-4.847,-4.9947,-4.6027,-4.5873,-4.6634,-4.6634,-4.648,-4.6487,-4.7031,-4.7608,-4.8895,-5.1887,-5.3006,-5.3959,-5.535,-5.5897,-5.6855,-5.883,-5.9279,-5.9578,-6.0027,-6.0176,-6.0685,-6.1822,-6.1942,-6.2211,-6.2869,-6.2421,-6.1762,-6.1014,-5.9877,-5.8949,-5.8291,-5.8261,-5.8261,-5.8261,-5.883,-5.9099,-5.9099,-5.9099,-5.9099,-5.9099,-5.9099,-5.9099,-5.9099,-5.9099,-5.9099,-5.9099,-5.9099,-5.9099,-5.9099,-5.9099,-5.9099,-5.9099,-5.9099,-5.9099,-5.9279,-6.0535,-6.1463,-6.2121,-6.2211,-6.263,-6.2869,-6.1762,-6.1792,-6.2241,-6.2241,-6.266,-6.3079,-6.3079,-6.3079,-6.3228,-6.3857,-6.4066,-6.4336,-6.5024,-6.5263,-6.5503,-6.6041,-6.6161,-6.634,-6.6879,-6.6999,-6.7029,-6.7119,-6.7627,-6.8256,-6.9034,-6.8465,-6.8734,-7.0679,-7.1398,-7.2086,-7.2984,-7.4719,-7.5168,-7.3821,-7.3821,-7.445,-7.5707,-7.7412,-7.813,-7.7682,-7.7203,-7.6664,-7.6036,-7.5377,-7.5018,-7.4988,-7.3672,-7.3313,-4.6281,-4.8348,-5.0039,-4.8592,-5.034,-5.2679,-5.3798,-5.3502,-5.2891,-5.2668,-5.2317,-5.2611,-5.4399,-5.4957,-5.5849,-5.7948,-5.7992,-5.8201,-5.9458,-5.9967,-6.0176,-6.0086,-6.0416,-6.0745,-6.0984,-6.1014,-6.1283,-6.1972,-6.1732,-6.1283,-6.0595,-5.9638,-5.88,-5.8141,-5.7752,-5.7752,-5.8112,-5.8411,-5.874,-5.9099,-5.9099,-5.9099,-5.9099,-5.9099,-5.9099,-5.9099,-5.9099,-5.9099,-5.9099,-5.9099,-5.9099,-5.9099,-5.9099,-5.9099,-5.9099,-5.9099,-5.9099,-5.9249,-6.0206,-6.0745,-6.1074,-6.1433,-6.1762,-6.1912,-6.1313,-6.1583,-6.2091,-6.2091,-6.2301,-6.263,-6.2989,-6.3079,-6.3139,-6.3438,-6.3767,-6.4096,-6.4395,-6.5054,-6.5652,-6.5951,-6.6281,-6.664,-6.6939,-6.6999,-6.6999,-6.6999,-6.7238,-6.7687,-6.8345,-6.8166,-6.8585,-7.0231,-7.1637,-7.2714,-7.3373,-7.4599,-7.4929,-7.3941,-7.4569,-7.5258,-7.5886,-7.7412,-7.7951,-7.7293,-7.6664,-7.6006,-7.5347,-7.5018,-7.4869,-7.4839,-7.3522,-7.3283,-4.6907,-4.8643,-5.0627,-5.1963,-5.3946,-5.6207,-5.8624,-5.8157,-5.7216,-5.716,-5.651,-5.6279,-5.7262,-5.7334,-5.7902,-5.9572,-5.9308,-5.9099,-5.9757,-6.0326,-6.0446,-5.9907,-6.0326,-6.0505,-6.0116,-6.0086,-6.0386,-6.1074,-6.0954,-6.0655,-6.0116,-5.9308,-5.856,-5.7902,-5.7363,-5.7274,-5.7663,-5.7962,-5.8471,-5.9099,-5.9099,-5.9099,-5.9099,-5.9099,-5.9099,-5.9099,-5.9099,-5.9099,-5.9099,-5.9099,-5.9099,-5.9099,-5.9099,-5.9099,-5.9099,-5.9099,-5.9099,-5.9189,-5.9847,-6.0086,-6.0176,-6.0715,-6.0984,-6.1044,-6.0745,-6.1224,-6.1882,-6.1882,-6.1972,-6.2241,-6.2899,-6.3079,-6.3079,-6.3079,-6.3438,-6.3827,-6.3977,-6.4814,-6.5622,-6.5951,-6.64,-6.6819,-6.6969,-6.6999,-6.6999,-6.6999,-6.6999,-6.7238,-6.7897,-6.7956,-6.8495,-6.9842,-7.1727,-7.3253,-7.4061,-7.4151,-7.4091,-7.3911,-7.5168,-7.5766,-7.5437,-7.6963,-7.7442,-7.6634,-7.6155,-7.5557,-7.4869,-7.4719,-7.4659,-7.4599,-7.3283,-7.3103,-4.9012,-5.1259,-5.3705,-5.5417,-5.3233,-5.1625,-5.5162,-5.4951,-5.4633,-5.676,-5.7619,-5.8717,-6.1231,-6.1123,-6.0331,-5.9345,-5.862,-5.8411,-5.9069,-5.9219,-5.9249,-5.9189,-5.9219,-5.9458,-6.0027,-6.0086,-6.0386,-6.1074,-6.0505,-6.0146,-6.0086,-5.889,-5.7872,-5.7184,-5.7124,-5.6825,-5.6316,-5.7513,-5.8471,-5.9099,-5.9099,-5.9099,-5.9099,-5.9099,-5.9099,-5.9099,-5.9099,-5.9099,-5.9099,-5.9099,-5.9099,-5.9099,-5.9099,-5.9099,-5.9099,-5.9099,-5.9099,-5.9189,-5.9847,-6.0086,-6.0086,-6.0146,-6.0595,-6.0894,-5.9638,-6.0146,-6.1194,-6.1194,-6.1613,-6.2241,-6.2899,-6.3079,-6.3079,-6.3079,-6.3109,-6.3288,-6.3887,-6.4066,-6.4515,-6.5772,-6.6041,-6.6281,-6.6879,-6.6999,-6.6999,-6.6999,-6.6999,-6.7238,-6.7897,-6.7956,-6.8495,-6.9842,-7.1727,-7.3432,-7.4689,-7.3133,-7.2624,-7.3821,-7.5168,-7.5347,-7.4091,-7.6455,-7.7233,-7.6006,-7.5916,-7.5557,-7.4869,-7.427,-7.3971,-7.3941,-7.2595,-7.2654,-4.9087,-5.1997,-5.4955,-5.5205,-5.5359,-5.6483,-6.0419,-6.195,-6.2524,-6.2626,-6.2572,-6.2076,-6.0537,-6.134,-6.1594,-5.9435,-5.889,-5.883,-5.9069,-5.9099,-5.9099,-5.9099,-5.9811,-6.0061,-5.9537,-6.0175,-6.0457,-5.9902,-5.9608,-5.9488,-5.9488,-5.862,-5.7992,-5.7752,-5.7709,-5.7717,-5.787,-5.8727,-5.971,-6.0852,-5.9682,-5.9099,-5.9099,-5.9099,-5.889,-5.853,-5.8919,-5.886,-5.853,-5.8949,-5.9099,-5.9099,-5.9099,-5.9099,-5.9099,-5.9099,-5.9099,-5.9129,-5.9398,-5.9488,-5.9488,-5.9488,-5.9668,-5.9757,-5.9249,-5.9757,-6.0565,-6.0984,-6.1583,-6.2241,-6.2899,-6.3079,-6.3079,-6.3079,-6.3079,-6.3258,-6.3857,-6.4336,-6.4904,-6.5832,-6.634,-6.67,-6.6939,-6.6999,-6.6999,-6.6999,-6.6999,-6.7089,-6.7328,-6.8106,-6.8974,-6.9871,-7.1727,-7.3103,-7.3612,-7.3343,-7.3163,-7.3283,-7.454,-7.5228,-7.5138,-7.6455,-7.6784,-7.5916,-7.5497,-7.4929,-7.427,-7.4001,-7.3702,-7.3253,-7.2325,-7.2595,-5.0777,-5.3348,-5.6179,-5.6668,-5.7758,-5.979,-6.3847,-6.5592,-6.6497,-6.6885,-6.6668,-6.54,-6.1958,-6.2281,-6.2426,-6.0426,-5.9543,-5.9099,-5.9099,-5.9446,-5.9736,-5.9736,-6.0815,-6.1274,-6.0411,-6.0743,-6.0609,-5.9758,-5.9339,-5.9099,-5.9099,-5.868,-5.8534,-5.8715,-5.8693,-5.886,-5.9201,-5.9852,-6.0494,-6.1229,-6.0109,-5.9735,-6.0001,-6.0215,-5.9848,-5.8919,-5.9288,-5.8987,-5.839,-5.8661,-5.8919,-5.9099,-5.9099,-5.9099,-5.9099,-5.9099,-5.9099,-5.9099,-5.9099,-5.9099,-5.9099,-5.9099,-5.9392,-5.9736,-5.9736,-6.0631,-6.1714,-6.1959,-6.2693,-6.3409,-6.3637,-6.3394,-6.3139,-6.3318,-6.3378,-6.3588,-6.4455,-6.4994,-6.5533,-6.6191,-6.67,-6.6999,-6.6999,-6.6999,-6.6999,-6.6999,-6.6999,-6.6999,-6.6999,-6.8166,-6.9482,-7.0769,-7.1727,-7.2535,-7.3163,-7.3043,-7.3103,-7.3522,-7.418,-7.4779,-7.5258,-7.6096,-7.6245,-7.5587,-7.5108,-7.454,-7.3881,-7.3702,-7.3253,-7.2565,-7.1906,-7.2176,-5.4566,-5.5683,-5.7543,-6.052,-6.0182,-6.0112,-6.3958,-6.3947,-6.4277,-6.8375,-6.914,-6.854,-6.6562,-6.4461,-6.2871,-6.2291,-6.0479,-5.9099,-5.9099,-6.0202,-6.0989,-6.0989,-6.2193,-6.3004,-6.3004,-6.1796,-6.104,-6.0989,-5.9864,-5.9153,-5.9153,-5.9153,-5.9433,-6.014,-6.0129,-6.0035,-5.996,-6.0587,-6.0587,-5.9823,-6.0416,-6.1119,-6.1901,-6.2652,-6.2125,-6.0674,-6.0313,-5.9656,-5.8838,-5.8308,-5.8501,-5.9099,-5.9099,-5.9153,-5.9153,-5.9099,-5.9099,-5.9099,-5.9099,-5.9099,-5.9099,-5.9099,-5.9992,-6.0989,-6.102,-6.2921,-6.4956,-6.4203,-6.5034,-6.5975,-6.5227,-6.4071,-6.3286,-6.3857,-6.4006,-6.4366,-6.5712,-6.6011,-6.6191,-6.6879,-6.6999,-6.706,-6.706,-6.703,-6.706,-6.706,-6.706,-6.6999,-6.7029,-6.8196,-7.0021,-7.2624,-7.1727,-7.1727,-7.3702,-7.2086,-7.2056,-7.4689,-7.427,-7.3911,-7.3911,-7.5198,-7.5587,-7.4899,-7.4869,-7.454,-7.3881,-7.3223,-7.2565,-7.1846,-7.1218,-7.1278,-5.1725,-5.5615,-5.9674,-5.8457,-6.1738,-6.5444,-6.6042,-6.5942,-6.6229,-6.8041,-6.9207,-6.9109,-6.6626,-6.6469,-6.5692,-6.2714,-6.1659,-6.0783,-5.9321,-5.9446,-6.0023,-6.0918,-6.2193,-6.3004,-6.3004,-6.3449,-6.337,-6.2487,-6.2076,-6.1828,-6.1828,-6.1828,-6.1932,-6.2104,-6.2535,-6.2458,-6.186,-6.2425,-6.2616,-6.2416,-6.2574,-6.2114,-6.1087,-6.1278,-6.0895,-6.0128,-6.0979,-6.0662,-5.9507,-5.9413,-5.9798,-6.0432,-6.0432,-6.102,-6.1728,-6.0764,-6.0432,-6.0276,-5.9392,-5.9683,-6.0432,-6.0432,-6.1325,-6.2485,-6.301,-6.3751,-6.4557,-6.5326,-6.587,-6.6377,-6.7091,-6.7038,-6.6449,-6.5044,-6.4725,-6.4964,-6.5832,-6.6011,-6.6191,-6.6879,-6.7819,-6.8531,-6.8531,-6.9432,-6.9745,-6.8707,-6.893,-6.9214,-6.9133,-7.0231,-7.1338,-7.2116,-7.2684,-7.3073,-7.3193,-7.3492,-7.3821,-7.418,-7.4899,-7.5318,-7.5318,-7.5707,-7.5587,-7.4899,-7.4869,-7.433,-7.3223,-7.3013,-7.2325,-7.1188,-7.1457,-7.1966,-5.6122,-5.981,-6.326,-6.2347,-6.458,-6.7151,-6.7624,-6.8166,-6.8725,-6.9282,-6.9838,-6.9828,-6.8478,-6.8002,-6.6948,-6.4523,-6.3052,-6.1649,-6.0061,-6.0307,-6.0949,-6.1696,-6.3402,-6.4538,-6.4538,-6.4733,-6.4597,-6.3779,-6.3292,-6.3004,-6.3004,-6.3004,-6.3244,-6.3732,-6.408,-6.4002,-6.3472,-6.3773,-6.3632,-6.3057,-6.3057,-6.2464,-6.1437,-6.1993,-6.1731,-6.0848,-6.1256,-6.0954,-6.0224,-6.0279,-6.0899,-6.1796,-6.1796,-6.2291,-6.2876,-6.2094,-6.1796,-6.1696,-6.0897,-6.1122,-6.1796,-6.1796,-6.2682,-6.3829,-6.4297,-6.5227,-6.619,-6.67,-6.7567,-6.834,-6.8903,-6.927,-6.909,-6.7486,-6.6705,-6.6452,-6.712,-6.6794,-6.6672,-6.7698,-6.8805,-6.9743,-7.0004,-7.106,-7.1433,-7.0231,-7.0166,-7.0487,-7.1192,-7.1221,-7.1517,-7.2565,-7.2684,-7.2864,-7.3283,-7.3313,-7.3462,-7.3881,-7.442,-7.4958,-7.5467,-7.5497,-7.5288,-7.4899,-7.4869,-7.436,-7.3313,-7.3313,-7.2744,-7.1697,-7.2116,-7.2505,-6.3971,-6.5831,-6.7286,-6.9214,-6.776,-6.644,-6.8605,-7.0195,-7.121,-7.121,-7.0737,-7.05,-7.1176,-6.9207,-6.7394,-6.7136,-6.4589,-6.2248,-6.1164,-6.2045,-6.2828,-6.3004,-6.5036,-6.6525,-6.677,-6.5734,-6.5081,-6.5081,-6.3998,-6.3339,-6.3339,-6.3339,-6.3905,-6.5036,-6.5081,-6.4937,-6.4715,-6.4647,-6.3903,-6.2482,-6.2415,-6.2381,-6.2448,-6.3869,-6.3835,-6.2646,-6.1301,-6.0925,-6.1238,-6.111,-6.1912,-6.3164,-6.3164,-6.3212,-6.3339,-6.3244,-6.3164,-6.3148,-6.3052,-6.31,-6.3164,-6.3164,-6.4045,-6.5081,-6.5246,-6.7068,-6.8977,-6.847,-6.9789,-7.1277,-7.0741,-7.1095,-7.1455,-7.0821,-6.9556,-6.8655,-6.9277,-6.8384,-6.7819,-6.9143,-7.0072,-7.0777,-7.1516,-7.2228,-7.2539,-7.1894,-7.1125,-7.127,-7.3105,-7.1589,-7.1233,-7.3462,-7.2146,-7.1787,-7.3552,-7.2086,-7.1846,-7.3612,-7.3283,-7.3552,-7.4749,-7.4839,-7.4869,-7.4869,-7.4869,-7.454,-7.3881,-7.3881,-7.3552,-7.2924,-7.2984,-7.3013,-5.866,-6.2685,-6.6643,-6.5967,-6.6609,-6.7726,-6.8842,-6.9789,-7.0432,-7.0432,-7.077,-7.1109,-7.1278,-7.0782,-6.9657,-6.7473,-6.6504,-6.4868,-6.145,-6.1243,-6.1846,-6.2876,-6.3482,-6.4597,-6.661,-6.6567,-6.6363,-6.6363,-6.6148,-6.5985,-6.5985,-6.5985,-6.6105,-6.6363,-6.6363,-6.6087,-6.5459,-6.4884,-6.414,-6.326,-6.2685,-6.2381,-6.2415,-6.3328,-6.4208,-6.4884,-6.2885,-6.2782,-6.3948,-6.279,-6.3183,-6.4505,-6.4505,-6.5081,-6.5855,-6.4856,-6.4505,-6.4368,-6.3387,-6.3638,-6.4505,-6.4505,-6.5349,-6.6599,-6.7853,-6.8634,-6.9417,-7.1007,-7.1785,-7.2416,-7.342,-7.3763,-7.3696,-7.3087,-7.181,-7.0735,-7.0862,-7.0703,-7.0536,-7.0838,-7.2004,-7.292,-7.3102,-7.4155,-7.4972,-7.48,-7.4162,-7.3596,-7.332,-7.3293,-7.3031,-7.2367,-7.2415,-7.2445,-7.2325,-7.2415,-7.2445,-7.2325,-7.3163,-7.3821,-7.4091,-7.4599,-7.4869,-7.4869,-7.4869,-7.454,-7.3881,-7.3881,-7.3552,-7.2924,-7.3432,-7.3672,-6.0283,-6.3869,-6.6812,-6.6779,-6.7624,-6.847,-6.8504,-6.9383,-7.0195,-7.0195,-7.0804,-7.1312,-7.1312,-7.1312,-7.0681,-6.8851,-6.777,-6.6242,-6.3725,-6.3116,-6.3132,-6.3826,-6.446,-6.5337,-6.6686,-6.6812,-6.6812,-6.6812,-6.6812,-6.6812,-6.6812,-6.6812,-6.6812,-6.6812,-6.6812,-6.644,-6.5696,-6.4952,-6.4241,-6.3497,-6.2753,-6.2584,-6.2922,-6.2956,-6.3599,-6.458,-6.3429,-6.3814,-6.5244,-6.4843,-6.5144,-6.5845,-6.6222,-6.6537,-6.6728,-6.6029,-6.5811,-6.569,-6.5036,-6.5215,-6.5811,-6.5811,-6.6278,-6.7015,-6.8166,-6.8808,-6.9485,-7.1345,-7.2394,-7.3172,-7.4322,-7.4864,-7.4868,-7.3855,-7.3018,-7.2249,-7.1551,-7.1388,-7.1605,-7.2335,-7.3364,-7.4349,-7.5072,-7.6084,-7.692,-7.726,-7.635,-7.5419,-7.4873,-7.4217,-7.3442,-7.2493,-7.2116,-7.1936,-7.1876,-7.2206,-7.2265,-7.1906,-7.3163,-7.3881,-7.3881,-7.454,-7.4869,-7.4869,-7.4869,-7.4719,-7.436,-7.436,-7.418,-7.3851,-7.421,-7.436,-6.2415,-6.5155,-6.6846,-6.8639,-6.9011,-6.8707,-6.8064,-6.8876,-6.9857,-7.0128,-7.0804,-7.1312,-7.1312,-7.1312,-7.1075,-7.0297,-6.8751,-6.7288,-6.6298,-6.5672,-6.5243,-6.5099,-6.6022,-6.6702,-6.677,-6.6812,-6.6812,-6.6812,-6.6812,-6.6812,-6.6812,-6.6812,-6.6812,-6.6812,-6.6812,-6.644,-6.5696,-6.4952,-6.4241,-6.3497,-6.2753,-6.2719,-6.3294,-6.2685,-6.2854,-6.37,-6.3565,-6.4343,-6.5764,-6.6508,-6.6812,-6.688,-6.7624,-6.7455,-6.6812,-6.6812,-6.6812,-6.6812,-6.6812,-6.6812,-6.6812,-6.6812,-6.6914,-6.7151,-6.7895,-6.8741,-6.9789,-7.1278,-7.2665,-7.3849,-7.4593,-7.5236,-7.534,-7.3904,-7.3803,-7.3566,-7.2122,-7.1982,-7.2461,-7.3719,-7.4602,-7.5521,-7.6834,-7.7705,-7.8382,-7.9025,-7.8129,-7.715,-7.6426,-7.4813,-7.3416,-7.2643,-7.1808,-7.1552,-7.2094,-7.2474,-7.2728,-7.2728,-7.4001,-7.4626,-7.4322,-7.4955,-7.518,-7.4869,-7.4869,-7.4869,-7.4869,-7.4988,-7.5048,-7.5048,-7.5048,-7.5048,-5.663,-6.0892,-6.5561,-6.8402,-6.8571,-6.803,-6.7929,-6.8064,-6.8571,-6.9891,-7.0804,-7.1312,-7.1312,-7.1312,-7.1075,-7.0297,-6.9961,-6.911,-6.7242,-6.6859,-6.6562,-6.5936,-6.6006,-6.6302,-6.672,-6.6812,-6.6812,-6.6812,-6.6812,-6.6812,-6.6812,-6.6812,-6.6812,-6.6812,-6.6812,-6.644,-6.5696,-6.4952,-6.4241,-6.3497,-6.2753,-6.2448,-6.2516,-6.2415,-6.3159,-6.441,-6.3802,-6.4343,-6.5764,-6.6508,-6.6812,-6.688,-6.7624,-6.7455,-6.6812,-6.6812,-6.6812,-6.6812,-6.6812,-6.6812,-6.6812,-6.6812,-6.7252,-6.7895,-6.8707,-6.9925,-7.1312,-7.28,-7.3815,-7.4627,-7.5371,-7.5642,-7.534,-7.3922,-7.4505,-7.5064,-7.3617,-7.4256,-7.5161,-7.5388,-7.6077,-7.6868,-7.7739,-7.845,-7.8991,-7.9092,-7.9483,-7.8788,-7.611,-7.547,-7.4262,-7.1453,-7.2263,-7.3015,-7.3108,-7.4951,-7.6045,-7.6045,-7.7347,-7.7494,-7.6042,-7.6626,-7.6335,-7.4937,-7.4869,-7.4869,-7.4869,-7.5467,-7.5766,-7.5766,-7.5766,-7.5766,-5.7611,-6.2279,-6.6474,-6.9079,-6.9147,-6.8436,-6.7996,-6.7895,-6.8233,-6.935,-7.0161,-7.0804,-7.1244,-7.1312,-7.121,-7.0872,-7.0466,-6.9849,-6.8987,-6.8461,-6.8093,-6.7792,-6.7357,-6.7164,-6.7413,-6.7049,-6.6812,-6.6812,-6.6812,-6.6812,-6.6812,-6.6812,-6.6812,-6.6812,-6.6812,-6.644,-6.5696,-6.4952,-6.4038,-6.2888,-6.255,-6.2381,-6.2381,-6.2381,-6.299,-6.4005,-6.4106,-6.4715,-6.5764,-6.6948,-6.7184,-6.688,-6.7624,-6.7455,-6.6812,-6.6812,-6.6812,-6.6812,-6.6812,-6.6812,-6.688,-6.7286,-6.7658,-6.8132,-6.935,-7.0466,-7.1616,-7.3071,-7.4018,-7.4796,-7.5506,-7.5709,-7.534,-7.3922,-7.4687,-7.5205,-7.3342,-7.4052,-7.5202,-7.5608,-7.669,-7.7739,-7.8483,-7.9228,-7.9735,-7.9735,-8.0006,-7.9392,-7.7193,-7.6916,-7.6038,-7.3778,-7.4545,-7.5185,-7.5185,-7.6824,-7.7719,-7.7361,-7.8615,-7.8828,-7.7773,-7.743,-7.6996,-7.6268,-7.5354,-7.4869,-7.4869,-7.5557,-7.5916,-7.5916,-7.6827,-7.724,-5.7476,-6.1467,-6.4512,-6.7929,-6.8504,-6.8233,-6.8199,-6.8199,-6.8436,-6.9214,-6.9823,-7.0432,-7.1176,-7.1312,-7.1312,-7.1312,-7.0838,-7.0466,-7.0466,-7.0026,-6.9586,-6.9417,-6.8673,-6.8132,-6.7929,-6.7252,-6.6812,-6.6812,-6.6812,-6.6812,-6.6812,-6.6812,-6.6812,-6.6812,-6.6812,-6.644,-6.5696,-6.4783,-6.3666,-6.2381,-6.2381,-6.2381,-6.2381,-6.2584,-6.299,-6.3565,-6.4275,-6.5019,-6.5797,-6.7286,-6.759,-6.7151,-6.7895,-6.776,-6.7083,-6.7083,-6.6981,-6.6812,-6.6812,-6.6812,-6.6948,-6.7658,-6.803,-6.8504,-7.0026,-7.1142,-7.2124,-7.3409,-7.4322,-7.4999,-7.5574,-7.5709,-7.5436,-7.4356,-7.4966,-7.5268,-7.3575,-7.3994,-7.4897,-7.5811,-7.7096,-7.8213,-7.8991,-7.9701,-8.0209,-8.0209,-8.0209,-7.9632,-7.8131,-7.7882,-7.7369,-7.6009,-7.6721,-7.7338,-7.7532,-7.9069,-7.9787,-7.9267,-8.038,-8.0599,-7.9661,-7.8933,-7.8345,-7.7901,-7.6796,-7.5759,-7.4869,-7.5736,-7.6334,-7.6826,-7.799,-7.8788,-5.2638,-5.4566,-5.6799,-6.326,-6.5392,-6.6406,-6.8538,-6.9045,-6.9248,-6.9992,-7.0161,-7.0432,-7.1176,-7.1312,-7.1312,-7.1312,-7.1278,-7.1244,-7.1244,-7.121,-7.0939,-7.0229,-6.9485,-6.8741,-6.7963,-6.7252,-6.6812,-6.6812,-6.6812,-6.6812,-6.6812,-6.6812,-6.6812,-6.6812,-6.6812,-6.644,-6.5696,-6.4275,-6.3193,-6.2381,-6.2381,-6.2381,-6.2415,-6.3125,-6.3463,-6.3565,-6.4275,-6.5019,-6.5797,-6.7286,-6.7895,-6.7929,-6.8707,-6.8538,-6.7827,-6.7827,-6.7421,-6.6812,-6.6812,-6.6812,-6.6948,-6.7658,-6.8402,-6.9316,-7.0804,-7.2259,-7.3544,-7.4322,-7.5067,-7.5642,-7.5676,-7.5709,-7.5709,-7.558,-7.5662,-7.5676,-7.5546,-7.5053,-7.5067,-7.6555,-7.7468,-7.8213,-7.8991,-7.9701,-8.0209,-8.0209,-8.0209,-7.9632,-7.8131,-7.7882,-7.7565,-7.674,-7.8014,-7.9177,-7.9869,-8.1993,-8.3245,-8.3211,-8.3954,-8.3641,-8.2107,-8.1935,-8.1239,-7.971,-7.962,-7.8027,-7.4869,-7.6155,-7.7599,-7.9238,-7.9238,-8.0128,-5.1792,-5.3991,-5.6359,-6.0655,-6.3362,-6.5324,-6.6609,-6.803,-6.9316,-7.0026,-6.9823,-6.9722,-7.0466,-7.0973,-7.1312,-7.1312,-7.1312,-7.1312,-7.1312,-7.1312,-7.121,-7.0939,-6.9857,-6.8977,-6.8707,-6.7557,-6.6812,-6.6812,-6.6812,-6.6812,-6.6812,-6.6812,-6.6812,-6.6812,-6.6812,-6.644,-6.5696,-6.4715,-6.3835,-6.3125,-6.3125,-6.3125,-6.3125,-6.3396,-6.4038,-6.4918,-6.5189,-6.5459,-6.5797,-6.7286,-6.7895,-6.7996,-6.8808,-6.8605,-6.7895,-6.7895,-6.7455,-6.6812,-6.6812,-6.6812,-6.6948,-6.7658,-6.8741,-6.9992,-7.1007,-7.2665,-7.4255,-7.4525,-7.5134,-7.5709,-7.5709,-7.5709,-7.5845,-7.6352,-7.5709,-7.527,-7.6251,-7.5845,-7.5473,-7.6014,-7.6758,-7.7671,-7.8889,-7.9329,-7.9667,-8.0141,-8.0209,-8.0023,-7.9443,-7.9794,-7.9953,-7.9674,-8.1003,-8.1973,-8.2241,-8.3496,-8.4234,-8.4234,-8.4471,-8.4339,-8.3784,-8.2774,-8.1911,-8.1356,-8.0767,-7.9353,-7.7074,-7.9099,-8.0082,-8.012,-8.176,-8.2612,-4.956,-5.1555,-5.3957,-5.7712,-5.9945,-6.2144,-6.5628,-6.7218,-6.847,-7.0195,-7.0195,-6.9992,-7.0466,-7.0973,-7.1244,-7.0973,-7.0939,-7.1041,-7.1278,-7.1312,-7.1312,-7.1312,-6.9992,-6.9113,-6.9113,-6.7726,-6.6812,-6.6812,-6.6812,-6.6812,-6.6812,-6.6812,-6.6812,-6.6812,-6.6812,-6.644,-6.5696,-6.5189,-6.4613,-6.3869,-6.3869,-6.3869,-6.3903,-6.414,-6.4783,-6.5696,-6.5967,-6.6068,-6.617,-6.7387,-6.8064,-6.8368,-6.9147,-6.8977,-6.8301,-6.8301,-6.7658,-6.6812,-6.6812,-6.6812,-6.6981,-6.7996,-6.9147,-7.0432,-7.165,-7.324,-7.4661,-7.4897,-7.5337,-7.5709,-7.5709,-7.5709,-7.5845,-7.6352,-7.5709,-7.527,-7.6284,-7.5879,-7.5405,-7.5642,-7.6352,-7.7299,-7.8517,-7.8957,-7.9363,-8.0073,-8.0209,-8.0276,-8.0547,-8.0987,-8.146,-8.1968,-8.2915,-8.3592,-8.3862,-8.4099,-8.4234,-8.4234,-8.4031,-8.3862,-8.3862,-8.3084,-8.2633,-8.2633,-8.2297,-8.1456,-7.9953,-8.1536,-8.2206,-8.2173,-8.3621,-8.3813,0.0,0.0,0.0,-5.4194,-5.5006,-5.6799,-6.5561,-6.6474,-6.6576,-7.0398,-7.1142,-7.1142,-7.1278,-7.1278,-7.1007,-7.0297,-7.0195,-7.0466,-7.121,-7.1312,-7.1312,-7.1312,-6.9992,-6.9113,-6.9113,-6.7726,-6.6812,-6.6812,-6.6812,-6.6812,-6.6812,-6.6812,-6.6812,-6.6812,-6.6812,-6.6474,-6.573,-6.573,-6.5358,-6.4647,-6.4647,-6.4647,-6.4647,-6.5358,-6.5696,-6.5764,-6.6508,-6.6812,-6.6914,-6.7624,-6.8402,-6.9214,-6.9925,-6.9755,-6.9147,-6.9113,-6.8132,-6.6846,-6.6812,-6.6846,-6.7117,-6.8605,-6.962,-7.0703,-7.2834,-7.4018,-7.4796,-7.5506,-7.5709,-7.5709,-7.5743,-7.5709,-7.5709,-7.5743,-7.5743,-7.5709,-7.5743,-7.5168,-7.4864,-7.5574,-7.6318,-7.7096,-7.7874,-7.8585,-7.9329,-8.0073,-8.0209,-8.0479,-8.119,-8.1325,-8.19,-8.3355,-8.3524,-8.3828,-8.4573,-8.393,-8.349,-8.349,-8.2813,-8.2408,-8.2408,-8.3084,-8.3456,-8.3456,-8.42,-8.4119,-8.3219,-8.3134,-8.3875,-8.542,-8.4661,-8.3586,-4.665,0.0,0.0,0.0,0.0,0.0,-5.8152,-6.0013,-6.2212,-6.7049,-6.7218,-6.7286,-6.9992,-7.006,-6.9823,-7.0128,-7.0635,-7.1075,-7.1278,-7.1312,-7.1312,-7.1312,-6.9992,-6.9113,-6.9113,-6.7726,-6.6812,-6.6812,-6.6812,-6.6812,-6.6812,-6.6812,-6.6812,-6.6812,-6.6812,-6.6711,-6.6508,-6.6508,-6.6136,-6.5392,-6.5392,-6.5392,-6.5392,-6.5595,-6.6,-6.6508,-6.6711,-6.7117,-6.7658,-6.8436,-6.9214,-6.9958,-7.0703,-7.0534,-6.9823,-6.9316,-6.847,-6.7523,-6.7015,-6.7523,-6.8538,-6.8977,-7.0669,-7.2699,-7.3308,-7.439,-7.5439,-7.5642,-7.5709,-7.5845,-7.642,-7.6149,-7.598,-7.7096,-7.6487,-7.5845,-7.6454,-7.5946,-7.5473,-7.5676,-7.5879,-7.6454,-7.7773,-7.8145,-7.872,-8.0006,-8.0648,-8.1054,-8.1257,-8.2205,-8.305,-8.3456,-8.3998,-8.4403,-8.4606,-8.393,-8.349,-8.349,-8.2813,-8.2408,-8.2408,-8.2611,-8.2712,-8.2712,-8.3422,-8.3684,-8.3389,-8.4478,-8.4902,-8.4603,-8.3999,-8.3235,-4.7462,-4.8037,-4.8917,-4.9221,0.0,0.0,-5.7273,-5.8761,-6.0858,-6.7354,-6.7996,-6.8064,-7.0263,-7.0297,-7.0161,-7.0601,-7.077,-7.0973,-7.1278,-7.1312,-7.1312,-7.1312,-6.9992,-6.9113,-6.9113,-6.7726,-6.6812,-6.6812,-6.6812,-6.6812,-6.6812,-6.6812,-6.6812,-6.6812,-6.6812,-6.6812,-6.6812,-6.6812,-6.6745,-6.6609,-6.6305,-6.6305,-6.6609,-6.6305,-6.6406,-6.6812,-6.6812,-6.7421,-6.8402,-6.8538,-6.9214,-7.0263,-7.1007,-7.0838,-7.0128,-6.9722,-6.8842,-6.7827,-6.7421,-6.7861,-6.8707,-6.935,-7.1142,-7.3138,-7.3781,-7.4762,-7.5709,-7.5709,-7.5709,-7.5811,-7.6284,-7.6048,-7.5912,-7.6826,-7.6352,-7.5811,-7.6284,-7.6014,-7.5709,-7.5709,-7.5709,-7.6183,-7.7705,-7.7976,-7.8585,-8.0378,-8.1021,-8.1494,-8.2137,-8.2949,-8.3625,-8.393,-8.437,-8.4505,-8.4167,-8.349,-8.2915,-8.2577,-8.19,-8.1494,-8.1494,-8.1765,-8.1934,-8.1934,-8.2678,-8.305,-8.305,-8.4573,-8.485,-8.3932,-8.3638,-8.3084,-4.8409,-4.912,-5.0236,-5.0811,-4.9528,0.0,-5.8863,-5.9336,-6.0216,-6.7895,-6.9451,-6.9586,-6.9992,-7.0128,-7.0161,-7.0094,-6.9925,-7.0128,-7.1075,-7.1176,-7.1176,-7.1176,-6.9958,-6.9113,-6.9113,-6.7726,-6.6812,-6.6812,-6.6812,-6.6812,-6.6812,-6.6812,-6.6812,-6.6812,-6.6812,-6.6846,-6.6948,-6.6948,-6.732,-6.803,-6.7286,-6.7286,-6.7861,-6.7151,-6.6812,-6.6812,-6.6914,-6.776,-6.9045,-6.8402,-6.9011,-7.0364,-7.0973,-7.0838,-7.0297,-7.0229,-6.9282,-6.803,-6.803,-6.8098,-6.8402,-6.9925,-7.1447,-7.2902,-7.4322,-7.5202,-7.5709,-7.5709,-7.5642,-7.5608,-7.5777,-7.5709,-7.5608,-7.5777,-7.5777,-7.5709,-7.5709,-7.5777,-7.5845,-7.5845,-7.5743,-7.6183,-7.7705,-7.8044,-7.8822,-8.0953,-8.1426,-8.2002,-8.3321,-8.3558,-8.3862,-8.4539,-8.4539,-8.4234,-8.3558,-8.2746,-8.2002,-8.1325,-8.0615,-8.0209,-8.0209,-8.0818,-8.1156,-8.1156,-8.1832,-8.2205,-8.2272,-8.3795,-8.4099,-8.3389,-8.3456,-8.3084,-5.0371,-4.9864,-4.9965,-4.956,-4.956,0.0,-5.0574,-5.1319,-5.2976,-5.7036,-5.7848,-5.8761,-6.1738,-6.2821,-6.3057,-6.2381,-6.5222,-6.8166,-7.0128,-7.0398,-7.0398,-7.0398,-6.962,-6.9113,-6.9113,-6.7726,-6.6812,-6.6812,-6.6812,-6.6812,-6.6812,-6.6812,-6.6812,-6.6812,-6.6812,-6.7117,-6.7692,-6.7692,-6.8098,-6.8876,-6.8064,-6.776,-6.7861,-6.7151,-6.6812,-6.6846,-6.7421,-6.8233,-6.9147,-6.9553,-7.0263,-7.1041,-7.0601,-7.0703,-7.1007,-7.0398,-6.962,-6.8876,-6.8876,-6.9248,-6.9992,-7.1481,-7.2969,-7.4356,-7.5236,-7.5574,-7.5709,-7.5709,-7.527,-7.51,-7.6352,-7.5743,-7.5134,-7.6386,-7.6183,-7.5709,-7.5709,-7.6217,-7.6657,-7.6657,-7.6149,-7.6183,-7.7705,-7.8483,-7.9431,-8.1054,-8.2306,-8.3152,-8.3456,-8.4031,-8.4471,-8.4606,-8.4065,-8.3659,-8.3524,-8.2272,-8.1426,-8.1291,-8.0615,-8.0209,-8.0209,-8.0344,-8.0412,-8.0412,-8.0547,-8.0919,-8.1494,-8.2983,-8.3355,-8.2644,-8.3219,-8.3084,-5.1928,-5.1488,-5.1725,-5.1352,-5.0676,0.0,0.0,-5.2063,-5.2942,-5.707,-5.734,-5.7476,-5.9674,-6.0148,-6.0148,-6.0114,-6.326,-6.5595,-6.5222,-6.8402,-7.0737,-7.0737,-7.0094,-6.9485,-6.9147,-6.803,-6.7218,-6.6846,-6.6812,-6.6812,-6.6812,-6.6812,-6.6812,-6.6812,-6.644,-6.6779,-6.7895,-6.7557,-6.7963,-6.9079,-6.8267,-6.7895,-6.7861,-6.7151,-6.6812,-6.6846,-6.759,-6.8368,-6.9147,-6.9485,-7.0297,-7.1278,-7.0906,-7.0973,-7.1278,-7.0872,-7.006,-6.9147,-6.9519,-6.9654,-6.9958,-7.1785,-7.3138,-7.4255,-7.5371,-7.5709,-7.5608,-7.527,-7.5168,-7.5236,-7.5642,-7.5473,-7.5337,-7.6115,-7.598,-7.5709,-7.5709,-7.6318,-7.6893,-7.6893,-7.686,-7.7198,-7.8348,-7.8855,-7.9735,-8.1562,-8.278,-8.3625,-8.3998,-8.4403,-8.4471,-8.4099,-8.3727,-8.3186,-8.2475,-8.1697,-8.1122,-8.075,-8.0412,-8.0209,-8.0209,-8.0209,-8.0209,-8.0209,-8.0547,-8.0919,-8.1291,-8.278,-8.3118,-8.2441,-8.3152,-8.3287,-5.3687,-5.3551,-5.4059,-5.3788,-5.2536,-5.2063,0.0,0.0,0.0,-5.7983,-5.7848,-5.7273,-5.7848,-5.7476,-5.7273,-5.7881,-6.0723,-6.1975,-5.9404,-6.4884,-6.9147,-6.9147,-6.9755,-6.9722,-6.8571,-6.7455,-6.6948,-6.7218,-6.6305,-6.6136,-6.6981,-6.688,-6.6812,-6.6812,-6.6203,-6.6609,-6.8132,-6.7387,-6.7793,-6.9316,-6.8335,-6.7895,-6.7861,-6.7151,-6.688,-6.7049,-6.7793,-6.8571,-6.9316,-6.9485,-7.0229,-7.1312,-7.1142,-7.1176,-7.1312,-7.1312,-7.0466,-6.9417,-7.0161,-6.9925,-6.9654,-7.1718,-7.3003,-7.395,-7.5303,-7.5709,-7.554,-7.483,-7.5033,-7.5337,-7.4762,-7.5033,-7.5506,-7.5676,-7.5709,-7.5709,-7.5709,-7.6454,-7.7096,-7.7096,-7.7705,-7.845,-7.9194,-7.9431,-8.0242,-8.2306,-8.3253,-8.393,-8.4539,-8.464,-8.4336,-8.3592,-8.3355,-8.2746,-8.1393,-8.1156,-8.0818,-8.0242,-8.0209,-8.0209,-8.0209,-8.0209,-8.0209,-8.0209,-8.0919,-8.1359,-8.1494,-8.2847,-8.3186,-8.2644,-8.3389,-8.3693,-5.6494,-5.5852,-5.6122,-5.4803,-5.5243,-5.4972,-5.0845,0.0,-5.186,-4.9864,0.0,-5.0168,-5.027,0.0,0.0,-5.027,-5.389,-5.6359,-5.5344,-5.8761,-6.1366,-6.1366,-6.6576,-6.9113,-6.6339,-6.4208,-6.4647,-6.8538,-6.4546,-6.3632,-6.7557,-6.7151,-6.6812,-6.6812,-6.6745,-6.7421,-6.8944,-6.8166,-6.8538,-7.006,-6.8605,-6.7895,-6.7861,-6.7151,-6.7151,-6.7827,-6.8605,-6.9383,-7.0128,-7.077,-7.1176,-7.1244,-7.0567,-7.0737,-7.1312,-7.1312,-7.077,-7.0161,-7.0939,-7.0703,-7.0331,-7.1887,-7.3341,-7.4627,-7.5439,-7.5709,-7.554,-7.483,-7.4661,-7.4728,-7.4627,-7.4661,-7.4897,-7.554,-7.5709,-7.5709,-7.5709,-7.6826,-7.7874,-7.7874,-7.8483,-7.9228,-7.9938,-8.0615,-8.1562,-8.3152,-8.3998,-8.4539,-8.4606,-8.464,-8.4336,-8.3592,-8.2915,-8.2205,-8.1359,-8.0682,-8.0276,-8.0209,-8.0209,-8.0209,-8.0209,-8.0209,-8.0209,-8.0209,-8.0919,-8.1596,-8.2272,-8.3084,-8.3456,-8.3389,-8.4133,-8.4505,-5.7205,-5.7848,-5.8727,-5.5953,-5.6021,-5.5649,-5.1285,-5.0676,-5.0676,-4.9424,0.0,0.0,0.0,0.0,0.0,0.0,-5.1386,-5.3044,-5.1014,0.0,-5.9133,-6.0013,-6.2245,-6.4072,-6.4952,-6.3429,-6.4241,-6.8774,-6.4275,-6.3226,-6.7658,-6.7218,-6.6812,-6.6812,-6.6812,-6.7557,-6.9079,-6.8774,-6.891,-6.9553,-6.891,-6.8132,-6.7252,-6.6948,-6.7218,-6.7929,-6.8741,-6.9519,-7.0263,-7.1007,-7.1548,-7.1853,-7.1142,-7.1041,-7.1312,-7.1312,-7.0838,-7.0297,-7.1041,-7.0804,-7.05,-7.2394,-7.3747,-7.4661,-7.4965,-7.5067,-7.4931,-7.4153,-7.4289,-7.4627,-7.4627,-7.4931,-7.5337,-7.5642,-7.5709,-7.5709,-7.5709,-7.6589,-7.7468,-7.7908,-7.8585,-7.9634,-8.1224,-8.1359,-8.1799,-8.3287,-8.4133,-8.464,-8.464,-8.4234,-8.3693,-8.2949,-8.2205,-8.146,-8.0716,-8.0378,-8.0209,-8.0209,-8.0209,-8.0209,-8.0209,-8.0209,-8.0412,-8.0818,-8.1562,-8.2306,-8.305,-8.3795,-8.4167,-8.4167,-8.4471,-8.464,-5.9066,-6.008,-6.0892,-5.6765,-5.6258,-5.5818,-5.2063,-5.1116,-5.0913,-5.0473,-5.0304,0.0,0.0,0.0,0.0,0.0,0.0,-5.0439,0.0,-5.1657,0.0,0.0,0.0,0.0,-6.3024,-6.1129,-6.2009,-6.7726,-6.3125,-6.2448,-6.7929,-6.7523,-6.7015,-6.6812,-6.7015,-6.776,-6.9079,-6.8876,-6.8876,-6.9079,-6.8673,-6.7895,-6.6812,-6.6812,-6.732,-6.8267,-6.8842,-6.9755,-7.0804,-7.1176,-7.1751,-7.2326,-7.1616,-7.1447,-7.1616,-7.1616,-7.1278,-7.0872,-7.1413,-7.1298,-7.1187,-7.3027,-7.4117,-7.4672,-7.4382,-7.4458,-7.4458,-7.3713,-7.4018,-7.4627,-7.4627,-7.5168,-7.5709,-7.5709,-7.5709,-7.5709,-7.5709,-7.6318,-7.713,-7.7841,-7.8585,-7.9735,-8.1765,-8.1832,-8.2103,-8.3592,-8.4099,-8.4302,-8.4302,-8.3659,-8.2915,-8.2171,-8.1596,-8.0987,-8.0242,-8.0209,-8.0209,-8.0209,-8.0209,-8.0209,-8.0209,-8.0209,-8.0547,-8.1257,-8.2035,-8.278,-8.349,-8.4268,-8.464,-8.464,-8.464,-8.464,-6.3193,-6.2821,-6.2212,-5.6966,-5.6258,-5.5818,-5.2063,-5.2334,-5.2976,-5.1488,-5.2334,-5.2909,-5.142,0.0,0.0,0.0,0.0,0.0,0.0,0.0,0.0,0.0,0.0,0.0,0.0,-5.5683,-5.6361,-6.5121,-6.0283,-6.0486,-6.8639,-6.8301,-6.7557,-6.6846,-6.7489,-6.8267,-6.9079,-6.8335,-6.8335,-6.9079,-6.759,-6.688,-6.6812,-6.6812,-6.7624,-6.9079,-6.9079,-7.0331,-7.2293,-7.1582,-7.1751,-7.2326,-7.1616,-7.1751,-7.236,-7.236,-7.236,-7.2326,-7.236,-7.2541,-7.286,-7.3614,-7.441,-7.4818,-7.3844,-7.4018,-7.4458,-7.3713,-7.4018,-7.4627,-7.4627,-7.5168,-7.5709,-7.5709,-7.5709,-7.5709,-7.5709,-7.6318,-7.713,-7.7841,-7.8585,-7.96,-8.1054,-8.19,-8.2881,-8.437,-8.3998,-8.3524,-8.3524,-8.2881,-8.2171,-8.1393,-8.1291,-8.0987,-8.0242,-8.0209,-8.0209,-8.0209,-8.0209,-8.0209,-8.0209,-8.0209,-8.0547,-8.1257,-8.2035,-8.278,-8.349,-8.4268,-8.464,-8.464,-8.464,-8.464,-6.5662,-6.6609,-6.644,-6.0182,-5.9573,-5.8998,-5.3247,-5.3112,-5.3653,-5.1623,-5.2807,-5.3619,-5.1589,0.0,0.0,0.0,0.0,0.0,0.0,0.0,0.0,0.0,0.0,0.0,0.0,0.0,0.0,0.0,-6.3011,0.0,-6.8852,-6.8986,-6.8282,-6.6846,-6.803,-6.8808,-6.9113,-6.9316,-6.9316,-6.9079,-6.803,-6.7523,-6.7523,-6.7523,-6.8368,-6.9857,-7.0364,-7.0973,-7.1684,-7.1921,-7.2191,-7.2326,-7.1616,-7.236,-7.3747,-7.2766,-7.2394,-7.2463,-7.2604,-7.2705,-7.3025,-7.4447,-7.4624,-7.4237,-7.3886,-7.3468,-7.3206,-7.3409,-7.368,-7.4086,-7.5067,-7.5506,-7.5709,-7.5709,-7.5709,-7.5845,-7.6386,-7.6724,-7.7266,-7.8483,-7.8923,-7.9566,-8.1021,-8.1494,-8.2002,-8.3016,-8.2949,-8.278,-8.278,-8.2137,-8.1562,-8.1325,-8.0851,-8.0479,-8.0209,-8.0209,-8.0209,-8.0209,-8.0209,-8.0209,-8.0209,-8.0648,-8.1257,-8.2002,-8.2746,-8.349,-8.4234,-8.4505,-8.464,-8.464,-8.464,-8.464,-6.7895,-6.8876,-6.8707,-6.2482,-6.1873,-6.1231,-5.5277,-5.5074,-5.5683,-5.3957,-5.4329,-5.504,0.0,0.0,0.0,0.0,0.0,0.0,0.0,-4.3031,0.0,0.0,0.0,0.0,0.0,0.0,0.0,0.0,0.0,0.0,0.0,-7.0113,-6.9267,-6.7776,-6.8617,-6.8977,-6.8673,-6.9417,-6.9417,-6.8673,-6.8132,-6.7895,-6.7895,-6.8199,-6.9011,-7.0229,-7.0703,-7.121,-7.1718,-7.1921,-7.2157,-7.2326,-7.1616,-7.2326,-7.3747,-7.3037,-7.2969,-7.3186,-7.3172,-7.36,-7.4292,-7.5101,-7.5423,-7.5244,-7.4184,-7.3843,-7.3753,-7.3886,-7.4086,-7.4492,-7.5439,-7.5709,-7.5709,-7.5709,-7.5912,-7.6284,-7.6792,-7.7096,-7.7638,-7.8889,-7.9126,-7.9498,-8.0682,-8.0885,-8.1257,-8.2272,-8.2171,-8.2002,-8.2002,-8.1359,-8.0885,-8.0885,-8.0479,-8.0209,-8.0209,-8.0209,-8.0209,-8.0209,-8.0209,-8.0209,-8.0209,-8.0885,-8.1629,-8.2408,-8.3118,-8.3862,-8.464,-8.464,-8.464,-8.464,-8.464,-8.464]},{"header":{"parameterUnit":"m.s-1","parameterCategory":1,"la1":30.6,"la2":29.2853,"lo1":-89.7004,"lo2":-87.6739,"dx":0.0162,"dy":0.0183,"nx":112,"ny":82,"refTime":"2022-12-13T06:00:00:Z","depth":0,"parameterNumber":3,"parameterNumberName":"V-component_of_WINDS"},"data":[0.0,0.0,0.0,0.0,0.0,0.0,0.0,0.0,0.0,0.0,0.0,0.0,0.0,0.0,0.0,0.0,0.0,0.0,0.0,0.0,0.0,0.0,0.0,0.0,0.0,0.0,0.0,0.0,0.0,0.0,0.0,0.0,0.0,0.0,0.0,0.0,0.0,0.0,0.0,0.0,0.0,0.0,0.0,0.0,0.0,0.0,0.0,0.0,0.0,0.0,0.0,0.0,0.0,0.0,0.0,0.0,0.0,0.0,0.0,0.0,0.0,0.0,0.0,0.0,0.0,0.0,0.0,0.0,0.0,0.0,0.0,0.0,0.0,0.0,0.0,0.0,0.0,0.0,0.0,0.0,0.0,0.0,0.0,0.0,0.0,0.0,0.0,0.0,0.0,0.0,6.5865,6.7184,6.8504,6.8977,6.8301,6.8132,6.5865,6.0622,0.0,0.0,0.0,0.0,0.0,0.0,0.0,0.0,0.0,0.0,0.0,0.0,0.0,0.0,0.0,0.0,0.0,0.0,0.0,0.0,0.0,0.0,0.0,0.0,0.0,0.0,0.0,0.0,0.0,0.0,0.0,0.0,0.0,0.0,0.0,0.0,0.0,0.0,0.0,0.0,0.0,0.0,0.0,0.0,0.0,0.0,0.0,0.0,0.0,0.0,0.0,0.0,0.0,0.0,0.0,0.0,0.0,0.0,0.0,0.0,0.0,0.0,0.0,0.0,0.0,0.0,0.0,0.0,0.0,0.0,0.0,0.0,0.0,0.0,0.0,0.0,0.0,0.0,0.0,0.0,0.0,0.0,0.0,0.0,0.0,0.0,0.0,0.0,0.0,0.0,0.0,0.0,0.0,0.0,0.0,0.0,0.0,0.0,0.0,0.0,0.0,0.0,0.0,0.0,6.5358,6.9248,6.9891,6.9958,6.9857,6.9282,6.6677,6.1467,0.0,0.0,0.0,0.0,0.0,0.0,0.0,0.0,0.0,0.0,0.0,0.0,0.0,0.0,0.0,0.0,0.0,0.0,0.0,0.0,0.0,0.0,0.0,0.0,0.0,0.0,0.0,0.0,0.0,0.0,0.0,0.0,0.0,0.0,0.0,0.0,0.0,0.0,0.0,0.0,0.0,0.0,0.0,0.0,0.0,0.0,0.0,0.0,0.0,0.0,0.0,0.0,0.0,0.0,0.0,0.0,0.0,0.0,0.0,0.0,0.0,0.0,0.0,0.0,0.0,0.0,0.0,0.0,0.0,0.0,0.0,0.0,0.0,0.0,0.0,0.0,0.0,0.0,0.0,0.0,0.0,0.0,0.0,0.0,0.0,0.0,0.0,0.0,0.0,0.0,0.0,0.0,0.0,0.0,0.0,0.0,0.0,0.0,0.0,0.0,0.0,0.0,0.0,6.5628,6.7793,7.1041,7.1379,7.1075,7.0263,6.9519,6.7049,6.2212,5.937,0.0,0.0,0.0,0.0,0.0,0.0,0.0,0.0,0.0,0.0,0.0,0.0,0.0,0.0,0.0,0.0,0.0,0.0,0.0,0.0,0.0,0.0,0.0,0.0,0.0,0.0,0.0,0.0,0.0,0.0,0.0,0.0,0.0,0.0,0.0,0.0,0.0,0.0,0.0,0.0,0.0,0.0,0.0,0.0,0.0,0.0,0.0,0.0,0.0,0.0,0.0,0.0,0.0,0.0,0.0,0.0,0.0,0.0,0.0,0.0,0.0,0.0,0.0,0.0,0.0,0.0,0.0,0.0,0.0,0.0,0.0,0.0,0.0,0.0,0.0,0.0,0.0,0.0,0.0,0.0,0.0,0.0,0.0,0.0,0.0,0.0,0.0,0.0,0.0,0.0,0.0,0.0,0.0,0.0,0.0,0.0,0.0,0.0,0.0,0.0,0.0,0.0,6.8538,7.0128,7.2191,7.2394,7.1853,7.0567,6.962,6.7184,6.2685,5.9404,0.0,0.0,0.0,0.0,0.0,0.0,0.0,0.0,0.0,0.0,0.0,0.0,0.0,0.0,0.0,0.0,0.0,0.0,0.0,0.0,0.0,0.0,0.0,0.0,0.0,0.0,0.0,0.0,0.0,0.0,0.0,0.0,0.0,0.0,0.0,0.0,0.0,0.0,0.0,0.0,0.0,0.0,0.0,0.0,0.0,0.0,0.0,0.0,0.0,0.0,0.0,0.0,0.0,0.0,0.0,0.0,0.0,0.0,0.0,0.0,0.0,0.0,0.0,0.0,0.0,0.0,0.0,0.0,0.0,0.0,0.0,0.0,0.0,0.0,0.0,0.0,0.0,0.0,0.0,0.0,0.0,0.0,0.0,0.0,0.0,0.0,0.0,0.0,0.0,0.0,0.0,0.0,0.0,0.0,0.0,0.0,0.0,0.0,0.0,0.0,0.0,0.0,6.8335,7.0703,7.2225,7.2394,7.209,7.1312,6.9925,6.7184,6.2685,5.893,0.0,0.0,0.0,0.0,0.0,0.0,0.0,0.0,0.0,0.0,0.0,0.0,0.0,0.0,0.0,0.0,0.0,0.0,0.0,0.0,0.0,0.0,0.0,0.0,0.0,0.0,0.0,0.0,0.0,0.0,0.0,0.0,0.0,0.0,0.0,0.0,0.0,0.0,0.0,0.0,0.0,0.0,0.0,0.0,0.0,0.0,0.0,0.0,0.0,0.0,0.0,0.0,0.0,0.0,0.0,0.0,0.0,0.0,0.0,0.0,0.0,0.0,0.0,0.0,0.0,0.0,0.0,0.0,0.0,0.0,0.0,0.0,0.0,0.0,0.0,0.0,0.0,0.0,0.0,0.0,0.0,0.0,0.0,0.0,0.0,0.0,0.0,0.0,0.0,0.0,0.0,0.0,0.0,0.0,0.0,0.0,0.0,0.0,0.0,0.0,0.0,0.0,6.9011,7.165,7.3578,7.3781,7.3105,7.1447,7.0364,6.7658,6.2685,0.0,0.0,0.0,0.0,0.0,0.0,0.0,0.0,0.0,0.0,0.0,0.0,0.0,0.0,0.0,0.0,0.0,0.0,0.0,0.0,0.0,0.0,0.0,0.0,0.0,0.0,0.0,0.0,0.0,0.0,0.0,0.0,0.0,0.0,0.0,0.0,0.0,0.0,0.0,0.0,0.0,0.0,0.0,0.0,0.0,0.0,0.0,0.0,0.0,0.0,0.0,0.0,0.0,0.0,0.0,0.0,0.0,0.0,0.0,0.0,0.0,0.0,0.0,0.0,0.0,0.0,0.0,0.0,0.0,0.0,0.0,0.0,0.0,0.0,0.0,0.0,0.0,0.0,0.0,0.0,0.0,0.0,0.0,0.0,0.0,0.0,0.0,0.0,0.0,0.0,0.0,0.0,0.0,0.0,0.0,0.0,0.0,0.0,0.0,0.0,0.0,0.0,6.5789,6.9602,7.2665,7.4424,7.4627,7.3815,7.1819,7.0973,6.8199,6.2753,0.0,0.0,0.0,0.0,0.0,0.0,0.0,0.0,0.0,0.0,0.0,0.0,0.0,0.0,0.0,0.0,0.0,0.0,0.0,0.0,0.0,0.0,0.0,0.0,0.0,0.0,0.0,0.0,0.0,0.0,0.0,0.0,0.0,0.0,0.0,0.0,0.0,0.0,0.0,0.0,0.0,0.0,0.0,0.0,0.0,0.0,0.0,0.0,0.0,0.0,0.0,0.0,0.0,0.0,0.0,0.0,0.0,0.0,0.0,0.0,0.0,0.0,0.0,0.0,0.0,0.0,0.0,0.0,0.0,0.0,0.0,0.0,0.0,0.0,0.0,0.0,0.0,0.0,0.0,0.0,0.0,0.0,0.0,0.0,0.0,0.0,0.0,0.0,0.0,0.0,0.0,0.0,0.0,0.0,0.0,0.0,0.0,0.0,0.0,0.0,0.0,0.0,6.4895,7.0071,7.3768,7.4512,7.4614,7.4005,7.2484,7.1706,6.8731,0.0,0.0,0.0,0.0,0.0,0.0,0.0,0.0,0.0,0.0,0.0,0.0,0.0,0.0,0.0,0.0,0.0,0.0,0.0,0.0,0.0,0.0,0.0,0.0,0.0,0.0,0.0,0.0,0.0,0.0,0.0,0.0,0.0,0.0,0.0,0.0,0.0,0.0,0.0,0.0,0.0,0.0,0.0,0.0,0.0,0.0,0.0,0.0,0.0,0.0,0.0,0.0,0.0,0.0,0.0,0.0,0.0,0.0,0.0,0.0,0.0,0.0,0.0,0.0,0.0,0.0,0.0,0.0,0.0,0.0,0.0,0.0,0.0,0.0,0.0,0.0,0.0,0.0,0.0,0.0,0.0,0.0,0.0,0.0,0.0,0.0,0.0,0.0,0.0,0.0,0.0,0.0,0.0,0.0,0.0,0.0,0.0,0.0,0.0,0.0,0.0,0.0,0.0,6.4045,6.9631,7.3424,7.3651,7.3684,7.2676,7.0271,7.0766,6.8056,6.0622,0.0,0.0,0.0,0.0,0.0,0.0,0.0,0.0,0.0,0.0,0.0,0.0,0.0,0.0,0.0,0.0,0.0,0.0,0.0,0.0,0.0,0.0,0.0,0.0,0.0,0.0,0.0,0.0,0.0,0.0,0.0,0.0,0.0,0.0,0.0,0.0,0.0,0.0,0.0,0.0,0.0,0.0,0.0,0.0,0.0,0.0,0.0,0.0,0.0,0.0,0.0,0.0,0.0,0.0,0.0,0.0,0.0,0.0,0.0,0.0,0.0,0.0,0.0,0.0,0.0,0.0,0.0,0.0,0.0,0.0,0.0,0.0,0.0,0.0,0.0,0.0,0.0,0.0,0.0,0.0,0.0,0.0,0.0,0.0,0.0,0.0,0.0,0.0,0.0,0.0,0.0,0.0,0.0,0.0,0.0,0.0,0.0,0.0,0.0,0.0,0.0,0.0,6.3046,6.9158,7.3323,7.3323,7.3068,7.2237,7.0489,7.0647,6.8389,6.2584,0.0,0.0,0.0,0.0,0.0,0.0,0.0,0.0,0.0,0.0,0.0,0.0,0.0,0.0,0.0,0.0,0.0,0.0,0.0,0.0,0.0,0.0,0.0,0.0,0.0,0.0,0.0,0.0,0.0,0.0,0.0,0.0,0.0,0.0,0.0,0.0,0.0,0.0,0.0,0.0,0.0,0.0,0.0,0.0,0.0,0.0,0.0,0.0,0.0,0.0,0.0,0.0,0.0,0.0,0.0,0.0,0.0,0.0,0.0,0.0,0.0,0.0,0.0,0.0,0.0,0.0,0.0,0.0,0.0,0.0,0.0,0.0,0.0,0.0,0.0,0.0,0.0,0.0,0.0,0.0,0.0,0.0,0.0,0.0,0.0,0.0,0.0,0.0,0.0,0.0,0.0,0.0,0.0,0.0,0.0,0.0,0.0,0.0,0.0,0.0,0.0,0.0,6.1939,6.8524,7.2966,7.2966,7.2482,7.2069,7.1735,7.0781,6.9154,6.6674,0.0,0.0,0.0,0.0,0.0,0.0,0.0,0.0,0.0,0.0,0.0,0.0,0.0,0.0,0.0,0.0,0.0,0.0,0.0,0.0,0.0,0.0,0.0,0.0,0.0,0.0,0.0,0.0,0.0,0.0,0.0,0.0,0.0,0.0,0.0,0.0,0.0,0.0,0.0,0.0,0.0,0.0,0.0,0.0,0.0,0.0,0.0,0.0,0.0,0.0,0.0,0.0,0.0,0.0,0.0,0.0,0.0,0.0,0.0,0.0,4.501,4.3524,0.0,0.0,0.0,0.0,0.0,0.0,0.0,0.0,0.0,0.0,0.0,0.0,0.0,0.0,0.0,0.0,0.0,0.0,0.0,0.0,0.0,0.0,0.0,0.0,0.0,0.0,0.0,0.0,0.0,0.0,0.0,0.0,0.0,0.0,0.0,0.0,0.0,0.0,0.0,0.0,6.1031,6.6849,7.0672,7.0672,7.0612,6.9883,6.8273,6.888,6.8139,6.5358,6.5491,0.0,0.0,0.0,0.0,0.0,0.0,0.0,0.0,0.0,0.0,0.0,0.0,0.0,0.0,0.0,0.0,0.0,0.0,0.0,0.0,0.0,0.0,0.0,0.0,0.0,0.0,0.0,0.0,0.0,0.0,0.0,0.0,0.0,0.0,0.0,0.0,0.0,0.0,0.0,0.0,0.0,0.0,0.0,0.0,0.0,0.0,0.0,0.0,0.0,0.0,0.0,0.0,0.0,0.0,0.0,0.0,0.0,0.0,0.0,4.8992,4.8,0.0,0.0,0.0,0.0,0.0,0.0,0.0,0.0,0.0,0.0,0.0,0.0,0.0,0.0,0.0,0.0,0.0,0.0,0.0,0.0,0.0,0.0,0.0,0.0,0.0,0.0,0.0,0.0,0.0,0.0,0.0,0.0,0.0,0.0,0.0,0.0,0.0,0.0,0.0,0.0,6.0775,6.6311,6.9871,6.9542,6.9512,6.9093,6.8046,6.8031,6.7758,6.6955,6.6895,0.0,0.0,0.0,0.0,0.0,0.0,0.0,0.0,0.0,0.0,0.0,0.0,0.0,0.0,0.0,0.0,0.0,0.0,0.0,0.0,0.0,0.0,0.0,0.0,0.0,0.0,0.0,0.0,0.0,0.0,0.0,0.0,0.0,0.0,0.0,0.0,0.0,0.0,0.0,0.0,0.0,0.0,0.0,0.0,0.0,0.0,0.0,0.0,0.0,0.0,0.0,0.0,0.0,5.2276,5.2127,5.3054,5.3174,5.3773,5.464,5.3084,5.2845,5.3294,5.0032,0.0,0.0,0.0,0.0,0.0,0.0,0.0,0.0,0.0,0.0,0.0,0.0,0.0,0.0,0.0,0.0,0.0,0.0,0.0,0.0,0.0,0.0,5.8112,5.7992,5.8411,5.7453,5.2426,0.0,0.0,0.0,0.0,0.0,0.0,0.0,0.0,0.0,0.0,0.0,6.1403,6.649,6.9662,6.9213,6.9183,6.9064,6.8854,6.7926,6.785,6.9,6.8319,6.7328,0.0,0.0,0.0,0.0,0.0,0.0,0.0,0.0,0.0,0.0,0.0,0.0,0.0,0.0,0.0,0.0,0.0,0.0,0.0,0.0,0.0,0.0,0.0,0.0,0.0,0.0,0.0,0.0,0.0,0.0,0.0,0.0,3.8532,3.9688,0.0,0.0,0.0,0.0,0.0,0.0,0.0,0.0,0.0,0.0,0.0,0.0,0.0,5.2306,5.3054,5.4132,5.5029,5.5777,5.6675,5.6855,5.6466,5.7064,5.7124,5.6735,5.7064,0.0,5.488,5.4371,0.0,0.0,0.0,0.0,0.0,0.0,0.0,0.0,0.0,0.0,0.0,0.0,0.0,0.0,0.0,0.0,0.0,0.0,0.0,0.0,0.0,0.0,6.2151,6.1583,6.1523,6.1194,5.9847,5.5478,5.2067,5.2995,5.1768,4.9912,0.0,0.0,0.0,0.0,0.0,0.0,6.3857,6.7208,6.9303,6.9812,6.9842,6.9393,6.8196,6.8495,6.8847,6.9178,7.0726,7.0457,6.7809,6.7435,0.0,0.0,0.0,0.0,0.0,0.0,0.0,0.0,0.0,0.0,0.0,0.0,0.0,0.0,0.0,0.0,0.0,0.0,0.0,0.0,0.0,0.0,0.0,0.0,0.0,0.0,0.0,0.0,0.0,3.9959,4.1124,4.3386,4.2209,4.1028,0.0,0.0,0.0,0.0,0.0,0.0,0.0,0.0,0.0,5.3922,5.4281,5.491,5.5957,5.5807,5.6256,5.7274,5.6735,5.6885,5.7663,5.7214,5.7064,5.7124,5.7812,5.7842,5.7304,5.6196,5.488,5.3473,0.0,0.0,0.0,0.0,5.3623,5.4102,5.5568,5.5658,5.494,5.3892,0.0,0.0,0.0,0.0,0.0,0.0,0.0,5.8501,6.0116,6.1523,6.263,6.3079,6.3169,6.3199,6.3288,6.0954,5.8351,5.6735,5.5688,5.4012,5.0541,5.1708,0.0,0.0,0.0,6.1553,6.4635,6.7687,6.9512,6.9453,6.9752,6.9602,6.8615,6.8824,6.9048,6.9063,7.0745,7.0967,6.9327,6.7974,6.5479,0.0,0.0,0.0,0.0,0.0,0.0,0.0,0.0,0.0,0.0,0.0,0.0,0.0,0.0,0.0,0.0,0.0,0.0,0.0,0.0,0.0,0.0,0.0,0.0,0.0,0.0,0.0,0.0,4.2803,4.3877,4.6245,4.5325,4.4017,0.0,0.0,0.0,0.0,0.0,0.0,5.2157,5.2695,5.4102,5.6585,5.6496,5.6885,5.7842,5.6885,5.6825,5.7603,5.6286,5.6286,5.7334,5.6526,5.6406,5.6885,5.7573,5.8231,5.874,5.7274,5.6675,5.6496,5.467,5.3952,5.4102,5.5448,5.6047,5.6526,5.883,5.9308,5.874,5.7752,5.7274,5.6645,5.4192,0.0,0.0,0.0,0.0,5.9189,6.0505,6.1583,6.26,6.3528,6.3767,6.3947,6.4605,6.4366,6.3169,6.0416,5.9877,5.859,5.4461,5.5807,0.0,5.6585,6.0236,6.3857,6.6011,6.8465,6.9842,6.9512,7.0081,7.0141,6.9333,6.9542,6.9542,6.9034,7.0557,7.1218,7.0692,6.9075,6.7089,6.4798,0.0,0.0,0.0,0.0,0.0,0.0,0.0,0.0,0.0,0.0,0.0,0.0,0.0,0.0,0.0,0.0,0.0,0.0,0.0,0.0,0.0,0.0,0.0,0.0,0.0,0.0,0.0,0.0,0.0,4.7179,4.8252,0.0,0.0,0.0,0.0,4.9851,5.0644,5.2247,5.485,5.5029,5.5957,5.7962,5.7393,5.7094,5.7154,5.7094,5.6795,5.6286,5.6765,5.6406,5.5359,5.5927,5.6248,5.6308,5.6885,5.7543,5.8171,5.8052,5.8022,5.7902,5.6555,5.6068,5.6166,5.7483,5.8381,5.9099,6.0535,6.0984,6.0954,6.0894,5.9159,5.7064,5.6885,5.6496,0.0,0.0,5.9967,6.1253,6.26,6.2989,6.3049,6.3109,6.3139,6.3288,6.3917,6.4006,6.4126,6.4605,6.4635,6.3827,6.1074,0.0,6.1253,6.245,6.2899,6.4695,6.9153,6.9871,7.0201,7.0739,7.1398,7.1278,7.0051,7.1038,7.0949,6.9123,7.0924,7.2055,7.2024,7.1939,7.0572,6.7673,6.4075,0.0,0.0,0.0,0.0,0.0,0.0,0.0,0.0,0.0,0.0,0.0,0.0,0.0,0.0,0.0,0.0,0.0,0.0,0.0,0.0,0.0,0.0,0.0,0.0,0.0,0.0,0.0,0.0,5.0223,5.0481,0.0,4.9613,5.0511,5.1259,5.1468,5.2905,5.4371,5.5748,5.6196,5.6735,5.7423,5.7214,5.7094,5.7094,5.6286,5.6166,5.6765,5.6166,5.5867,5.5837,5.6128,5.6218,5.6278,5.7304,5.8141,5.871,5.8291,5.8381,5.874,5.871,5.868,5.88,5.9727,6.0475,6.1104,6.1583,6.1732,6.1672,6.1253,6.0415,5.9622,5.9669,6.0106,6.0638,6.0962,6.1373,6.1852,6.2331,6.245,6.245,6.245,6.3079,6.3737,6.3947,6.4695,6.5353,6.5622,6.5323,6.4186,6.1553,6.2869,6.4006,6.3199,6.5263,6.7627,6.9722,7.032,7.0649,7.0889,7.1487,7.1697,7.1248,7.2026,7.2265,7.1547,7.1767,7.1937,7.1937,7.1228,7.0097,6.857,6.6891,6.4204,0.0,0.0,0.0,0.0,0.0,0.0,0.0,0.0,0.0,0.0,0.0,0.0,0.0,0.0,0.0,0.0,0.0,0.0,0.0,0.0,0.0,0.0,0.0,0.0,0.0,4.8785,5.0188,5.1374,5.1947,5.1887,5.0943,5.2306,5.3204,5.3204,5.4431,5.5478,5.6188,5.6555,5.6795,5.6795,5.6974,5.7004,5.6795,5.6376,5.6496,5.7094,5.6466,5.6286,5.6466,5.6466,5.6615,5.6885,5.7752,5.8501,5.9069,5.865,5.871,5.9159,5.9578,6.0027,6.0505,6.1194,6.1732,6.2121,6.2361,6.2271,6.2002,6.1313,6.0923,6.066,6.0481,6.1165,6.1981,6.1834,6.1942,6.2151,6.2361,6.2421,6.2421,6.2421,6.3228,6.4066,6.4306,6.5233,6.6071,6.6281,6.5802,6.4874,6.3348,6.4545,6.5293,6.4216,6.649,6.8555,6.9213,7.0051,7.0679,7.0889,7.1697,7.2146,7.1906,7.2086,7.2325,7.2565,7.1727,7.1427,7.1876,7.0859,6.9991,6.9333,6.8435,6.6251,6.275,0.0,0.0,0.0,0.0,0.0,0.0,0.0,0.0,0.0,0.0,0.0,0.0,0.0,0.0,0.0,0.0,0.0,0.0,0.0,0.0,0.0,0.0,0.0,4.7775,5.033,5.1798,5.0495,5.2665,5.3713,5.2426,5.4042,5.5179,5.5179,5.5209,5.5508,5.6188,5.6248,5.6278,5.6248,5.6795,5.6825,5.6308,5.7453,5.7752,5.7124,5.7782,5.7752,5.7094,5.7124,5.7483,5.8112,5.8141,5.853,5.9099,5.9099,5.9129,5.9129,5.9129,5.9937,6.1164,6.1852,6.2091,6.2181,6.281,6.26,6.1942,6.1283,6.0625,5.9992,5.9308,5.9632,6.0291,6.0924,6.1583,6.2211,6.2869,6.3049,6.3049,6.3049,6.3558,6.4216,6.4874,6.5533,6.6191,6.6819,6.643,6.6191,6.6819,6.5892,6.5263,6.5892,6.655,0.0,6.7897,6.9153,7.0201,7.0739,7.2026,7.2565,7.1906,7.1278,7.1248,7.1936,7.0799,7.0679,7.1936,7.1338,7.0679,7.0081,6.8734,6.7388,6.6101,0.0,0.0,0.0,0.0,0.0,0.0,0.0,0.0,0.0,0.0,0.0,0.0,0.0,0.0,0.0,0.0,0.0,0.0,0.0,0.0,0.0,4.9095,5.0776,5.1539,5.28,5.3713,5.3803,5.4491,5.479,5.4401,5.488,5.5179,5.5179,5.5628,5.6038,5.6218,5.7064,5.7363,5.6855,5.7483,5.7752,5.7573,5.7453,5.7543,5.7842,5.7513,5.7274,5.7124,5.7603,5.7932,5.8141,5.862,5.8949,5.9099,5.9099,5.9398,5.9817,5.9817,6.0027,6.0505,6.1672,6.2091,6.2121,6.2301,6.1613,6.0595,6.0416,6.0553,6.0521,5.9452,6.019,6.1416,6.1172,6.1253,6.1523,6.2181,6.2361,6.2361,6.2361,6.3588,6.4814,6.4994,6.5533,6.6071,6.6251,6.5742,6.5353,6.5533,6.5652,6.5652,6.5353,6.6251,6.7238,6.7897,6.9153,6.9662,6.8854,6.9991,7.0889,7.1158,7.1457,7.2325,7.3941,7.3283,7.3193,7.4031,7.2954,7.2265,7.2116,7.035,6.9004,0.0,0.0,0.0,0.0,0.0,0.0,0.0,0.0,0.0,0.0,0.0,0.0,0.0,0.0,0.0,0.0,0.0,0.0,0.0,0.0,0.0,0.0,5.1362,5.3204,5.3913,5.4371,5.476,5.5149,5.5179,5.5179,5.5179,5.5179,5.5299,5.5598,5.6008,5.6286,5.6526,5.7543,5.7812,5.7124,5.8022,5.8411,5.8112,5.7992,5.8141,5.853,5.8112,5.7932,5.7962,5.8351,5.853,5.859,5.9219,5.9368,5.9129,5.9398,5.9578,5.9697,0.0,0.0,0.0,0.0,6.1852,6.2061,6.1792,6.0984,6.0086,6.0086,6.0173,6.0106,5.9669,6.0324,6.124,6.1447,6.1523,6.1672,6.2331,6.251,6.251,6.251,6.3797,6.4934,6.4665,6.5353,6.5922,6.5652,6.5503,0.0,6.5084,6.5114,6.5024,6.4665,6.5503,6.6311,6.67,6.8405,6.9363,6.8854,6.9991,7.1038,7.1697,7.1577,0.0,0.0,0.0,7.3343,7.4031,7.3043,0.0,0.0,0.0,7.1308,7.1457,7.029,0.0,0.0,6.6849,6.637,0.0,0.0,0.0,0.0,0.0,0.0,0.0,0.0,0.0,0.0,0.0,0.0,0.0,0.0,0.0,0.0,5.3444,5.5269,5.5209,5.5179,5.5179,5.5179,5.5179,5.5179,5.5179,5.5269,5.5538,5.6188,5.6316,5.6645,5.7184,5.7872,0.0,0.0,0.0,5.883,5.8231,5.88,5.9099,5.9099,5.9099,5.9099,5.9099,5.9099,5.9099,5.9129,5.9787,5.9727,5.9159,5.9817,5.9697,5.9159,5.9727,6.0446,6.1104,6.1014,6.1463,6.2002,6.1343,0.0,0.0,6.0206,5.9817,5.9428,6.0027,6.0206,6.0475,6.1732,6.2091,6.2271,6.2989,6.3139,6.3109,6.3169,6.4066,6.4755,6.4216,6.4994,6.5622,6.5114,6.5443,6.5592,6.5024,6.4485,6.4126,6.4126,6.4635,6.5054,6.5114,6.7388,6.9153,6.9602,7.0799,0.0,7.2535,7.1547,7.1757,7.3762,7.2834,7.2475,7.3013,7.2505,7.2505,7.3133,7.3133,7.3702,7.4869,7.4869,7.4869,7.4749,6.9453,6.8286,0.0,0.0,0.0,0.0,0.0,0.0,0.0,0.0,0.0,0.0,0.0,0.0,0.0,0.0,0.0,5.401,5.5287,5.5807,5.5269,5.5179,5.5179,5.5179,5.5179,5.5179,5.5179,5.5658,5.6047,5.6218,5.7154,5.7812,5.7932,5.856,5.886,5.871,5.8979,5.9039,5.8919,5.9039,5.9099,5.9099,5.9099,0.0,5.9099,5.9099,5.9099,5.9129,5.9787,5.9727,5.9159,5.9817,5.9697,5.9129,5.9249,6.0027,6.1044,6.0475,6.1044,6.2002,6.1343,6.1014,6.0924,6.0924,6.0835,6.0745,6.0864,6.0924,0.0,6.1882,6.2091,6.2361,6.3528,6.3438,6.3199,6.3707,6.4006,6.4306,6.4755,6.4605,6.4515,6.4934,6.4695,6.4366,6.4216,6.4545,6.4844,6.4844,6.4934,6.5233,6.5742,6.7687,6.8645,6.7657,6.8764,6.9842,7.05,7.0769,7.1757,7.3762,7.4151,7.4121,7.3732,7.4091,7.436,7.448,7.448,7.4629,7.4869,7.4869,7.4869,7.4839,7.3702,7.3432,0.0,0.0,0.0,0.0,0.0,0.0,0.0,0.0,0.0,0.0,0.0,5.004,5.2834,0.0,5.4953,5.5607,5.6226,5.6286,5.5329,5.5179,5.5179,5.5179,5.5179,5.5329,5.5658,5.5987,5.6436,5.7094,5.7752,5.8261,5.859,5.8919,5.9099,5.9099,5.9099,5.9099,5.9099,5.9099,5.9099,5.9099,5.9099,5.9099,5.9099,5.9099,5.9279,5.9638,6.0296,6.0416,6.0116,6.0086,5.9697,5.9099,5.9099,5.9727,6.0505,5.9847,6.0236,6.1044,6.0715,6.0595,6.0655,6.1014,6.1104,6.1164,6.1493,6.1613,6.1732,6.2391,6.26,6.272,6.3378,6.3318,6.3228,6.3857,6.4276,6.4515,6.4515,6.4515,6.4425,6.4126,6.4006,6.4126,6.4455,6.4814,6.5024,6.5024,6.5024,6.5263,6.5922,6.7448,6.8226,6.7537,6.8675,6.9752,7.038,7.1637,7.2954,7.43,7.4689,7.4719,7.439,7.4689,7.4869,7.4869,7.4869,7.4719,7.439,7.439,7.439,7.439,7.439,7.4569,0.0,0.0,0.0,0.0,0.0,0.0,0.0,4.7367,4.9047,5.0661,5.1946,5.3451,5.5564,5.6795,5.7274,5.6645,5.6855,5.6705,5.5538,5.5269,5.5179,5.5179,5.5179,5.5448,5.6107,5.6338,5.6825,5.8022,5.8231,5.853,5.9069,5.9099,5.9099,5.9099,5.9099,5.9099,5.9099,5.9099,5.9099,5.9099,5.9099,5.9099,5.9099,5.9099,5.9458,6.0116,6.0805,6.1104,6.1074,6.0386,5.9787,5.9279,5.9159,5.9518,6.0027,5.9488,5.9787,6.0475,6.0475,6.0565,6.0745,6.1313,6.1493,6.1583,6.2121,6.2301,6.2391,6.2929,6.3079,6.3109,6.3228,6.3169,6.3258,6.4006,6.4425,6.4575,6.4276,6.4425,6.4366,6.3438,6.3558,6.4006,6.4545,6.4755,6.4964,6.5353,6.5293,6.5473,6.6131,6.7238,6.7956,6.7956,6.9183,7.035,7.1218,7.2774,7.3971,7.4629,7.4809,7.4809,7.4689,7.4809,7.4869,7.4869,7.4869,7.454,7.3881,7.3881,7.3821,7.3702,7.3821,7.424,4.7788,4.7848,4.8446,4.9431,4.9342,4.9849,0.0,5.3228,5.3267,5.5743,5.6825,5.7623,5.853,5.877,5.865,5.8022,5.7453,5.6855,5.6166,5.5568,5.5179,5.5179,5.5179,5.5448,5.6107,5.6675,5.7304,5.8052,5.865,5.9039,5.9099,5.9099,5.9099,5.9099,5.9099,5.9099,5.9099,5.9099,5.9099,5.9099,5.9099,5.9099,5.9099,5.9099,5.9458,6.0116,6.0805,6.1104,6.1074,6.0386,6.0057,5.9907,5.9338,5.9518,6.0086,5.9997,6.0775,6.1882,6.1882,6.2241,6.275,6.2839,6.2869,6.2869,6.2959,6.2959,6.2989,6.3049,6.3079,6.3199,6.3767,6.3498,6.3378,6.4605,6.4096,6.3588,6.4695,6.4066,6.3408,6.3827,6.3498,6.3199,6.3288,6.3767,6.4725,6.652,6.6281,6.6131,6.6789,6.7508,6.7956,6.7956,6.9183,7.0709,7.2535,7.2894,7.3313,7.3971,7.454,7.4599,7.4031,7.4569,7.4869,7.4869,7.4869,7.454,7.3881,7.3881,7.3582,7.3043,7.3612,7.424,5.1498,5.0601,4.9823,5.1528,5.2336,5.3054,5.4341,5.5059,5.5867,5.7393,5.8231,5.877,5.9069,5.9099,5.8589,5.6925,5.7226,5.7136,5.563,5.559,5.5462,5.4544,5.4387,5.4995,5.6593,5.6944,5.7543,5.862,5.8949,5.9099,5.9099,5.9099,5.9099,5.9099,5.9099,5.9099,5.9099,5.9099,5.9099,5.9099,5.9099,5.9308,5.9668,5.9668,6.0266,6.1283,6.1972,6.1822,6.1134,6.1224,6.0565,5.9518,5.9638,5.9847,6.0086,6.0086,6.0446,6.1044,6.1822,6.2271,6.257,6.2959,6.3079,6.3079,6.3079,6.3079,6.3079,6.3079,6.3079,6.3139,6.3408,6.3258,6.3318,6.4216,6.4006,6.3767,6.4306,6.4006,6.3588,6.3498,6.3258,6.3199,6.3558,6.4156,6.5024,6.6221,6.6191,6.6251,6.6909,6.7238,6.7537,6.7926,6.8465,6.9602,7.1577,7.2086,7.2774,7.3821,7.451,7.4749,7.448,7.4719,7.4869,7.4869,7.4869,7.436,7.3313,7.3313,7.2984,7.2325,7.3013,7.3672,5.2755,5.2097,5.1498,5.3294,5.473,5.5598,5.5119,5.6226,5.7513,5.8022,5.865,5.9099,5.9099,5.8743,5.7879,5.6243,5.643,5.6191,5.4396,5.4641,5.4444,5.3166,5.3356,5.4186,5.5699,5.6391,5.7416,5.8955,5.9099,5.9099,5.9099,5.9099,5.9099,5.9099,5.9099,5.9099,5.9099,5.9099,5.9099,5.9099,5.9099,5.9458,6.0086,6.0475,6.1164,6.2121,6.278,6.2421,6.1433,6.1912,6.1224,5.9967,6.0266,6.0475,6.0625,6.0625,6.0625,6.0805,6.1972,6.2361,6.245,6.2929,6.3079,6.3079,6.3079,6.3079,6.3079,6.3079,6.3079,6.3079,6.3079,6.3079,6.3228,6.3857,6.3857,6.3797,6.3947,6.3857,6.3617,6.3169,6.3079,6.3228,6.3677,6.4306,6.4964,6.5652,6.5892,6.6251,6.6909,6.6999,6.7238,6.7897,6.7956,6.8764,7.0739,7.1517,7.2475,7.3821,7.451,7.4869,7.4869,7.4869,7.4869,7.4869,7.4869,7.424,7.2924,7.2924,7.2565,7.1906,7.2595,7.3283,5.0465,5.1708,5.3414,5.479,5.6107,5.7034,5.7004,5.7573,5.8112,5.8112,5.865,5.9099,5.9099,5.7804,5.6764,5.6707,5.488,5.3284,5.2648,5.2068,5.1543,5.0851,5.2133,5.2915,5.2683,5.4601,5.677,5.8931,5.9099,5.9099,5.9099,5.9099,5.9099,5.9099,5.9099,5.9099,5.9099,5.9099,5.9099,5.9099,5.9099,5.9458,6.0116,6.1433,6.2061,6.2121,6.278,6.269,6.2061,6.2091,6.2061,6.1942,6.1313,6.1463,6.2032,6.2032,6.2032,6.2121,6.281,6.3049,6.3049,6.3079,6.3079,6.3079,6.3079,6.3079,6.3079,6.3079,6.3079,6.3079,6.3079,6.3079,6.3228,6.3857,6.3528,6.3258,6.3857,6.3528,6.3109,6.3079,6.3079,6.3079,6.3109,6.3617,6.4276,6.4964,6.5592,6.6251,6.6909,6.6999,6.7238,6.7897,6.7956,6.8764,7.0739,7.1517,7.2475,7.3821,7.451,7.4869,7.4869,7.4869,7.4869,7.4869,7.4869,7.424,7.2924,7.2924,7.2565,7.1906,7.2595,7.3283,5.2185,5.3354,5.4281,5.6017,5.7124,5.7782,5.7782,5.8291,5.877,5.877,5.859,5.8471,5.8471,5.7189,5.5764,5.4681,5.3935,5.3014,5.182,5.2487,5.2682,5.1516,5.3043,5.4156,5.4087,5.5638,5.6932,5.7465,5.8495,5.9099,5.9099,5.9099,5.9099,5.9099,5.9099,5.9099,5.9099,5.9099,5.9099,5.9129,6.0027,6.0565,6.0805,6.2151,6.275,6.275,6.2989,6.272,6.2121,6.257,6.2241,6.1463,6.1672,6.1912,6.2091,6.2091,6.2361,6.278,6.2989,6.3079,6.3079,6.3079,6.3079,6.3079,6.3079,6.3079,6.3079,6.3079,6.3079,6.3079,6.3079,6.3079,6.3139,6.3348,6.3228,6.3139,6.3348,6.3228,6.3079,6.3079,6.3079,6.3079,6.3079,6.3588,6.4395,6.5503,6.6251,6.6729,6.6969,6.6999,6.7089,6.7298,6.7328,6.8106,7.0081,7.0859,7.1996,7.3791,7.451,7.4869,7.4869,7.4869,7.4869,7.4869,7.4869,7.445,7.3552,7.3552,7.3223,7.2595,7.3253,7.3672,5.3813,5.491,5.5388,5.7334,5.8141,5.8471,5.8471,5.8337,5.8276,5.8276,5.7512,5.6893,5.6893,5.6103,5.4882,5.3317,5.3139,5.2701,5.1062,5.2011,5.2546,5.182,5.3355,5.4443,5.4373,5.6246,5.75,5.7549,5.8495,5.9099,5.9099,5.9099,5.9099,5.9099,5.9099,5.9099,5.9099,5.9099,5.9219,5.9458,6.0595,6.1253,6.1493,6.26,6.3079,6.3079,6.3079,6.2839,6.248,6.2899,6.257,6.1852,6.2271,6.245,6.245,6.245,6.272,6.3079,6.3079,6.3079,6.3079,6.3079,6.3079,6.3079,6.3079,6.3079,6.3079,6.3079,6.3228,6.3348,6.3139,6.3228,6.3348,6.3139,6.3079,6.3079,6.3079,6.3079,6.3079,6.3079,6.3079,6.3079,6.3079,6.3268,6.368,6.4536,6.4865,6.5295,6.5981,6.6044,6.5764,6.5168,6.5105,6.5799,6.772,6.8477,6.9671,7.1621,7.308,7.3812,7.3812,7.4495,7.4779,7.454,7.4749,7.43,7.3193,7.3672,7.3552,7.2924,7.3582,7.4031,5.5172,5.6308,5.6765,5.8513,5.8961,5.8931,5.8852,5.7693,5.6565,5.6478,5.5557,5.4694,5.4579,5.4581,5.4059,5.2567,5.2447,5.1987,5.0304,5.0575,5.107,5.162,5.3015,5.3882,5.3742,5.6398,5.8441,5.9069,5.9099,5.9099,5.9099,5.9099,5.9099,5.9099,5.9099,5.9099,5.9099,5.9099,5.9428,6.0086,6.0775,6.1463,6.2121,6.278,6.3079,6.3079,6.3079,6.3079,6.3079,6.3079,6.3079,6.3079,6.3079,6.3079,6.3079,6.3079,6.3079,6.3079,6.3079,6.3079,6.3079,6.3079,6.3079,6.3079,6.3079,6.3079,6.3079,6.3079,6.3498,6.3827,6.3228,6.3498,6.3797,6.3228,6.3079,6.3079,6.3079,6.3079,6.3079,6.3079,6.3079,6.3079,6.3109,6.2698,6.2284,6.2342,6.1902,6.2197,6.3959,6.4153,6.3476,6.1797,6.1623,6.2369,6.4122,6.4867,6.607,6.7847,7.0384,7.1741,7.1741,7.3603,7.4334,7.3776,7.4343,7.3784,7.1936,7.3253,7.3582,7.2984,7.3642,7.427,5.6065,5.7603,5.8172,5.7491,5.7006,5.6495,5.5764,5.5269,5.4644,5.3359,5.3523,5.3407,5.177,5.1491,5.1377,5.0986,5.0311,4.9494,4.8629,4.923,5.0196,5.1567,5.3466,5.5249,5.6749,5.81,5.8919,5.9099,5.9099,5.9099,5.9099,5.9099,5.9099,5.9099,5.9099,5.9099,5.9099,5.9099,5.9428,6.0086,6.0775,6.1463,6.2121,6.278,6.3079,6.3079,6.3079,6.3079,6.3079,6.3079,6.3079,6.3079,6.3079,6.3079,6.3079,6.3079,6.3079,6.3079,6.3079,6.3079,6.3079,6.3079,6.3079,6.3079,6.3079,6.3079,6.3079,6.3079,6.3199,6.3258,6.3109,6.3199,6.3258,6.3109,6.3079,6.3079,6.3079,6.3079,6.3079,6.3079,6.3079,6.3228,6.3677,6.2961,6.2457,6.298,6.2249,6.1797,6.2197,6.2264,6.2131,6.1663,6.1942,6.2935,6.4827,6.5888,6.7295,6.9088,6.9893,7.0277,7.0277,7.0406,7.0848,7.1668,7.1813,7.2159,7.2654,7.3492,7.3821,7.3672,7.433,7.4719,5.5128,5.6497,5.6735,5.5623,5.5252,5.4854,5.3295,5.2732,5.1991,4.9825,5.0046,4.9932,4.7689,4.9057,5.0157,4.8949,4.979,5.0278,4.9394,4.9924,5.1261,5.364,5.4681,5.6249,5.8728,5.9069,5.9099,5.9099,5.9099,5.9099,5.9099,5.9099,5.9099,5.9099,5.9099,5.9099,5.9099,5.9099,5.9428,6.0086,6.0475,6.1014,6.1672,6.2061,6.2361,6.266,6.266,6.281,6.3079,6.3079,6.3079,6.3079,6.3079,6.3079,6.3079,6.3079,6.3079,6.3079,6.3079,6.3079,6.3079,6.3079,6.3079,6.3079,6.3079,6.3079,6.3079,6.3079,6.2763,6.247,6.2965,6.2204,6.1577,6.2819,6.2497,6.2175,6.2933,6.3079,6.3079,6.3079,6.2497,6.2087,6.241,6.1063,6.0171,6.0504,5.9792,5.9332,5.9528,6.0226,6.0435,5.9694,5.9846,6.0853,6.2842,6.3637,6.4884,6.6899,6.787,6.8388,6.8388,6.8764,6.8994,6.9163,6.9518,6.9594,6.9493,7.16,7.2039,7.0952,7.2783,7.3603,5.3402,5.4138,5.4027,5.3241,5.3457,5.3265,5.0901,5.0086,4.8957,4.6128,4.5927,4.5641,4.3457,4.6826,4.9193,4.7043,4.9745,5.18,5.0847,5.1135,5.2532,5.5705,5.5538,5.6418,5.9496,5.922,5.8971,5.9099,5.9099,5.9099,5.9099,5.9099,5.9099,5.9099,5.9099,5.9099,5.9099,5.9099,5.9428,6.0086,6.0086,6.0446,6.1104,6.1104,6.1433,6.1972,6.2061,6.2361,6.2839,6.3019,6.3019,6.2959,6.3049,6.3079,6.3079,6.3079,6.3079,6.3079,6.3079,6.3079,6.3079,6.3079,6.3079,6.3079,6.3079,6.3079,6.3079,6.2817,6.2054,6.1562,6.2322,6.0692,5.9494,6.1967,6.1524,6.093,6.2438,6.2933,6.3079,6.3079,6.1703,6.0508,6.0595,5.8639,5.7146,5.7225,5.6611,5.642,5.6972,5.8414,5.8776,5.7271,5.7148,5.8001,6.0136,6.0387,6.1366,6.355,6.5375,6.6289,6.6316,6.7461,6.7634,6.6597,6.7247,6.6872,6.5324,6.8854,6.9377,6.7147,7.01,7.1495,5.2704,5.2982,5.2666,5.1239,5.0937,5.0314,4.7725,4.7061,4.6062,4.2848,4.3047,4.3326,4.1584,4.3477,4.5555,4.6386,4.7794,4.8849,4.9153,4.928,5.0212,5.2524,5.2715,5.4052,5.7686,5.7916,5.8222,5.9021,5.9099,5.9099,5.9099,5.9099,5.9099,5.9099,5.9099,5.9099,5.9099,5.9099,5.9428,6.0086,6.0086,6.0446,6.1104,6.1104,6.1164,6.1313,6.1852,6.1852,6.1553,6.263,6.275,6.2331,6.2869,6.3079,6.3079,6.3079,6.3079,6.3079,6.3079,6.3079,6.3079,6.3079,6.3079,6.3079,6.3079,6.3079,6.2817,6.1377,6.0837,6.0495,5.9717,5.8828,5.838,5.9339,6.0057,6.06,6.087,6.2086,6.3079,6.3079,6.1703,6.0652,6.12,5.9006,5.7278,5.7821,5.6938,5.642,5.6972,5.7244,5.7569,5.77,5.775,5.8453,6.0161,6.0763,6.1793,6.3576,6.4007,6.4228,6.4228,6.3971,6.4034,6.4509,6.5116,6.5603,6.5915,6.7606,6.8189,6.781,6.8929,6.9412,5.0029,5.0161,4.9928,4.8911,4.9055,4.8564,4.4943,4.4819,4.4242,4.0049,4.0359,4.09,3.9243,4.125,4.3415,4.4145,4.6062,4.7682,4.8234,4.8837,5.0066,5.226,5.2437,5.3555,5.6556,5.657,5.6905,5.8219,5.8065,5.8221,5.9045,5.9099,5.9099,5.9099,5.9099,5.9099,5.9099,5.9099,5.8838,5.83,5.9165,5.9313,5.8855,5.9696,6.0266,6.0595,6.0924,6.1074,6.1194,6.2181,6.2391,6.2151,6.281,6.3079,6.3079,6.3079,6.3079,6.3079,6.3079,6.3079,6.2933,6.2028,6.235,6.3079,6.3079,6.3079,6.2933,6.2086,6.0569,5.9583,6.1073,5.8447,5.6197,5.9451,5.9708,5.9166,5.9166,5.99,6.0477,6.0477,5.9042,5.8016,5.865,5.7394,5.6438,5.7003,5.708,5.7298,5.7851,5.7901,5.8027,5.8303,5.8328,5.8855,6.0211,6.0839,6.1768,6.3149,6.3525,6.3701,6.3701,6.3149,6.2825,6.297,6.3201,6.3467,6.3554,6.544,6.5868,6.4844,6.6484,6.7292,4.7456,4.7556,4.7481,4.7205,4.7857,4.7481,4.3344,4.3338,4.2911,3.8165,3.8232,3.8696,3.7581,3.9695,4.1776,4.2301,4.4719,4.6903,4.7782,4.8786,5.0155,5.2175,5.238,5.3197,5.5387,5.508,5.533,5.6961,5.6565,5.7018,5.8991,5.9099,5.9099,5.9099,5.8743,5.858,5.858,5.8276,5.744,5.6194,5.7496,5.744,5.6251,5.786,5.8847,5.9407,5.9887,6.0326,6.0745,6.1553,6.1792,6.1732,6.2391,6.266,6.266,6.281,6.2869,6.2812,6.2642,6.2555,6.2233,6.0508,6.1407,6.3021,6.2672,6.2817,6.2933,6.2175,6.0327,5.9121,6.1652,5.7907,5.4562,5.9094,5.878,5.756,5.7941,5.8088,5.8198,5.8198,5.6973,5.6065,5.654,5.6143,5.5892,5.6319,5.7248,5.8052,5.8478,5.8654,5.873,5.873,5.873,5.9156,6.0236,6.0738,6.1466,6.2571,6.3199,6.35,6.35,6.3073,6.2571,6.2019,6.2119,6.1918,6.1366,6.3463,6.3747,6.2195,6.4211,6.5161,4.6451,4.6451,4.6577,4.7029,4.7556,4.7079,4.3689,4.3011,4.2007,3.8015,3.6953,3.6928,3.7764,3.8617,4.0028,4.2539,4.3991,4.5573,4.7631,4.846,4.9302,5.0489,5.059,5.1484,5.3651,5.3366,5.3681,5.5303,5.4897,5.5935,5.8936,5.9099,5.9099,5.9099,5.7664,5.6905,5.6905,5.5502,5.4741,5.4623,5.4741,5.4741,5.4682,5.6194,5.6934,5.7134,5.9207,5.9787,5.9398,6.0685,6.0835,6.0326,6.1014,6.1283,6.1373,6.1972,6.2181,6.207,6.1054,6.075,6.048,5.8759,6.0477,6.2817,6.1198,6.1851,6.2438,5.9318,5.9318,5.974,5.7586,5.6067,5.5314,5.5802,5.5775,5.6049,5.7687,5.8355,5.8769,5.8769,5.8134,5.7683,5.7762,5.7226,5.6897,5.6947,5.7499,5.7926,5.7976,5.8403,5.873,5.873,5.873,5.9156,6.0236,6.0362,6.0889,6.2019,6.2596,6.2898,6.2898,6.2847,6.2571,6.2019,6.2496,6.2471,6.1943,6.2633,6.291,6.2747,6.296,6.3042,4.6225,4.6552,4.6853,4.7079,4.728,4.6577,4.3294,4.2233,4.0978,3.7486,3.6832,3.7086,3.7864,3.8492,3.9546,4.1656,4.2911,4.4292,4.6175,4.7481,4.8535,4.9339,5.0017,5.0882,5.2072,5.2049,5.2452,5.3645,5.4178,5.4918,5.6223,5.628,5.6679,5.7608,5.6137,5.5327,5.5327,5.4682,5.391,5.2944,5.391,5.391,5.3005,5.4623,5.5327,5.5414,5.7251,5.7898,5.7751,5.8658,5.9487,5.9981,5.8726,5.8812,5.9625,5.9297,5.9168,5.9134,5.9031,5.898,5.8731,5.7021,5.804,5.99,5.9194,5.9503,5.9777,5.8383,5.7724,5.7706,5.9042,5.853,5.6962,5.4443,5.4176,5.4611,5.5263,5.5841,5.6259,5.6259,5.6098,5.6104,5.677,5.6934,5.7273,5.7951,5.8252,5.8403,5.8403,5.8579,5.873,5.873,5.9006,5.9508,6.0261,6.0311,6.0814,6.1943,6.2521,6.2822,6.2822,6.3174,6.2923,6.2019,6.2546,6.2546,6.1994,6.2546,6.2822,6.2822,6.2822,6.2822,4.5924,4.6602,4.7179,4.733,4.7129,4.61,4.3087,4.1731,4.0249,3.7285,3.6958,3.7412,3.814,3.8718,3.9597,4.105,4.2258,4.3614,4.5472,4.6853,4.7958,4.8686,4.9464,5.0167,5.072,5.0921,5.1518,5.2697,5.2925,5.3368,5.4327,5.3489,5.391,5.5964,5.4505,5.367,5.367,5.3187,5.242,5.133,5.242,5.242,5.133,5.2944,5.367,5.379,5.5327,5.6022,5.605,5.6563,5.7398,5.8226,5.6423,5.6413,5.7357,5.6809,5.6741,5.6927,5.694,5.7077,5.6984,5.5247,5.5512,5.6493,5.6493,5.7176,5.7878,5.7369,5.6699,5.6871,5.973,5.9968,5.8493,5.4811,5.421,5.4403,5.4049,5.4411,5.4813,5.4813,5.5064,5.5591,5.6545,5.7173,5.7801,5.8604,5.873,5.8604,5.8278,5.8504,5.8654,5.8504,5.9081,5.9659,6.0035,6.0236,6.0663,6.1466,6.2044,6.2496,6.2822,6.3224,6.3073,6.227,6.2621,6.2546,6.1994,6.2722,6.3099,6.3099,6.3099,6.2998,4.5347,4.6301,4.7255,4.7782,4.7104,4.5723,4.3489,4.1706,3.9898,3.7638,3.7186,3.7538,3.8693,3.932,4.0049,4.11,4.2258,4.3765,4.5974,4.6778,4.7556,4.8636,4.8786,4.9012,4.9565,5.0117,5.1085,5.2644,5.087,5.1042,5.4208,5.1393,5.1105,5.4327,5.2883,5.2024,5.2024,5.0436,4.9654,4.9654,4.9654,4.9654,4.9654,5.1268,5.2024,5.2086,5.373,5.4386,5.4386,5.4414,5.4473,5.4473,5.4414,5.4414,5.4556,5.5109,5.5657,5.6046,5.5008,5.501,5.5181,5.3495,5.2929,5.2929,5.2929,5.534,5.7624,5.5945,5.6634,5.8005,5.8005,5.9256,5.9768,5.6956,5.625,5.5961,5.4834,5.4988,5.539,5.539,5.6269,5.7198,5.7775,5.8353,5.8704,5.873,5.873,5.8328,5.7198,5.8027,5.8504,5.7976,5.8855,5.9483,5.9508,6.001,6.0337,6.0337,6.0889,6.1692,6.2797,6.2847,6.2822,6.2822,6.2822,6.2546,6.1994,6.3149,6.3676,6.3676,6.3676,6.3375,4.3218,4.4568,4.5874,4.5246,4.4844,4.4116,4.2283,4.0877,3.9421,3.7563,3.7789,3.8442,3.8844,3.932,4.03,4.2158,4.2434,4.3313,4.5949,4.6778,4.738,4.8109,4.954,5.0695,5.1272,5.1122,5.1261,5.1736,5.0442,5.0014,5.1042,5.0142,5.0563,5.27,5.1205,5.0372,5.0372,4.9822,4.959,4.959,4.959,4.959,4.959,5.0142,5.0372,5.0436,5.2051,5.2761,5.2761,5.2761,5.3429,5.4149,5.1989,5.1803,5.2719,5.2145,5.2297,5.2828,5.2895,5.3215,5.3606,5.3042,5.2929,5.2929,5.2929,5.37,5.4392,5.3878,5.4942,5.6206,5.6206,5.6634,5.6898,5.6425,5.5735,5.5115,5.5131,5.5566,5.5942,5.5942,5.6244,5.6646,5.7223,5.7449,5.77,5.8102,5.8152,5.7876,5.7123,5.77,5.8227,5.8453,5.9081,5.9809,6.0588,6.0085,6.0236,6.1391,6.1291,6.1517,6.2245,6.2621,6.2822,6.2822,6.3224,6.3324,6.3149,6.3877,6.4028,6.3676,6.3299,6.2797,4.163,4.3162,4.4367,4.3664,4.3187,4.2509,4.1053,3.9697,3.8517,3.7663,3.8065,3.8668,3.9094,3.9647,4.0526,4.2108,4.2409,4.3363,4.5949,4.6778,4.7405,4.8159,4.9464,5.0645,5.1398,5.1172,5.1046,5.1272,5.0419,4.9816,4.9615,4.959,5.0078,5.1079,5.0142,4.959,4.959,4.959,4.959,4.959,4.959,4.959,4.959,4.959,4.959,4.9654,5.0664,5.1079,0.0,5.1079,5.1678,5.2359,5.0372,5.0181,5.1005,5.033,5.0469,5.1046,5.1599,5.2151,5.2653,5.2854,5.2929,5.2929,5.2929,5.2929,5.2929,5.2929,5.4122,5.5419,5.5419,5.588,5.6394,5.6583,5.6089,5.5561,5.566,5.5968,5.6219,5.6219,5.6219,5.6394,5.6947,5.7022,5.7223,5.7801,5.7901,5.7775,5.7399,5.7675,5.8102,5.8654,5.9006,5.9734,6.1065,6.0136,5.9935,6.0989,6.0939,6.119,6.1969,6.2546,6.2923,6.3149,6.35,6.3701,6.3701,6.4228,6.4304,6.3977,6.3425,6.2747,0.0,4.1882,4.2735,4.2635,4.1882,4.0902,3.9873,3.8417,0.0,3.7965,3.809,3.8467,3.9597,4.0095,4.0567,4.1401,4.2323,4.3751,4.605,4.6878,4.7682,4.8812,4.8937,4.9389,5.0494,5.0569,5.077,5.1297,5.0795,5.0243,4.969,4.9665,4.964,4.959,4.959,4.959,4.959,4.959,4.959,4.959,4.959,4.959,4.959,4.959,4.959,4.959,4.959,4.959,4.959,4.959,4.959,4.959,4.959,4.959,4.959,4.959,4.9941,5.0494,5.1071,5.1649,5.2201,5.2754,5.2929,5.2929,5.2929,5.2929,5.2929,5.2929,5.4055,5.5221,5.5353,5.6531,5.754,5.7168,5.6983,5.6773,5.6305,5.6219,5.6219,5.6219,5.6219,5.6369,5.6897,5.6972,5.7148,5.77,5.7851,5.7876,5.7851,5.7876,5.8127,5.8704,5.8755,5.9382,6.104,6.0186,5.9583,5.9608,6.0111,6.0864,6.1969,6.2546,6.3149,6.3802,6.3802,6.3802,6.3802,6.4228,6.4404,6.4404,6.3827,6.2998,3.7889,0.0,4.0249,3.9396,3.932,3.9371,0.0,3.8768,3.8567,3.8642,3.8994,3.9647,4.0752,3.9668,3.9801,4.3237,4.306,4.3525,4.6495,4.7782,4.8962,5.0519,5.0695,5.1122,5.2226,5.195,5.1774,5.19,5.1398,5.082,5.0243,5.0218,5.0017,4.9615,4.959,4.959,4.959,4.959,4.959,4.959,4.959,4.959,4.959,4.959,4.959,4.959,4.959,4.959,4.959,4.959,4.959,4.959,4.959,4.959,4.959,4.959,4.9941,5.0494,5.1071,5.1649,5.2201,5.2754,5.2929,5.2929,5.2929,5.2929,5.2929,5.2929,5.3179,5.381,5.5049,5.4742,5.4609,5.6652,5.6141,5.5406,5.604,5.6219,5.6219,5.6219,5.6219,5.6244,5.6394,5.642,5.6445,5.6595,5.7349,5.7725,5.7298,5.7625,5.8252,5.9207,5.8956,5.9382,6.104,6.0537,6.0311,6.0763,6.0914,6.1291,6.1969,6.2546,6.3475,6.4881,6.4906,6.4906,6.4906,6.4228,6.3877,6.3852,6.2847,6.2044,3.6782,3.804,3.917,3.8567,3.8642,3.8919,3.8919,3.8517,3.8241,3.8818,3.912,3.9647,4.0752,4.0631,4.1194,4.3826,4.4363,4.5416,4.7908,4.9213,5.0167,5.082,5.1122,5.1523,5.2126,5.19,5.1825,5.2076,5.1825,5.1297,5.0469,5.0419,5.0167,4.9615,4.959,4.959,4.959,4.959,4.959,4.959,4.959,4.959,4.959,4.959,4.959,4.959,4.959,4.959,4.959,4.959,4.959,4.959,4.959,4.959,4.959,4.959,4.9791,5.0117,5.0695,5.1423,5.2201,5.2754,5.2929,5.2929,5.2929,5.2929,5.2929,5.2929,5.2929,5.311,5.3987,5.3538,5.3337,5.5134,5.5039,5.4787,5.5641,5.6043,5.6219,5.6219,5.6219,5.6219,5.6219,5.6219,5.6294,5.6545,5.7123,5.7575,5.7775,5.7625,5.8001,5.9357,5.9257,5.9759,6.1416,6.1517,6.1391,6.119,6.1416,6.1818,6.2345,6.2923,6.3751,6.4881,6.5157,6.5157,6.4906,6.4078,6.3701,6.3676,6.2521,6.1718,3.632,3.7692,3.8964,3.8366,3.8341,3.8466,3.8466,3.7717,3.7417,3.8768,3.912,3.9546,4.0902,4.2043,4.308,4.4109,4.5899,4.7707,4.9364,5.0419,5.087,5.0469,5.0845,5.1222,5.1398,5.1398,5.1624,5.2176,5.2151,5.1649,5.0594,5.0393,5.0042,4.949,4.9464,4.9464,4.9464,4.9565,4.959,4.959,4.959,4.959,4.959,4.959,4.959,4.959,4.959,4.959,4.959,4.959,4.959,4.959,4.959,4.959,4.959,4.959,4.959,4.969,5.0318,5.1222,5.2176,5.2653,5.2854,5.2904,5.2729,5.2729,5.2804,5.2804,5.2854,5.2929,5.2929,5.2929,5.3055,5.3582,5.4084,5.4587,5.5139,5.5616,5.5993,5.6068,5.6093,5.6118,5.6194,5.6219,5.6369,5.6846,5.6972,5.7424,5.8453,5.7675,5.7675,5.9307,5.9558,6.0236,6.1743,6.2546,6.2496,6.1391,6.1743,6.2295,6.2923,6.3676,6.4228,6.458,6.4982,6.4881,6.4354,6.3827,6.355,6.3525,6.2395,6.1667,3.5783,3.7954,3.911,3.5879,3.5759,3.6435,3.6435,3.6314,3.6812,3.9116,3.9948,4.1028,4.3539,4.2732,4.2729,4.6035,4.6903,4.7707,4.9364,4.9741,4.9992,5.0368,5.0494,5.0921,5.1875,5.1975,5.2201,5.2754,5.2377,5.1825,5.1197,5.0243,4.9464,4.8912,4.8887,4.8887,4.8887,4.9364,4.959,4.959,4.959,4.959,4.959,4.959,4.959,4.959,4.959,4.959,4.959,4.959,4.959,4.959,4.959,4.959,4.959,4.959,4.959,4.9741,5.0795,5.1574,5.2126,5.2201,5.2553,5.2754,5.1825,5.185,5.2226,5.2226,5.2578,5.2929,5.2929,5.2929,5.3055,5.3582,5.3758,5.3984,5.4561,5.4762,5.4963,5.5415,5.5516,5.5666,5.6118,5.6219,5.6244,5.6319,5.6746,5.7273,5.7926,5.7449,5.7675,5.9307,5.991,6.0487,6.124,6.2697,6.3073,6.1943,6.1943,6.2471,6.3525,6.4957,6.5559,6.5183,6.4781,6.4329,6.3802,6.3249,6.2948,6.2923,6.1818,6.1517,3.3857,3.5531,3.6858,3.5792,3.7762,3.9787,3.8997,3.8339,3.8251,3.915,4.0326,4.1662,4.3368,4.4108,4.5428,4.8409,4.8661,4.8837,4.9891,5.0318,5.0494,5.0419,5.0695,5.0971,5.1172,5.1197,5.1423,5.2,5.18,5.1423,5.0845,5.0042,4.9339,4.8786,4.846,4.846,4.8761,4.9012,4.9289,4.959,4.959,4.959,4.959,4.959,4.959,4.959,4.959,4.959,4.959,4.959,4.959,4.959,4.959,4.959,4.959,4.959,4.959,4.9715,5.0519,5.0971,5.1247,5.1548,5.1825,5.195,5.1448,5.1674,5.2101,5.2101,5.2277,5.2553,5.2854,5.2929,5.298,5.3231,5.3507,5.3783,5.4034,5.4587,5.5089,5.534,5.5616,5.5917,5.6168,5.6219,5.6219,5.6219,5.642,5.6796,5.7349,5.7198,5.7549,5.893,6.0111,6.1014,6.1567,6.2596,6.2873,6.2044,6.2571,6.3149,6.3676,6.4957,6.5409,6.4856,6.4329,6.3776,6.3224,6.2948,6.2822,6.2797,6.1692,6.1492,3.2163,3.3431,3.4958,3.6048,3.8925,4.1591,4.1719,4.0345,3.9232,3.9931,4.1245,4.2409,4.2857,4.5199,4.7731,4.9877,4.9766,4.959,5.0142,5.0619,5.072,5.0268,5.0619,5.077,5.0444,5.0419,5.067,5.1247,5.1147,5.0896,5.0444,4.9766,4.9138,4.8586,4.8134,4.8058,4.8385,4.8636,4.9063,4.959,4.959,4.959,4.959,4.959,4.959,4.959,4.959,4.959,4.959,4.959,4.959,4.959,4.959,4.959,4.959,4.959,4.959,4.9665,5.0218,5.0419,5.0494,5.0946,5.1172,5.1222,5.0971,5.1373,5.1925,5.1925,5.2,5.2226,5.2779,5.2929,5.2929,5.2929,5.3231,5.3557,5.3683,5.4386,5.5064,5.534,5.5717,5.6068,5.6194,5.6219,5.6219,5.6219,5.6219,5.642,5.6972,5.7022,5.7474,5.8604,6.0186,6.1466,6.2144,6.222,6.2169,6.2019,6.3073,6.3576,6.3299,6.458,6.4982,6.4304,6.3902,6.34,6.2822,6.2697,6.2647,6.2596,6.1492,6.1341,3.1753,3.3527,3.5211,3.5731,3.5991,3.7336,4.2136,4.02,3.8432,4.2288,4.3616,4.3846,4.3174,4.5126,4.7454,4.9357,4.9188,4.9012,4.9565,4.969,4.9715,4.9665,4.969,4.9891,5.0368,5.0419,5.067,5.1247,5.077,5.0469,5.0419,4.9414,4.856,4.7983,4.7933,4.7682,4.7255,4.8259,4.9063,4.959,4.959,4.959,4.959,4.959,4.959,4.959,4.959,4.959,4.959,4.959,4.959,4.959,4.959,4.959,4.959,4.959,4.959,4.9665,5.0218,5.0419,5.0419,5.0469,5.0845,5.1096,5.0042,5.0469,5.1348,5.1348,5.1699,5.2226,5.2779,5.2929,5.2929,5.2929,5.2955,5.3105,5.3607,5.3758,5.4135,5.5189,5.5415,5.5616,5.6118,5.6219,5.6219,5.6219,5.6219,5.642,5.6972,5.7022,5.7474,5.8604,6.0186,6.1617,6.2672,6.1366,6.0939,6.1943,6.3073,6.3224,6.2169,6.4153,6.4806,6.3776,6.3701,6.34,6.2822,6.232,6.2069,6.2044,6.0914,6.0964,2.9568,3.1475,3.3677,3.5339,3.6036,3.7385,4.1331,4.0231,3.9259,4.2043,4.3915,4.5412,4.6873,4.7495,4.8122,4.9432,4.9414,4.9364,4.9565,4.959,4.959,4.959,4.8542,4.842,4.9736,4.8838,4.8739,5.0152,5.0017,4.9916,4.9916,4.9188,4.8661,4.846,4.6732,4.591,4.6032,4.5063,4.4995,4.5751,4.833,4.959,4.959,4.959,4.9414,4.9113,4.9439,4.9389,4.9113,4.9464,4.959,4.959,4.959,4.959,4.959,4.959,4.959,4.9615,4.9841,4.9916,4.9916,4.9916,5.0067,5.0142,4.9715,5.0142,5.082,5.1172,5.1674,5.2226,5.2779,5.2929,5.2929,5.2929,5.2929,5.308,5.3582,5.3984,5.4461,5.5239,5.5666,5.5968,5.6168,5.6219,5.6219,5.6219,5.6219,5.6294,5.6495,5.7148,5.7876,5.8629,6.0186,6.1341,6.1768,6.1542,6.1391,6.1492,6.2546,6.3124,6.3048,6.4153,6.4429,6.3701,6.335,6.2873,6.232,6.2094,6.1843,6.1466,6.0688,6.0914,2.9316,3.0801,3.2927,3.5067,3.5829,3.6999,4.0675,4.0392,3.9956,4.2303,4.3294,4.4634,4.7973,4.7682,4.7362,4.8714,4.9302,4.959,4.959,4.9112,4.8698,4.8698,4.7088,4.6489,4.7731,4.7245,4.7353,4.8608,4.9242,4.959,4.959,4.9238,4.8682,4.7972,4.6062,4.4759,4.4308,4.2889,4.2457,4.2973,4.6019,4.7515,4.762,4.779,4.7499,4.6972,4.801,4.8194,4.7813,4.8896,4.9439,4.959,4.959,4.959,4.959,4.959,4.959,4.959,4.959,4.959,4.959,4.959,4.9177,4.8698,4.8698,4.8771,4.898,4.9174,4.9757,5.0551,5.1763,5.2491,5.298,5.313,5.3181,5.3356,5.4084,5.4536,5.4988,5.5541,5.5968,5.6219,5.6219,5.6219,5.6219,5.6219,5.6219,5.6219,5.6219,5.7198,5.8303,5.9382,6.0186,6.0864,6.1391,6.1291,6.1341,6.1692,6.2245,6.2747,6.3149,6.3852,6.3977,6.3425,6.3023,6.2546,6.1994,6.1843,6.1466,6.0889,6.0337,6.0563,3.1504,3.2148,3.3223,3.4941,3.4746,3.5409,4.0355,4.0445,4.036,4.3455,4.1852,4.1183,4.5427,4.5032,4.4846,4.7153,4.8648,4.959,4.959,4.7994,4.6798,4.6798,4.5186,4.4116,4.4116,4.5727,4.6732,4.6798,4.8477,4.9525,4.9525,4.9525,4.8451,4.6043,4.593,4.4627,4.179,4.2325,4.2325,4.1986,4.25,4.2995,4.3444,4.387,4.3601,4.288,4.5038,4.5776,4.5557,4.7852,4.9088,4.959,4.959,4.9525,4.9525,4.959,4.959,4.959,4.959,4.959,4.959,4.959,4.8257,4.6798,4.6822,4.6242,4.5483,4.506,4.5643,4.6951,4.9487,5.1537,5.2986,5.3582,5.3708,5.4009,5.5139,5.539,5.5541,5.6118,5.6219,5.6146,5.6146,5.612,5.6146,5.6146,5.6146,5.6219,5.6244,5.7223,5.8755,6.0939,6.0186,6.0186,6.1843,6.0487,6.0462,6.2672,6.232,6.2019,6.2019,6.3099,6.3425,6.2847,6.2822,6.2546,6.1994,6.1441,6.0889,6.0286,5.9759,5.9809,2.9863,3.2109,3.4453,3.375,3.5644,3.7975,3.9194,3.9134,3.9795,4.3034,4.1892,4.1525,4.5471,4.4728,4.4414,4.7045,4.7849,4.8457,4.9446,4.9112,4.8281,4.6955,4.5186,4.4116,4.4116,4.3404,4.3451,4.4778,4.5412,4.575,4.575,4.575,4.5411,4.4709,4.308,4.1733,4.0654,3.9197,3.8371,3.8248,3.8439,4.0049,4.2972,4.3107,4.2837,4.2298,4.3596,4.3771,4.3234,4.5899,4.7247,4.7641,4.7641,4.6822,4.5885,4.7154,4.7641,4.7839,4.9177,4.8763,4.7641,4.7641,4.6422,4.4983,4.5256,4.5159,4.5099,4.5636,4.6016,4.6586,4.8077,4.8818,5.0073,5.3499,5.431,5.4511,5.5239,5.539,5.5541,5.6118,5.5041,5.4025,5.4025,5.2798,5.2319,5.3801,5.434,5.5426,5.7625,5.893,5.9859,6.0512,6.0989,6.1316,6.1416,6.1667,6.1943,6.2245,6.2847,6.3199,6.3199,6.3525,6.3425,6.2847,6.2822,6.237,6.1441,6.1266,6.0688,5.9734,5.996,6.0387,3.2402,3.4531,3.6523,3.5996,3.7285,3.8769,3.9043,3.9355,4.018,4.2145,4.1446,4.1234,4.373,4.3531,4.358,4.5284,4.6656,4.7734,4.842,4.7863,4.6979,4.5862,4.3473,4.1912,4.1912,4.1538,4.1749,4.2918,4.3703,4.4116,4.4116,4.4116,4.3772,4.2988,4.1614,4.0285,3.8991,3.7659,3.6738,3.6406,3.6406,3.7718,4.0088,4.0451,4.0281,3.9704,4.093,4.1794,4.2365,4.4098,4.5166,4.5727,4.5727,4.505,4.4231,4.5321,4.5727,4.5862,4.7046,4.6689,4.5727,4.5727,4.4505,4.3053,4.3267,4.307,4.2882,4.3316,4.3774,4.4592,4.6148,4.6723,4.7818,5.155,5.306,5.3812,5.4353,5.5183,5.5574,5.5066,5.412,5.3034,5.2037,5.0921,5.0601,5.1731,5.2994,5.4823,5.7393,5.884,6.001,6.0889,6.0989,6.114,6.1492,6.1517,6.1642,6.1994,6.2446,6.2898,6.3324,6.335,6.3174,6.2847,6.2822,6.2395,6.1517,6.1517,6.104,6.0161,6.0512,6.0839,3.6934,3.8008,3.8848,3.9961,3.9121,3.8359,3.9609,4.0527,4.1113,4.1113,4.084,4.0703,4.1094,4.1892,4.2522,4.2565,4.5121,4.7014,4.6827,4.5389,4.4299,4.4116,4.1134,3.8991,3.8647,4.0085,4.1063,4.1063,4.2661,4.3634,4.3634,4.3634,4.2801,4.1134,4.1063,3.9891,3.7363,3.7324,3.6894,3.6074,3.6035,3.6016,3.6055,3.6875,3.6855,3.626,3.775,3.9944,4.2482,4.2393,4.295,4.3818,4.3818,4.3749,4.3634,4.3772,4.3818,4.391,4.4047,4.3978,4.3818,4.3818,4.2591,4.1063,4.1167,4.0598,3.9824,3.9531,4.0293,4.1776,4.4096,4.5075,4.5962,4.8333,5.0536,5.2206,5.2679,5.4274,5.5041,5.3175,5.2923,5.2372,5.0076,4.9873,4.9971,4.9875,5.2031,5.4318,5.5969,5.7585,5.9376,6.1642,6.0537,6.0236,6.1718,6.0487,6.0286,6.1768,6.1492,6.1718,6.2722,6.2797,6.2822,6.2822,6.2822,6.2546,6.1994,6.1994,6.1718,6.119,6.124,6.1266,3.3867,3.6191,3.8476,3.8086,3.8457,3.9101,3.9746,4.0293,4.0664,4.0664,4.0859,4.1055,4.1152,4.1383,4.1751,4.247,4.3188,4.4374,4.6516,4.6465,4.5659,4.4231,4.3426,4.1749,3.8846,3.8918,3.9188,3.9188,3.955,3.9746,3.9746,3.9746,3.9622,3.9188,3.9188,3.8734,3.7793,3.7461,3.7031,3.6523,3.6191,3.6016,3.6035,3.6562,3.707,3.7461,3.6858,3.8473,4.1529,4.0874,4.113,4.189,4.189,4.1063,3.9962,4.1418,4.189,4.2101,4.3565,4.3127,4.189,4.189,4.0636,3.9327,3.9969,4.0026,4.0078,4.0996,4.1445,4.1915,4.314,4.3558,4.4281,4.6674,4.8894,5.0571,5.0662,5.1016,5.1247,5.0762,4.9371,4.815,4.7587,4.6225,4.5943,4.8344,5.0851,5.3348,5.588,5.6877,5.8221,6.0455,6.0763,6.0788,6.0688,6.0763,6.0788,6.0688,6.1391,6.1943,6.2169,6.2596,6.2822,6.2822,6.2822,6.2546,6.1994,6.1994,6.1718,6.119,6.1617,6.1818,3.4805,3.6875,3.8574,3.8555,3.9043,3.9531,3.9551,4.0059,4.0527,4.0527,4.0879,4.1172,4.1172,4.1172,4.1324,4.1575,4.2142,4.3018,4.4311,4.4297,4.3796,4.2849,4.1961,4.0728,3.8793,3.8574,3.8574,3.8574,3.8574,3.8574,3.8574,3.8574,3.8574,3.8574,3.8574,3.8359,3.793,3.75,3.709,3.666,3.623,3.6133,3.6328,3.6348,3.6719,3.7285,3.6621,3.7589,3.9688,3.9445,3.9627,4.0054,4.0185,3.9585,3.872,3.9674,4.0033,4.0157,4.1134,4.085,4.0033,4.0033,3.9333,3.8691,3.9355,3.9726,4.0117,4.1191,4.1797,4.2246,4.291,4.3223,4.3991,4.6262,4.7645,4.8733,4.9752,4.9986,4.9674,4.8676,4.7757,4.6798,4.5779,4.4929,4.4971,4.6767,4.911,5.1713,5.4648,5.5926,5.7638,6.0426,6.0512,6.0362,6.0311,6.0588,6.0638,6.0337,6.1391,6.1994,6.1994,6.2546,6.2822,6.2822,6.2822,6.2697,6.2395,6.2395,6.2245,6.1969,6.227,6.2395,3.6035,3.7617,3.8594,3.9629,3.9844,3.9668,3.9297,3.9766,4.0332,4.0488,4.0879,4.1172,4.1172,4.1172,4.1035,4.0586,4.1514,4.2251,4.2135,4.1737,4.1465,4.1473,4.0063,3.8997,3.8647,3.8574,3.8574,3.8574,3.8574,3.8574,3.8574,3.8574,3.8574,3.8574,3.8574,3.8359,3.793,3.75,3.709,3.666,3.623,3.6211,3.6543,3.6191,3.6289,3.6777,3.6699,3.7148,3.7969,3.8398,3.8574,3.8613,3.9043,3.8945,3.8574,3.8574,3.8574,3.8574,3.8574,3.8574,3.8574,3.8574,3.8633,3.8769,3.9199,3.9687,4.0293,4.1152,4.1953,4.2637,4.3066,4.3437,4.4268,4.6405,4.6566,4.6867,4.8991,4.9126,4.8417,4.6626,4.6616,4.6393,4.4808,4.4863,4.5254,4.5625,4.7293,4.9744,5.3142,5.473,5.6973,6.0551,5.9722,5.9114,5.9562,5.9346,5.9157,5.9157,6.0193,6.0972,6.1403,6.1925,6.2388,6.2822,6.2822,6.2822,6.2822,6.2923,6.2973,6.2973,6.2973,6.2973,3.2695,3.5156,3.7851,3.9492,3.959,3.9277,3.9219,3.9297,3.959,4.0351,4.0879,4.1172,4.1172,4.1172,4.1035,4.0586,4.0698,4.1218,4.2324,4.2491,4.2303,4.1905,4.1647,4.0729,3.8812,3.8574,3.8574,3.8574,3.8574,3.8574,3.8574,3.8574,3.8574,3.8574,3.8574,3.8359,3.793,3.75,3.709,3.666,3.623,3.6055,3.6094,3.6035,3.6465,3.7187,3.6836,3.7148,3.7969,3.8398,3.8574,3.8613,3.9043,3.8945,3.8574,3.8574,3.8574,3.8574,3.8574,3.8574,3.8574,3.8574,3.8828,3.9199,3.9668,4.0371,4.1172,4.2031,4.2617,4.3086,4.3516,4.3672,4.4268,4.6304,4.5434,4.4658,4.6786,4.5839,4.4494,4.4186,4.4478,4.4828,4.4883,4.5293,4.5605,4.5664,4.6237,4.8163,5.2431,5.3213,5.4951,5.9295,5.7868,5.6662,5.6734,5.5334,5.4493,5.4493,5.5426,5.6821,5.8878,5.9464,6.0719,6.2741,6.2822,6.2822,6.2822,6.3324,6.3576,6.3576,6.3576,6.3576,3.3262,3.5957,3.8379,3.9883,3.9922,3.9512,3.9258,3.9199,3.9394,4.0039,4.0508,4.0879,4.1133,4.1172,4.1113,4.0918,4.0684,4.0735,4.1349,4.1237,4.1016,4.0834,4.0572,4.0058,3.9019,3.8711,3.8574,3.8574,3.8574,3.8574,3.8574,3.8574,3.8574,3.8574,3.8574,3.8359,3.793,3.75,3.6973,3.6309,3.6113,3.6016,3.6016,3.6016,3.6367,3.6953,3.7012,3.7363,3.7969,3.8652,3.8789,3.8613,3.9043,3.8945,3.8574,3.8574,3.8574,3.8574,3.8574,3.8574,3.8613,3.8848,3.9062,3.9336,4.0039,4.0684,4.1348,4.2187,4.2734,4.3183,4.3594,4.3711,4.4268,4.6304,4.521,4.4189,4.6052,4.4825,4.3418,4.3652,4.4277,4.4883,4.5312,4.5742,4.6035,4.6035,4.6191,4.7468,5.061,5.103,5.226,5.547,5.516,5.4751,5.4751,5.4546,5.4293,5.3918,5.4919,5.5839,5.6505,5.8348,5.9751,6.0803,6.2117,6.2822,6.2822,6.34,6.3701,6.3701,6.2352,6.1715,3.3184,3.5488,3.7246,3.9219,3.9551,3.9394,3.9375,3.9375,3.9512,3.9961,4.0312,4.0664,4.1094,4.1172,4.1172,4.1172,4.0898,4.0684,4.0684,4.043,4.0176,4.0078,3.9648,3.9336,3.9219,3.8828,3.8574,3.8574,3.8574,3.8574,3.8574,3.8574,3.8574,3.8574,3.8574,3.8359,3.793,3.7402,3.6758,3.6016,3.6016,3.6016,3.6016,3.6133,3.6367,3.6699,3.7109,3.7539,3.7988,3.8848,3.9023,3.8769,3.9199,3.9121,3.873,3.873,3.8672,3.8574,3.8574,3.8574,3.8652,3.9062,3.9277,3.9551,4.043,4.1074,4.1641,4.2383,4.291,4.3301,4.3633,4.3711,4.4103,4.5677,4.4822,4.4005,4.5308,4.424,4.3242,4.3769,4.4512,4.5156,4.5605,4.6016,4.6308,4.6308,4.6308,4.7141,4.9297,4.9616,5.0484,5.2852,5.2852,5.2781,5.2913,5.3082,5.3061,5.2715,5.3581,5.4237,5.4367,5.6432,5.784,5.8436,6.0135,6.1622,6.2822,6.355,6.3627,6.2909,6.1207,6.0048,3.0391,3.1504,3.2793,3.6523,3.7754,3.834,3.957,3.9863,3.998,4.041,4.0508,4.0664,4.1094,4.1172,4.1172,4.1172,4.1152,4.1133,4.1133,4.1113,4.0957,4.0547,4.0117,3.9687,3.9238,3.8828,3.8574,3.8574,3.8574,3.8574,3.8574,3.8574,3.8574,3.8574,3.8574,3.8359,3.793,3.7109,3.6484,3.6016,3.6016,3.6016,3.6035,3.6445,3.6641,3.6699,3.7109,3.7539,3.7988,3.8848,3.9199,3.9219,3.9668,3.957,3.916,3.916,3.8926,3.8574,3.8574,3.8574,3.8652,3.9062,3.9492,4.0019,4.0879,4.1719,4.2461,4.291,4.334,4.3672,4.3691,4.3711,4.3711,4.3856,4.3793,4.3691,4.3837,4.3441,4.334,4.4199,4.4726,4.5156,4.5605,4.6016,4.6308,4.6308,4.6308,4.7141,4.9297,4.9616,5.0612,5.3237,5.1636,5.0563,5.1005,4.951,4.8547,4.8527,4.896,5.0256,5.2434,5.2703,5.3771,5.5943,5.614,5.8398,6.2822,6.3902,6.326,6.0939,6.0939,5.9698,2.9902,3.1172,3.2539,3.5019,3.6582,3.7715,3.8457,3.9277,4.0019,4.043,4.0312,4.0254,4.0684,4.0976,4.1172,4.1172,4.1172,4.1172,4.1172,4.1172,4.1113,4.0957,4.0332,3.9824,3.9668,3.9004,3.8574,3.8574,3.8574,3.8574,3.8574,3.8574,3.8574,3.8574,3.8574,3.8359,3.793,3.7363,3.6855,3.6445,3.6445,3.6445,3.6445,3.6601,3.6973,3.748,3.7637,3.7793,3.7988,3.8848,3.9199,3.9258,3.9726,3.9609,3.9199,3.9199,3.8945,3.8574,3.8574,3.8574,3.8652,3.9062,3.9687,4.041,4.0996,4.1953,4.2871,4.3027,4.3379,4.3711,4.3711,4.3711,4.3789,4.4082,4.3711,4.3457,4.4023,4.3789,4.3574,4.3887,4.4316,4.4844,4.5547,4.5801,4.5996,4.6269,4.6308,4.6551,4.7381,4.7708,4.8278,4.9184,4.9033,4.9011,4.9172,4.8815,4.8633,4.8633,4.8769,4.9308,5.0094,5.1597,5.2813,5.3593,5.538,5.7918,6.117,6.0285,6.0346,6.1201,5.7916,5.5723,2.8613,2.9766,3.1231,3.332,3.4609,3.5879,3.7891,3.8809,3.9531,4.0527,4.0527,4.041,4.0684,4.0976,4.1133,4.0976,4.0957,4.1016,4.1152,4.1172,4.1172,4.1172,4.041,3.9902,3.9902,3.9101,3.8574,3.8574,3.8574,3.8574,3.8574,3.8574,3.8574,3.8574,3.8574,3.8359,3.793,3.7637,3.7305,3.6875,3.6875,3.6875,3.6894,3.7031,3.7402,3.793,3.8086,3.8144,3.8203,3.8906,3.9297,3.9473,3.9922,3.9824,3.9434,3.9434,3.9062,3.8574,3.8574,3.8574,3.8672,3.9258,3.9922,4.0664,4.1367,4.2285,4.3105,4.3242,4.3496,4.3711,4.3711,4.3711,4.3789,4.4082,4.3711,4.3457,4.4043,4.3808,4.3535,4.3672,4.4082,4.4629,4.5332,4.5586,4.582,4.623,4.6308,4.6348,4.6504,4.6758,4.7031,4.7324,4.7871,4.8262,4.8418,4.8555,4.8633,4.8633,4.8516,4.8418,4.8418,5.0045,5.101,5.101,5.2935,5.5201,5.7823,5.7624,5.8098,5.902,5.5479,5.2882,0.0,0.0,0.0,3.1368,3.1758,3.2793,3.7851,3.8379,3.8437,4.0644,4.1074,4.1074,4.1152,4.1152,4.0996,4.0586,4.0527,4.0684,4.1113,4.1172,4.1172,4.1172,4.041,3.9902,3.9902,3.9101,3.8574,3.8574,3.8574,3.8574,3.8574,3.8574,3.8574,3.8574,3.8574,3.8379,3.7949,3.7949,3.7734,3.7324,3.7324,3.7324,3.7324,3.7734,3.793,3.7969,3.8398,3.8574,3.8633,3.9043,3.9492,3.9961,4.0371,4.0273,3.9922,3.9902,3.9336,3.8594,3.8574,3.8594,3.875,3.9609,4.0195,4.082,4.2051,4.2734,4.3183,4.3594,4.3711,4.3711,4.373,4.3711,4.3711,4.373,4.373,4.3711,4.373,4.3398,4.3223,4.3633,4.4062,4.4512,4.4961,4.5371,4.5801,4.623,4.6308,4.6465,4.6875,4.6953,4.7285,4.8125,4.8223,4.8398,4.8828,4.8457,4.8203,4.8203,4.7812,4.7578,4.7578,4.7969,4.8183,4.8183,4.8613,5.0294,5.3016,5.6206,5.6574,5.4287,5.3805,5.1473,2.6934,0.0,0.0,0.0,0.0,0.0,3.3574,3.4648,3.5918,3.8711,3.8809,3.8848,4.041,4.0449,4.0312,4.0488,4.0781,4.1035,4.1152,4.1172,4.1172,4.1172,4.041,3.9902,3.9902,3.9101,3.8574,3.8574,3.8574,3.8574,3.8574,3.8574,3.8574,3.8574,3.8574,3.8516,3.8398,3.8398,3.8184,3.7754,3.7754,3.7754,3.7754,3.7871,3.8105,3.8398,3.8516,3.875,3.9062,3.9512,3.9961,4.0391,4.082,4.0723,4.0312,4.0019,3.9531,3.8984,3.8691,3.8984,3.957,3.9824,4.0801,4.1973,4.2324,4.2949,4.3555,4.3672,4.3711,4.3789,4.4121,4.3965,4.3867,4.4512,4.416,4.3789,4.4141,4.3848,4.3574,4.3691,4.3808,4.4141,4.4902,4.5117,4.5449,4.6191,4.6562,4.6797,4.6914,4.7461,4.7949,4.8183,4.8496,4.873,4.8848,4.8457,4.8203,4.8203,4.7812,4.7578,4.7578,4.7695,4.7754,4.7754,4.8164,4.8803,4.9611,5.1137,5.2539,5.3898,5.1097,4.9029,2.7402,2.7734,2.8242,2.8418,0.0,0.0,3.3066,3.3926,3.5137,3.8887,3.9258,3.9297,4.0566,4.0586,4.0508,4.0762,4.0859,4.0976,4.1152,4.1172,4.1172,4.1172,4.041,3.9902,3.9902,3.9101,3.8574,3.8574,3.8574,3.8574,3.8574,3.8574,3.8574,3.8574,3.8574,3.8574,3.8574,3.8574,3.8535,3.8457,3.8281,3.8281,3.8457,3.8281,3.834,3.8574,3.8574,3.8926,3.9492,3.957,3.9961,4.0566,4.0996,4.0898,4.0488,4.0254,3.9746,3.916,3.8926,3.918,3.9668,4.0039,4.1074,4.2226,4.2598,4.3164,4.3711,4.3711,4.3711,4.3769,4.4043,4.3906,4.3828,4.4355,4.4082,4.3769,4.4043,4.3887,4.3711,4.3711,4.3711,4.3984,4.4863,4.5019,4.5371,4.6406,4.6777,4.7051,4.7422,4.7891,4.8281,4.8457,4.8711,4.8789,4.8594,4.8203,4.7871,4.7676,4.7285,4.7051,4.7051,4.7207,4.7305,4.7305,4.7734,4.7949,4.7949,4.8828,4.9981,5.1433,4.9267,4.7969,2.7949,2.8359,2.9004,2.9336,2.8667,0.0,3.3984,3.4258,3.4766,3.9199,4.0098,4.0176,4.041,4.0488,4.0508,4.0469,4.0371,4.0488,4.1035,4.1094,4.1094,4.1094,4.0391,3.9902,3.9902,3.9101,3.8574,3.8574,3.8574,3.8574,3.8574,3.8574,3.8574,3.8574,3.8574,3.8594,3.8652,3.8652,3.8867,3.9277,3.8848,3.8848,3.918,3.8769,3.8574,3.8574,3.8633,3.9121,3.9863,3.9492,3.9844,4.0625,4.0976,4.0898,4.0586,4.0547,4.0,3.9277,3.9277,3.9316,3.9492,4.0371,4.125,4.209,4.291,4.3418,4.3711,4.3711,4.3672,4.3652,4.375,4.3711,4.3652,4.375,4.375,4.3711,4.3711,4.375,4.3789,4.3789,4.373,4.3984,4.4863,4.5058,4.5508,4.6738,4.7012,4.7344,4.8105,4.8242,4.8418,4.8808,4.8808,4.8633,4.8242,4.7773,4.7344,4.6953,4.6543,4.6308,4.6308,4.666,4.6855,4.6855,4.7246,4.7461,4.75,4.8379,4.8555,4.8144,4.8183,4.7969,2.9082,2.8789,2.8848,2.8613,2.8613,0.0,2.9199,2.9629,3.0586,3.293,3.3398,3.3926,3.5644,3.6269,3.6406,3.6016,3.7656,3.9355,4.0488,4.0644,4.0644,4.0644,4.0195,3.9902,3.9902,3.9101,3.8574,3.8574,3.8574,3.8574,3.8574,3.8574,3.8574,3.8574,3.8574,3.875,3.9082,3.9082,3.9316,3.9766,3.9297,3.9121,3.918,3.8769,3.8574,3.8594,3.8926,3.9394,3.9922,4.0156,4.0566,4.1016,4.0762,4.082,4.0996,4.0644,4.0195,3.9766,3.9766,3.998,4.041,4.1269,4.2129,4.293,4.3437,4.3633,4.3711,4.3711,4.3457,4.3359,4.4082,4.373,4.3379,4.4101,4.3984,4.3711,4.3711,4.4004,4.4258,4.4258,4.3965,4.3984,4.4863,4.5312,4.5859,4.6797,4.7519,4.8008,4.8183,4.8516,4.8769,4.8848,4.8535,4.8301,4.8223,4.75,4.7012,4.6933,4.6543,4.6308,4.6308,4.6387,4.6426,4.6426,4.6504,4.6719,4.7051,4.791,4.8125,4.7715,4.8047,4.7969,2.998,2.9726,2.9863,2.9648,2.9258,0.0,0.0,3.0059,3.0566,3.2949,3.3105,3.3184,3.4453,3.4726,3.4726,3.4707,3.6523,3.7871,3.7656,3.9492,4.084,4.084,4.0469,4.0117,3.9922,3.9277,3.8809,3.8594,3.8574,3.8574,3.8574,3.8574,3.8574,3.8574,3.8359,3.8555,3.9199,3.9004,3.9238,3.9883,3.9414,3.9199,3.918,3.8769,3.8574,3.8594,3.9023,3.9473,3.9922,4.0117,4.0586,4.1152,4.0937,4.0976,4.1152,4.0918,4.0449,3.9922,4.0137,4.0215,4.0391,4.1445,4.2226,4.2871,4.3516,4.3711,4.3652,4.3457,4.3398,4.3437,4.3672,4.3574,4.3496,4.3945,4.3867,4.3711,4.3711,4.4062,4.4394,4.4394,4.4375,4.457,4.5234,4.5527,4.6035,4.709,4.7793,4.8281,4.8496,4.873,4.8769,4.8555,4.834,4.8027,4.7617,4.7168,4.6836,4.6621,4.6426,4.6308,4.6308,4.6308,4.6308,4.6308,4.6504,4.6719,4.6933,4.7793,4.7988,4.7598,4.8008,4.8086,3.0996,3.0918,3.1211,3.1055,3.0332,3.0059,0.0,0.0,0.0,3.3476,3.3398,3.3066,3.3398,3.3184,3.3066,3.3418,3.5059,3.5781,3.4297,3.7461,3.9922,3.9922,4.0273,4.0254,3.959,3.8945,3.8652,3.8809,3.8281,3.8184,3.8672,3.8613,3.8574,3.8574,3.8223,3.8457,3.9336,3.8906,3.9141,4.0019,3.9453,3.9199,3.918,3.8769,3.8613,3.8711,3.9141,3.959,4.0019,4.0117,4.0547,4.1172,4.1074,4.1094,4.1172,4.1172,4.0684,4.0078,4.0508,4.0371,4.0215,4.1406,4.2148,4.2695,4.3476,4.3711,4.3613,4.3203,4.332,4.3496,4.3164,4.332,4.3594,4.3691,4.3711,4.3711,4.3711,4.4141,4.4512,4.4512,4.4863,4.5293,4.5723,4.5859,4.6328,4.7519,4.8066,4.8457,4.8808,4.8867,4.8691,4.8262,4.8125,4.7773,4.6992,4.6855,4.666,4.6328,4.6308,4.6308,4.6308,4.6308,4.6308,4.6308,4.6719,4.6973,4.7051,4.7832,4.8027,4.7715,4.8144,4.832,3.2617,3.2246,3.2402,3.1641,3.1894,3.1738,2.9355,0.0,2.9941,2.8789,0.0,2.8965,2.9023,0.0,0.0,2.9023,3.1113,3.2539,3.1953,3.3926,3.543,3.543,3.8437,3.9902,3.8301,3.707,3.7324,3.957,3.7266,3.6738,3.9004,3.8769,3.8574,3.8574,3.8535,3.8926,3.9805,3.9355,3.957,4.0449,3.9609,3.9199,3.918,3.8769,3.8769,3.916,3.9609,4.0059,4.0488,4.0859,4.1094,4.1133,4.0742,4.084,4.1172,4.1172,4.0859,4.0508,4.0957,4.082,4.0605,4.1504,4.2344,4.3086,4.3555,4.3711,4.3613,4.3203,4.3105,4.3144,4.3086,4.3105,4.3242,4.3613,4.3711,4.3711,4.3711,4.4355,4.4961,4.4961,4.5312,4.5742,4.6152,4.6543,4.709,4.8008,4.8496,4.8808,4.8848,4.8867,4.8691,4.8262,4.7871,4.7461,4.6973,4.6582,4.6348,4.6308,4.6308,4.6308,4.6308,4.6308,4.6308,4.6308,4.6719,4.7109,4.75,4.7969,4.8183,4.8144,4.8574,4.8789,3.3027,3.3398,3.3906,3.2305,3.2344,3.2129,2.9609,2.9258,2.9258,2.8535,0.0,0.0,0.0,0.0,0.0,0.0,2.9668,3.0625,2.9453,0.0,3.4141,3.4648,3.5937,3.6992,3.75,3.6621,3.709,3.9707,3.7109,3.6504,3.9062,3.8809,3.8574,3.8574,3.8574,3.9004,3.9883,3.9707,3.9785,4.0156,3.9785,3.9336,3.8828,3.8652,3.8809,3.9219,3.9687,4.0137,4.0566,4.0996,4.1308,4.1484,4.1074,4.1016,4.1172,4.1172,4.0898,4.0586,4.1016,4.0879,4.0703,4.1797,4.2578,4.3105,4.3281,4.334,4.3262,4.2812,4.2891,4.3086,4.3086,4.3262,4.3496,4.3672,4.3711,4.3711,4.3711,4.4219,4.4726,4.498,4.5371,4.5976,4.6894,4.6973,4.7226,4.8086,4.8574,4.8867,4.8867,4.8633,4.832,4.7891,4.7461,4.7031,4.6601,4.6406,4.6308,4.6308,4.6308,4.6308,4.6308,4.6308,4.6426,4.666,4.709,4.7519,4.7949,4.8379,4.8594,4.8594,4.8769,4.8867,3.4101,3.4687,3.5156,3.2773,3.248,3.2226,3.0059,2.9512,2.9394,2.9141,2.9043,0.0,0.0,0.0,0.0,0.0,0.0,2.9121,0.0,2.9824,0.0,0.0,0.0,0.0,3.6387,3.5293,3.5801,3.9101,3.6445,3.6055,3.9219,3.8984,3.8691,3.8574,3.8691,3.9121,3.9883,3.9766,3.9766,3.9883,3.9648,3.9199,3.8574,3.8574,3.8867,3.9414,3.9746,4.0273,4.0879,4.1094,4.1426,4.1758,4.1348,4.125,4.1348,4.1348,4.1152,4.0918,4.123,4.0647,3.9969,4.1002,4.1614,4.214,4.2728,4.2988,4.2988,4.2558,4.2734,4.3086,4.3086,4.3398,4.3711,4.3711,4.3711,4.3711,4.3711,4.4062,4.4531,4.4941,4.5371,4.6035,4.7207,4.7246,4.7402,4.8262,4.8555,4.8672,4.8672,4.8301,4.7871,4.7441,4.7109,4.6758,4.6328,4.6308,4.6308,4.6308,4.6308,4.6308,4.6308,4.6308,4.6504,4.6914,4.7363,4.7793,4.8203,4.8652,4.8867,4.8867,4.8867,4.8867,3.6484,3.6269,3.5918,3.2972,3.248,3.2226,3.0059,3.0215,3.0586,2.9726,3.0215,3.0547,2.9687,0.0,0.0,0.0,0.0,0.0,0.0,0.0,0.0,0.0,0.0,0.0,0.0,3.2148,3.2458,3.7598,3.4805,3.4922,3.9629,3.9434,3.9004,3.8594,3.8965,3.9414,3.9883,3.9453,3.9453,3.9883,3.9023,3.8613,3.8574,3.8574,3.9043,3.9883,3.9883,4.0605,4.1738,4.1328,4.1426,4.1758,4.1348,4.1426,4.1777,4.1777,4.1777,4.1758,4.1777,4.0107,3.8029,3.8525,3.8942,3.9677,4.1779,4.2734,4.2988,4.2558,4.2734,4.3086,4.3086,4.3398,4.3711,4.3711,4.3711,4.3711,4.3711,4.4062,4.4531,4.4941,4.5371,4.5957,4.6797,4.7285,4.7851,4.8711,4.8496,4.8223,4.8223,4.7851,4.7441,4.6992,4.6933,4.6758,4.6328,4.6308,4.6308,4.6308,4.6308,4.6308,4.6308,4.6308,4.6504,4.6914,4.7363,4.7793,4.8203,4.8652,4.8867,4.8867,4.8867,4.8867,3.791,3.8457,3.8359,3.4746,3.4394,3.4062,3.0742,3.0664,3.0976,2.9805,3.0488,3.0957,2.9785,0.0,0.0,0.0,0.0,0.0,0.0,0.0,0.0,0.0,0.0,0.0,0.0,0.0,0.0,0.0,3.4659,0.0,3.9651,3.8141,3.7558,3.8594,3.9277,3.9726,3.9902,4.0019,4.0019,3.9883,3.9277,3.8984,3.8984,3.8984,3.9473,4.0332,4.0625,4.0976,4.1387,4.1523,4.168,4.1758,4.1348,4.1777,4.2578,4.2012,4.1797,4.1521,3.9832,3.8658,3.7711,3.6713,3.741,3.8851,3.9597,4.0934,4.2266,4.2383,4.2539,4.2773,4.334,4.3594,4.3711,4.3711,4.3711,4.3789,4.4101,4.4297,4.4609,4.5312,4.5566,4.5937,4.6777,4.7051,4.7344,4.793,4.7891,4.7793,4.7793,4.7422,4.709,4.6953,4.668,4.6465,4.6308,4.6308,4.6308,4.6308,4.6308,4.6308,4.6308,4.6562,4.6914,4.7344,4.7773,4.8203,4.8633,4.8789,4.8867,4.8867,4.8867,4.8867,3.9199,3.9766,3.9668,3.6074,3.5723,3.5351,3.1914,3.1797,3.2148,3.1152,3.1367,3.1777,0.0,0.0,0.0,0.0,0.0,0.0,0.0,2.4844,0.0,0.0,0.0,0.0,0.0,0.0,0.0,0.0,0.0,0.0,0.0,3.6791,3.6636,3.7666,3.9118,3.9824,3.9648,4.0078,4.0078,3.9648,3.9336,3.9199,3.9199,3.9375,3.9844,4.0547,4.082,4.1113,4.1406,4.1523,4.166,4.1758,4.1348,4.1758,4.2578,4.2168,4.2129,4.1829,3.9111,3.7703,3.6939,3.5721,3.5773,3.6597,3.8105,3.9677,4.1304,4.2336,4.2773,4.3008,4.3555,4.3711,4.3711,4.3711,4.3828,4.4043,4.4336,4.4512,4.4824,4.5547,4.5683,4.5898,4.6582,4.6699,4.6914,4.75,4.7441,4.7344,4.7344,4.6973,4.6699,4.6699,4.6465,4.6308,4.6308,4.6308,4.6308,4.6308,4.6308,4.6308,4.6308,4.6699,4.7129,4.7578,4.7988,4.8418,4.8867,4.8867,4.8867,4.8867,4.8867,4.8867]}]]